<?xml version="1.0" encoding="UTF-8" standalone="no" ?>
<gpx xmlns="http://www.topografix.com/GPX/1/1" xmlns:xsi="http://www.w3.org/2001/XMLSchema-instance" xsi:schemaLocation="http://www.topografix.com/GPX/1/1 http://www.topografix.com/GPX/1/1/gpx.xsd" version="1.1" creator="VisuGPX - https://www.visugpx.com">
  <metadata>
    <name>St Rémy en Mauges VTT n° 10</name>
    <desc><![CDATA[sortie seul sur un circuit vtt très physique avec de superbes vues.circuit avec traversée de pâturage avec animaux,prudence]]></desc>
  </metadata>
  <trk>
    <name><![CDATA[2017-06-05-14-57-51 on GPSies.com]]></name>
    <trkseg>
      <trkpt lat="47.27186" lon="-1.07285">
        <ele>74</ele>
        <time>2017-06-05T14:57:51Z</time>
      </trkpt>
      <trkpt lat="47.27187" lon="-1.07288">
        <ele>74</ele>
        <time>2017-06-05T14:57:57Z</time>
      </trkpt>
      <trkpt lat="47.27188" lon="-1.07293">
        <ele>74</ele>
        <time>2017-06-05T14:57:59Z</time>
      </trkpt>
      <trkpt lat="47.27188" lon="-1.07296">
        <ele>74</ele>
        <time>2017-06-05T14:58:00Z</time>
      </trkpt>
      <trkpt lat="47.27186" lon="-1.073">
        <ele>74</ele>
        <time>2017-06-05T14:58:02Z</time>
      </trkpt>
      <trkpt lat="47.27181" lon="-1.07301">
        <ele>74</ele>
        <time>2017-06-05T14:58:04Z</time>
      </trkpt>
      <trkpt lat="47.27176" lon="-1.07302">
        <ele>74</ele>
        <time>2017-06-05T14:58:06Z</time>
      </trkpt>
      <trkpt lat="47.27167" lon="-1.07306">
        <ele>74</ele>
        <time>2017-06-05T14:58:10Z</time>
      </trkpt>
      <trkpt lat="47.27155" lon="-1.07312">
        <ele>74</ele>
        <time>2017-06-05T14:58:16Z</time>
      </trkpt>
      <trkpt lat="47.27142" lon="-1.07321">
        <ele>74</ele>
        <time>2017-06-05T14:58:21Z</time>
      </trkpt>
      <trkpt lat="47.27136" lon="-1.07341">
        <ele>74</ele>
        <time>2017-06-05T14:58:25Z</time>
      </trkpt>
      <trkpt lat="47.27133" lon="-1.07352">
        <ele>75</ele>
        <time>2017-06-05T14:58:27Z</time>
      </trkpt>
      <trkpt lat="47.2713" lon="-1.07368">
        <ele>76</ele>
        <time>2017-06-05T14:58:30Z</time>
      </trkpt>
      <trkpt lat="47.27128" lon="-1.07373">
        <ele>76</ele>
        <time>2017-06-05T14:58:31Z</time>
      </trkpt>
      <trkpt lat="47.27126" lon="-1.07377">
        <ele>76</ele>
        <time>2017-06-05T14:58:32Z</time>
      </trkpt>
      <trkpt lat="47.2712" lon="-1.07381">
        <ele>76</ele>
        <time>2017-06-05T14:58:34Z</time>
      </trkpt>
      <trkpt lat="47.27117" lon="-1.07382">
        <ele>77</ele>
        <time>2017-06-05T14:58:35Z</time>
      </trkpt>
      <trkpt lat="47.27105" lon="-1.07385">
        <ele>76</ele>
        <time>2017-06-05T14:58:38Z</time>
      </trkpt>
      <trkpt lat="47.27091" lon="-1.0739">
        <ele>76</ele>
        <time>2017-06-05T14:58:42Z</time>
      </trkpt>
      <trkpt lat="47.2707" lon="-1.07397">
        <ele>77</ele>
        <time>2017-06-05T14:58:48Z</time>
      </trkpt>
      <trkpt lat="47.27061" lon="-1.074">
        <ele>77</ele>
        <time>2017-06-05T14:58:51Z</time>
      </trkpt>
      <trkpt lat="47.2705" lon="-1.07405">
        <ele>78</ele>
        <time>2017-06-05T14:58:55Z</time>
      </trkpt>
      <trkpt lat="47.27039" lon="-1.07411">
        <ele>79</ele>
        <time>2017-06-05T14:58:59Z</time>
      </trkpt>
      <trkpt lat="47.27036" lon="-1.07412">
        <ele>79</ele>
        <time>2017-06-05T14:59:00Z</time>
      </trkpt>
      <trkpt lat="47.27024" lon="-1.07417">
        <ele>80</ele>
        <time>2017-06-05T14:59:04Z</time>
      </trkpt>
      <trkpt lat="47.27021" lon="-1.07419">
        <ele>80</ele>
        <time>2017-06-05T14:59:05Z</time>
      </trkpt>
      <trkpt lat="47.27009" lon="-1.07425">
        <ele>81</ele>
        <time>2017-06-05T14:59:09Z</time>
      </trkpt>
      <trkpt lat="47.27006" lon="-1.07427">
        <ele>81</ele>
        <time>2017-06-05T14:59:10Z</time>
      </trkpt>
      <trkpt lat="47.26978" lon="-1.0744">
        <ele>82</ele>
        <time>2017-06-05T14:59:19Z</time>
      </trkpt>
      <trkpt lat="47.26972" lon="-1.07443">
        <ele>82</ele>
        <time>2017-06-05T14:59:21Z</time>
      </trkpt>
      <trkpt lat="47.26962" lon="-1.07447">
        <ele>84</ele>
        <time>2017-06-05T14:59:24Z</time>
      </trkpt>
      <trkpt lat="47.26949" lon="-1.07453">
        <ele>84</ele>
        <time>2017-06-05T14:59:28Z</time>
      </trkpt>
      <trkpt lat="47.26921" lon="-1.0747">
        <ele>85</ele>
        <time>2017-06-05T14:59:37Z</time>
      </trkpt>
      <trkpt lat="47.26889" lon="-1.07487">
        <ele>85</ele>
        <time>2017-06-05T14:59:47Z</time>
      </trkpt>
      <trkpt lat="47.26886" lon="-1.07489">
        <ele>86</ele>
        <time>2017-06-05T14:59:48Z</time>
      </trkpt>
      <trkpt lat="47.26865" lon="-1.07501">
        <ele>87</ele>
        <time>2017-06-05T14:59:55Z</time>
      </trkpt>
      <trkpt lat="47.26853" lon="-1.07507">
        <ele>87</ele>
        <time>2017-06-05T14:59:59Z</time>
      </trkpt>
      <trkpt lat="47.2685" lon="-1.07508">
        <ele>88</ele>
        <time>2017-06-05T15:00:00Z</time>
      </trkpt>
      <trkpt lat="47.26826" lon="-1.07518">
        <ele>89</ele>
        <time>2017-06-05T15:00:08Z</time>
      </trkpt>
      <trkpt lat="47.26822" lon="-1.07519">
        <ele>89</ele>
        <time>2017-06-05T15:00:09Z</time>
      </trkpt>
      <trkpt lat="47.26819" lon="-1.07519">
        <ele>89</ele>
        <time>2017-06-05T15:00:10Z</time>
      </trkpt>
      <trkpt lat="47.2681" lon="-1.07522">
        <ele>90</ele>
        <time>2017-06-05T15:00:13Z</time>
      </trkpt>
      <trkpt lat="47.268" lon="-1.07524">
        <ele>90</ele>
        <time>2017-06-05T15:00:16Z</time>
      </trkpt>
      <trkpt lat="47.26776" lon="-1.07529">
        <ele>91</ele>
        <time>2017-06-05T15:00:24Z</time>
      </trkpt>
      <trkpt lat="47.26774" lon="-1.0753">
        <ele>91</ele>
        <time>2017-06-05T15:00:25Z</time>
      </trkpt>
      <trkpt lat="47.26763" lon="-1.07533">
        <ele>92</ele>
        <time>2017-06-05T15:00:29Z</time>
      </trkpt>
      <trkpt lat="47.26751" lon="-1.07535">
        <ele>92</ele>
        <time>2017-06-05T15:00:33Z</time>
      </trkpt>
      <trkpt lat="47.26736" lon="-1.07538">
        <ele>93</ele>
        <time>2017-06-05T15:00:38Z</time>
      </trkpt>
      <trkpt lat="47.26721" lon="-1.07543">
        <ele>94</ele>
        <time>2017-06-05T15:00:43Z</time>
      </trkpt>
      <trkpt lat="47.26712" lon="-1.07547">
        <ele>94</ele>
        <time>2017-06-05T15:00:46Z</time>
      </trkpt>
      <trkpt lat="47.26692" lon="-1.07556">
        <ele>95</ele>
        <time>2017-06-05T15:00:52Z</time>
      </trkpt>
      <trkpt lat="47.26689" lon="-1.07558">
        <ele>96</ele>
        <time>2017-06-05T15:00:53Z</time>
      </trkpt>
      <trkpt lat="47.26666" lon="-1.0757">
        <ele>97</ele>
        <time>2017-06-05T15:01:00Z</time>
      </trkpt>
      <trkpt lat="47.26659" lon="-1.07573">
        <ele>97</ele>
        <time>2017-06-05T15:01:02Z</time>
      </trkpt>
      <trkpt lat="47.26633" lon="-1.07584">
        <ele>98</ele>
        <time>2017-06-05T15:01:10Z</time>
      </trkpt>
      <trkpt lat="47.26629" lon="-1.07584">
        <ele>98</ele>
        <time>2017-06-05T15:01:11Z</time>
      </trkpt>
      <trkpt lat="47.26618" lon="-1.07572">
        <ele>98</ele>
        <time>2017-06-05T15:01:15Z</time>
      </trkpt>
      <trkpt lat="47.26601" lon="-1.07536">
        <ele>99</ele>
        <time>2017-06-05T15:01:23Z</time>
      </trkpt>
      <trkpt lat="47.26598" lon="-1.07532">
        <ele>99</ele>
        <time>2017-06-05T15:01:24Z</time>
      </trkpt>
      <trkpt lat="47.2658" lon="-1.07496">
        <ele>100</ele>
        <time>2017-06-05T15:01:32Z</time>
      </trkpt>
      <trkpt lat="47.26568" lon="-1.07455">
        <ele>100</ele>
        <time>2017-06-05T15:01:40Z</time>
      </trkpt>
      <trkpt lat="47.26559" lon="-1.0743">
        <ele>99</ele>
        <time>2017-06-05T15:01:44Z</time>
      </trkpt>
      <trkpt lat="47.26552" lon="-1.07413">
        <ele>99</ele>
        <time>2017-06-05T15:01:47Z</time>
      </trkpt>
      <trkpt lat="47.26543" lon="-1.07388">
        <ele>99</ele>
        <time>2017-06-05T15:01:51Z</time>
      </trkpt>
      <trkpt lat="47.26538" lon="-1.07377">
        <ele>99</ele>
        <time>2017-06-05T15:01:53Z</time>
      </trkpt>
      <trkpt lat="47.26529" lon="-1.07354">
        <ele>98</ele>
        <time>2017-06-05T15:01:57Z</time>
      </trkpt>
      <trkpt lat="47.26519" lon="-1.07333">
        <ele>98</ele>
        <time>2017-06-05T15:02:00Z</time>
      </trkpt>
      <trkpt lat="47.26503" lon="-1.07303">
        <ele>98</ele>
        <time>2017-06-05T15:02:04Z</time>
      </trkpt>
      <trkpt lat="47.265" lon="-1.07295">
        <ele>98</ele>
        <time>2017-06-05T15:02:05Z</time>
      </trkpt>
      <trkpt lat="47.26498" lon="-1.07287">
        <ele>98</ele>
        <time>2017-06-05T15:02:06Z</time>
      </trkpt>
      <trkpt lat="47.26497" lon="-1.07271">
        <ele>98</ele>
        <time>2017-06-05T15:02:08Z</time>
      </trkpt>
      <trkpt lat="47.26498" lon="-1.07262">
        <ele>97</ele>
        <time>2017-06-05T15:02:09Z</time>
      </trkpt>
      <trkpt lat="47.26503" lon="-1.07242">
        <ele>97</ele>
        <time>2017-06-05T15:02:11Z</time>
      </trkpt>
      <trkpt lat="47.26506" lon="-1.07233">
        <ele>97</ele>
        <time>2017-06-05T15:02:12Z</time>
      </trkpt>
      <trkpt lat="47.26509" lon="-1.07224">
        <ele>96</ele>
        <time>2017-06-05T15:02:13Z</time>
      </trkpt>
      <trkpt lat="47.26519" lon="-1.07197">
        <ele>96</ele>
        <time>2017-06-05T15:02:16Z</time>
      </trkpt>
      <trkpt lat="47.2653" lon="-1.07169">
        <ele>95</ele>
        <time>2017-06-05T15:02:19Z</time>
      </trkpt>
      <trkpt lat="47.26547" lon="-1.07133">
        <ele>94</ele>
        <time>2017-06-05T15:02:23Z</time>
      </trkpt>
      <trkpt lat="47.26561" lon="-1.07109">
        <ele>94</ele>
        <time>2017-06-05T15:02:26Z</time>
      </trkpt>
      <trkpt lat="47.26575" lon="-1.07086">
        <ele>93</ele>
        <time>2017-06-05T15:02:29Z</time>
      </trkpt>
      <trkpt lat="47.26591" lon="-1.07054">
        <ele>92</ele>
        <time>2017-06-05T15:02:33Z</time>
      </trkpt>
      <trkpt lat="47.2661" lon="-1.07005">
        <ele>91</ele>
        <time>2017-06-05T15:02:39Z</time>
      </trkpt>
      <trkpt lat="47.26613" lon="-1.06997">
        <ele>91</ele>
        <time>2017-06-05T15:02:40Z</time>
      </trkpt>
      <trkpt lat="47.26623" lon="-1.06954">
        <ele>90</ele>
        <time>2017-06-05T15:02:45Z</time>
      </trkpt>
      <trkpt lat="47.26623" lon="-1.06945">
        <ele>90</ele>
        <time>2017-06-05T15:02:46Z</time>
      </trkpt>
      <trkpt lat="47.26623" lon="-1.06935">
        <ele>90</ele>
        <time>2017-06-05T15:02:47Z</time>
      </trkpt>
      <trkpt lat="47.26623" lon="-1.06926">
        <ele>90</ele>
        <time>2017-06-05T15:02:48Z</time>
      </trkpt>
      <trkpt lat="47.26623" lon="-1.06908">
        <ele>90</ele>
        <time>2017-06-05T15:02:50Z</time>
      </trkpt>
      <trkpt lat="47.26627" lon="-1.06842">
        <ele>89</ele>
        <time>2017-06-05T15:02:58Z</time>
      </trkpt>
      <trkpt lat="47.26628" lon="-1.068">
        <ele>88</ele>
        <time>2017-06-05T15:03:03Z</time>
      </trkpt>
      <trkpt lat="47.26627" lon="-1.06782">
        <ele>87</ele>
        <time>2017-06-05T15:03:05Z</time>
      </trkpt>
      <trkpt lat="47.26623" lon="-1.06728">
        <ele>86</ele>
        <time>2017-06-05T15:03:11Z</time>
      </trkpt>
      <trkpt lat="47.26621" lon="-1.06701">
        <ele>86</ele>
        <time>2017-06-05T15:03:14Z</time>
      </trkpt>
      <trkpt lat="47.26622" lon="-1.06674">
        <ele>85</ele>
        <time>2017-06-05T15:03:17Z</time>
      </trkpt>
      <trkpt lat="47.26623" lon="-1.06656">
        <ele>85</ele>
        <time>2017-06-05T15:03:19Z</time>
      </trkpt>
      <trkpt lat="47.26632" lon="-1.06591">
        <ele>85</ele>
        <time>2017-06-05T15:03:26Z</time>
      </trkpt>
      <trkpt lat="47.26642" lon="-1.06556">
        <ele>85</ele>
        <time>2017-06-05T15:03:31Z</time>
      </trkpt>
      <trkpt lat="47.26649" lon="-1.06534">
        <ele>84</ele>
        <time>2017-06-05T15:03:34Z</time>
      </trkpt>
      <trkpt lat="47.26654" lon="-1.06519">
        <ele>84</ele>
        <time>2017-06-05T15:03:36Z</time>
      </trkpt>
      <trkpt lat="47.26659" lon="-1.06504">
        <ele>83</ele>
        <time>2017-06-05T15:03:38Z</time>
      </trkpt>
      <trkpt lat="47.2667" lon="-1.06476">
        <ele>82</ele>
        <time>2017-06-05T15:03:42Z</time>
      </trkpt>
      <trkpt lat="47.26671" lon="-1.06468">
        <ele>82</ele>
        <time>2017-06-05T15:03:43Z</time>
      </trkpt>
      <trkpt lat="47.26672" lon="-1.06461">
        <ele>82</ele>
        <time>2017-06-05T15:03:44Z</time>
      </trkpt>
      <trkpt lat="47.26671" lon="-1.06446">
        <ele>81</ele>
        <time>2017-06-05T15:03:46Z</time>
      </trkpt>
      <trkpt lat="47.26666" lon="-1.06433">
        <ele>81</ele>
        <time>2017-06-05T15:03:49Z</time>
      </trkpt>
      <trkpt lat="47.26663" lon="-1.0643">
        <ele>81</ele>
        <time>2017-06-05T15:03:50Z</time>
      </trkpt>
      <trkpt lat="47.2666" lon="-1.06426">
        <ele>81</ele>
        <time>2017-06-05T15:03:51Z</time>
      </trkpt>
      <trkpt lat="47.26643" lon="-1.06411">
        <ele>80</ele>
        <time>2017-06-05T15:03:56Z</time>
      </trkpt>
      <trkpt lat="47.26628" lon="-1.06401">
        <ele>80</ele>
        <time>2017-06-05T15:04:00Z</time>
      </trkpt>
      <trkpt lat="47.26625" lon="-1.06399">
        <ele>79</ele>
        <time>2017-06-05T15:04:01Z</time>
      </trkpt>
      <trkpt lat="47.26617" lon="-1.06391">
        <ele>79</ele>
        <time>2017-06-05T15:04:03Z</time>
      </trkpt>
      <trkpt lat="47.26612" lon="-1.06378">
        <ele>78</ele>
        <time>2017-06-05T15:04:05Z</time>
      </trkpt>
      <trkpt lat="47.26612" lon="-1.06364">
        <ele>78</ele>
        <time>2017-06-05T15:04:07Z</time>
      </trkpt>
      <trkpt lat="47.26612" lon="-1.06358">
        <ele>77</ele>
        <time>2017-06-05T15:04:08Z</time>
      </trkpt>
      <trkpt lat="47.26613" lon="-1.06352">
        <ele>77</ele>
        <time>2017-06-05T15:04:09Z</time>
      </trkpt>
      <trkpt lat="47.26613" lon="-1.06348">
        <ele>78</ele>
        <time>2017-06-05T15:04:10Z</time>
      </trkpt>
      <trkpt lat="47.26614" lon="-1.0634">
        <ele>78</ele>
        <time>2017-06-05T15:04:12Z</time>
      </trkpt>
      <trkpt lat="47.26614" lon="-1.06333">
        <ele>79</ele>
        <time>2017-06-05T15:04:14Z</time>
      </trkpt>
      <trkpt lat="47.26614" lon="-1.06326">
        <ele>80</ele>
        <time>2017-06-05T15:04:16Z</time>
      </trkpt>
      <trkpt lat="47.26614" lon="-1.06323">
        <ele>80</ele>
        <time>2017-06-05T15:04:17Z</time>
      </trkpt>
      <trkpt lat="47.26614" lon="-1.06317">
        <ele>80</ele>
        <time>2017-06-05T15:04:19Z</time>
      </trkpt>
      <trkpt lat="47.26614" lon="-1.06313">
        <ele>81</ele>
        <time>2017-06-05T15:04:20Z</time>
      </trkpt>
      <trkpt lat="47.26614" lon="-1.0631">
        <ele>81</ele>
        <time>2017-06-05T15:04:21Z</time>
      </trkpt>
      <trkpt lat="47.26615" lon="-1.06298">
        <ele>82</ele>
        <time>2017-06-05T15:04:24Z</time>
      </trkpt>
      <trkpt lat="47.26616" lon="-1.06294">
        <ele>82</ele>
        <time>2017-06-05T15:04:25Z</time>
      </trkpt>
      <trkpt lat="47.26618" lon="-1.06277">
        <ele>83</ele>
        <time>2017-06-05T15:04:29Z</time>
      </trkpt>
      <trkpt lat="47.26619" lon="-1.06274">
        <ele>83</ele>
        <time>2017-06-05T15:04:30Z</time>
      </trkpt>
      <trkpt lat="47.26623" lon="-1.06252">
        <ele>84</ele>
        <time>2017-06-05T15:04:35Z</time>
      </trkpt>
      <trkpt lat="47.26625" lon="-1.06243">
        <ele>85</ele>
        <time>2017-06-05T15:04:37Z</time>
      </trkpt>
      <trkpt lat="47.2663" lon="-1.06223">
        <ele>85</ele>
        <time>2017-06-05T15:04:41Z</time>
      </trkpt>
      <trkpt lat="47.26638" lon="-1.06202">
        <ele>86</ele>
        <time>2017-06-05T15:04:45Z</time>
      </trkpt>
      <trkpt lat="47.26653" lon="-1.06155">
        <ele>86</ele>
        <time>2017-06-05T15:04:53Z</time>
      </trkpt>
      <trkpt lat="47.26664" lon="-1.06107">
        <ele>86</ele>
        <time>2017-06-05T15:05:01Z</time>
      </trkpt>
      <trkpt lat="47.26665" lon="-1.06059">
        <ele>86</ele>
        <time>2017-06-05T15:05:08Z</time>
      </trkpt>
      <trkpt lat="47.26657" lon="-1.06036">
        <ele>85</ele>
        <time>2017-06-05T15:05:12Z</time>
      </trkpt>
      <trkpt lat="47.26654" lon="-1.06031">
        <ele>85</ele>
        <time>2017-06-05T15:05:13Z</time>
      </trkpt>
      <trkpt lat="47.2665" lon="-1.06018">
        <ele>85</ele>
        <time>2017-06-05T15:05:15Z</time>
      </trkpt>
      <trkpt lat="47.26649" lon="-1.06002">
        <ele>85</ele>
        <time>2017-06-05T15:05:17Z</time>
      </trkpt>
      <trkpt lat="47.26651" lon="-1.05987">
        <ele>85</ele>
        <time>2017-06-05T15:05:19Z</time>
      </trkpt>
      <trkpt lat="47.26653" lon="-1.05966">
        <ele>85</ele>
        <time>2017-06-05T15:05:22Z</time>
      </trkpt>
      <trkpt lat="47.26654" lon="-1.05958">
        <ele>85</ele>
        <time>2017-06-05T15:05:23Z</time>
      </trkpt>
      <trkpt lat="47.26657" lon="-1.05929">
        <ele>85</ele>
        <time>2017-06-05T15:05:27Z</time>
      </trkpt>
      <trkpt lat="47.26658" lon="-1.05907">
        <ele>85</ele>
        <time>2017-06-05T15:05:30Z</time>
      </trkpt>
      <trkpt lat="47.26658" lon="-1.05899">
        <ele>84</ele>
        <time>2017-06-05T15:05:31Z</time>
      </trkpt>
      <trkpt lat="47.26657" lon="-1.05885">
        <ele>84</ele>
        <time>2017-06-05T15:05:33Z</time>
      </trkpt>
      <trkpt lat="47.26658" lon="-1.05871">
        <ele>83</ele>
        <time>2017-06-05T15:05:36Z</time>
      </trkpt>
      <trkpt lat="47.26657" lon="-1.05867">
        <ele>83</ele>
        <time>2017-06-05T15:05:37Z</time>
      </trkpt>
      <trkpt lat="47.26644" lon="-1.05845">
        <ele>83</ele>
        <time>2017-06-05T15:05:42Z</time>
      </trkpt>
      <trkpt lat="47.26634" lon="-1.05826">
        <ele>82</ele>
        <time>2017-06-05T15:05:46Z</time>
      </trkpt>
      <trkpt lat="47.26624" lon="-1.05804">
        <ele>82</ele>
        <time>2017-06-05T15:05:50Z</time>
      </trkpt>
      <trkpt lat="47.26614" lon="-1.05781">
        <ele>81</ele>
        <time>2017-06-05T15:05:54Z</time>
      </trkpt>
      <trkpt lat="47.26601" lon="-1.05757">
        <ele>80</ele>
        <time>2017-06-05T15:05:58Z</time>
      </trkpt>
      <trkpt lat="47.26592" lon="-1.05742">
        <ele>79</ele>
        <time>2017-06-05T15:06:01Z</time>
      </trkpt>
      <trkpt lat="47.26584" lon="-1.05727">
        <ele>78</ele>
        <time>2017-06-05T15:06:04Z</time>
      </trkpt>
      <trkpt lat="47.26577" lon="-1.05717">
        <ele>77</ele>
        <time>2017-06-05T15:06:06Z</time>
      </trkpt>
      <trkpt lat="47.26565" lon="-1.05705">
        <ele>77</ele>
        <time>2017-06-05T15:06:09Z</time>
      </trkpt>
      <trkpt lat="47.26552" lon="-1.05695">
        <ele>76</ele>
        <time>2017-06-05T15:06:12Z</time>
      </trkpt>
      <trkpt lat="47.26549" lon="-1.05692">
        <ele>75</ele>
        <time>2017-06-05T15:06:13Z</time>
      </trkpt>
      <trkpt lat="47.26536" lon="-1.05681">
        <ele>74</ele>
        <time>2017-06-05T15:06:16Z</time>
      </trkpt>
      <trkpt lat="47.26528" lon="-1.05675">
        <ele>73</ele>
        <time>2017-06-05T15:06:18Z</time>
      </trkpt>
      <trkpt lat="47.26523" lon="-1.05672">
        <ele>72</ele>
        <time>2017-06-05T15:06:19Z</time>
      </trkpt>
      <trkpt lat="47.26514" lon="-1.05665">
        <ele>72</ele>
        <time>2017-06-05T15:06:21Z</time>
      </trkpt>
      <trkpt lat="47.26502" lon="-1.05659">
        <ele>70</ele>
        <time>2017-06-05T15:06:24Z</time>
      </trkpt>
      <trkpt lat="47.26499" lon="-1.05657">
        <ele>70</ele>
        <time>2017-06-05T15:06:25Z</time>
      </trkpt>
      <trkpt lat="47.26489" lon="-1.05656">
        <ele>69</ele>
        <time>2017-06-05T15:06:28Z</time>
      </trkpt>
      <trkpt lat="47.26487" lon="-1.05656">
        <ele>69</ele>
        <time>2017-06-05T15:06:29Z</time>
      </trkpt>
      <trkpt lat="47.26476" lon="-1.0565">
        <ele>68</ele>
        <time>2017-06-05T15:06:34Z</time>
      </trkpt>
      <trkpt lat="47.26473" lon="-1.05648">
        <ele>67</ele>
        <time>2017-06-05T15:06:35Z</time>
      </trkpt>
      <trkpt lat="47.26467" lon="-1.05643">
        <ele>66</ele>
        <time>2017-06-05T15:06:38Z</time>
      </trkpt>
      <trkpt lat="47.26466" lon="-1.05642">
        <ele>66</ele>
        <time>2017-06-05T15:06:39Z</time>
      </trkpt>
      <trkpt lat="47.26464" lon="-1.05641">
        <ele>65</ele>
        <time>2017-06-05T15:06:40Z</time>
      </trkpt>
      <trkpt lat="47.26462" lon="-1.0563">
        <ele>61</ele>
        <time>2017-06-05T15:06:51Z</time>
      </trkpt>
      <trkpt lat="47.26463" lon="-1.05619">
        <ele>60</ele>
        <time>2017-06-05T15:06:54Z</time>
      </trkpt>
      <trkpt lat="47.26473" lon="-1.056">
        <ele>59</ele>
        <time>2017-06-05T15:06:58Z</time>
      </trkpt>
      <trkpt lat="47.26488" lon="-1.05573">
        <ele>58</ele>
        <time>2017-06-05T15:07:04Z</time>
      </trkpt>
      <trkpt lat="47.26493" lon="-1.05562">
        <ele>58</ele>
        <time>2017-06-05T15:07:06Z</time>
      </trkpt>
      <trkpt lat="47.26497" lon="-1.05544">
        <ele>58</ele>
        <time>2017-06-05T15:07:09Z</time>
      </trkpt>
      <trkpt lat="47.26504" lon="-1.05502">
        <ele>59</ele>
        <time>2017-06-05T15:07:16Z</time>
      </trkpt>
      <trkpt lat="47.26501" lon="-1.05494">
        <ele>58</ele>
        <time>2017-06-05T15:07:23Z</time>
      </trkpt>
      <trkpt lat="47.26493" lon="-1.05491">
        <ele>58</ele>
        <time>2017-06-05T15:07:25Z</time>
      </trkpt>
      <trkpt lat="47.26479" lon="-1.05482">
        <ele>57</ele>
        <time>2017-06-05T15:07:28Z</time>
      </trkpt>
      <trkpt lat="47.26469" lon="-1.05474">
        <ele>56</ele>
        <time>2017-06-05T15:07:30Z</time>
      </trkpt>
      <trkpt lat="47.26463" lon="-1.05468">
        <ele>54</ele>
        <time>2017-06-05T15:07:31Z</time>
      </trkpt>
      <trkpt lat="47.26452" lon="-1.05459">
        <ele>53</ele>
        <time>2017-06-05T15:07:33Z</time>
      </trkpt>
      <trkpt lat="47.26436" lon="-1.05448">
        <ele>52</ele>
        <time>2017-06-05T15:07:36Z</time>
      </trkpt>
      <trkpt lat="47.26423" lon="-1.0544">
        <ele>51</ele>
        <time>2017-06-05T15:07:39Z</time>
      </trkpt>
      <trkpt lat="47.26418" lon="-1.05437">
        <ele>51</ele>
        <time>2017-06-05T15:07:40Z</time>
      </trkpt>
      <trkpt lat="47.26406" lon="-1.05429">
        <ele>49</ele>
        <time>2017-06-05T15:07:43Z</time>
      </trkpt>
      <trkpt lat="47.26394" lon="-1.05422">
        <ele>48</ele>
        <time>2017-06-05T15:07:46Z</time>
      </trkpt>
      <trkpt lat="47.26385" lon="-1.05411">
        <ele>47</ele>
        <time>2017-06-05T15:07:50Z</time>
      </trkpt>
      <trkpt lat="47.26384" lon="-1.05406">
        <ele>47</ele>
        <time>2017-06-05T15:07:51Z</time>
      </trkpt>
      <trkpt lat="47.26384" lon="-1.05401">
        <ele>46</ele>
        <time>2017-06-05T15:07:52Z</time>
      </trkpt>
      <trkpt lat="47.26384" lon="-1.05395">
        <ele>46</ele>
        <time>2017-06-05T15:07:53Z</time>
      </trkpt>
      <trkpt lat="47.26386" lon="-1.05378">
        <ele>46</ele>
        <time>2017-06-05T15:07:56Z</time>
      </trkpt>
      <trkpt lat="47.26387" lon="-1.05372">
        <ele>45</ele>
        <time>2017-06-05T15:07:57Z</time>
      </trkpt>
      <trkpt lat="47.26389" lon="-1.0536">
        <ele>45</ele>
        <time>2017-06-05T15:07:59Z</time>
      </trkpt>
      <trkpt lat="47.26391" lon="-1.05344">
        <ele>46</ele>
        <time>2017-06-05T15:08:02Z</time>
      </trkpt>
      <trkpt lat="47.26392" lon="-1.05324">
        <ele>46</ele>
        <time>2017-06-05T15:08:05Z</time>
      </trkpt>
      <trkpt lat="47.26396" lon="-1.05278">
        <ele>46</ele>
        <time>2017-06-05T15:08:11Z</time>
      </trkpt>
      <trkpt lat="47.26398" lon="-1.05229">
        <ele>45</ele>
        <time>2017-06-05T15:08:17Z</time>
      </trkpt>
      <trkpt lat="47.26398" lon="-1.05194">
        <ele>44</ele>
        <time>2017-06-05T15:08:21Z</time>
      </trkpt>
      <trkpt lat="47.26398" lon="-1.0517">
        <ele>44</ele>
        <time>2017-06-05T15:08:24Z</time>
      </trkpt>
      <trkpt lat="47.26399" lon="-1.05137">
        <ele>43</ele>
        <time>2017-06-05T15:08:28Z</time>
      </trkpt>
      <trkpt lat="47.264" lon="-1.05115">
        <ele>42</ele>
        <time>2017-06-05T15:08:31Z</time>
      </trkpt>
      <trkpt lat="47.264" lon="-1.05107">
        <ele>42</ele>
        <time>2017-06-05T15:08:32Z</time>
      </trkpt>
      <trkpt lat="47.26401" lon="-1.05084">
        <ele>41</ele>
        <time>2017-06-05T15:08:35Z</time>
      </trkpt>
      <trkpt lat="47.26401" lon="-1.05067">
        <ele>41</ele>
        <time>2017-06-05T15:08:37Z</time>
      </trkpt>
      <trkpt lat="47.26404" lon="-1.05041">
        <ele>41</ele>
        <time>2017-06-05T15:08:40Z</time>
      </trkpt>
      <trkpt lat="47.26409" lon="-1.05005">
        <ele>40</ele>
        <time>2017-06-05T15:08:44Z</time>
      </trkpt>
      <trkpt lat="47.26414" lon="-1.04968">
        <ele>39</ele>
        <time>2017-06-05T15:08:48Z</time>
      </trkpt>
      <trkpt lat="47.26415" lon="-1.04933">
        <ele>39</ele>
        <time>2017-06-05T15:08:52Z</time>
      </trkpt>
      <trkpt lat="47.26415" lon="-1.04918">
        <ele>39</ele>
        <time>2017-06-05T15:08:54Z</time>
      </trkpt>
      <trkpt lat="47.26416" lon="-1.04899">
        <ele>38</ele>
        <time>2017-06-05T15:08:57Z</time>
      </trkpt>
      <trkpt lat="47.26416" lon="-1.04879">
        <ele>38</ele>
        <time>2017-06-05T15:09:00Z</time>
      </trkpt>
      <trkpt lat="47.26421" lon="-1.04834">
        <ele>37</ele>
        <time>2017-06-05T15:09:06Z</time>
      </trkpt>
      <trkpt lat="47.26422" lon="-1.04822">
        <ele>37</ele>
        <time>2017-06-05T15:09:08Z</time>
      </trkpt>
      <trkpt lat="47.26422" lon="-1.04815">
        <ele>37</ele>
        <time>2017-06-05T15:09:09Z</time>
      </trkpt>
      <trkpt lat="47.26419" lon="-1.048">
        <ele>36</ele>
        <time>2017-06-05T15:09:11Z</time>
      </trkpt>
      <trkpt lat="47.26412" lon="-1.0477">
        <ele>35</ele>
        <time>2017-06-05T15:09:15Z</time>
      </trkpt>
      <trkpt lat="47.2641" lon="-1.04753">
        <ele>33</ele>
        <time>2017-06-05T15:09:17Z</time>
      </trkpt>
      <trkpt lat="47.26409" lon="-1.04735">
        <ele>32</ele>
        <time>2017-06-05T15:09:19Z</time>
      </trkpt>
      <trkpt lat="47.26407" lon="-1.04712">
        <ele>31</ele>
        <time>2017-06-05T15:09:22Z</time>
      </trkpt>
      <trkpt lat="47.26404" lon="-1.04696">
        <ele>30</ele>
        <time>2017-06-05T15:09:24Z</time>
      </trkpt>
      <trkpt lat="47.26402" lon="-1.04689">
        <ele>29</ele>
        <time>2017-06-05T15:09:25Z</time>
      </trkpt>
      <trkpt lat="47.26393" lon="-1.0467">
        <ele>28</ele>
        <time>2017-06-05T15:09:28Z</time>
      </trkpt>
      <trkpt lat="47.26389" lon="-1.04665">
        <ele>28</ele>
        <time>2017-06-05T15:09:29Z</time>
      </trkpt>
      <trkpt lat="47.26384" lon="-1.04657">
        <ele>28</ele>
        <time>2017-06-05T15:09:31Z</time>
      </trkpt>
      <trkpt lat="47.26379" lon="-1.0465">
        <ele>27</ele>
        <time>2017-06-05T15:09:33Z</time>
      </trkpt>
      <trkpt lat="47.26374" lon="-1.04644">
        <ele>27</ele>
        <time>2017-06-05T15:09:35Z</time>
      </trkpt>
      <trkpt lat="47.26369" lon="-1.04638">
        <ele>28</ele>
        <time>2017-06-05T15:09:37Z</time>
      </trkpt>
      <trkpt lat="47.2636" lon="-1.04626">
        <ele>28</ele>
        <time>2017-06-05T15:09:40Z</time>
      </trkpt>
      <trkpt lat="47.26353" lon="-1.04617">
        <ele>28</ele>
        <time>2017-06-05T15:09:42Z</time>
      </trkpt>
      <trkpt lat="47.26336" lon="-1.04601">
        <ele>28</ele>
        <time>2017-06-05T15:09:46Z</time>
      </trkpt>
      <trkpt lat="47.26327" lon="-1.04602">
        <ele>28</ele>
        <time>2017-06-05T15:09:49Z</time>
      </trkpt>
      <trkpt lat="47.26325" lon="-1.04602">
        <ele>28</ele>
        <time>2017-06-05T15:09:50Z</time>
      </trkpt>
      <trkpt lat="47.26322" lon="-1.04603">
        <ele>29</ele>
        <time>2017-06-05T15:09:52Z</time>
      </trkpt>
      <trkpt lat="47.26319" lon="-1.04604">
        <ele>30</ele>
        <time>2017-06-05T15:09:54Z</time>
      </trkpt>
      <trkpt lat="47.26315" lon="-1.04605">
        <ele>31</ele>
        <time>2017-06-05T15:09:57Z</time>
      </trkpt>
      <trkpt lat="47.26313" lon="-1.04605">
        <ele>31</ele>
        <time>2017-06-05T15:09:58Z</time>
      </trkpt>
      <trkpt lat="47.2631" lon="-1.04605">
        <ele>32</ele>
        <time>2017-06-05T15:10:00Z</time>
      </trkpt>
      <trkpt lat="47.26307" lon="-1.04605">
        <ele>33</ele>
        <time>2017-06-05T15:10:02Z</time>
      </trkpt>
      <trkpt lat="47.26305" lon="-1.04605">
        <ele>33</ele>
        <time>2017-06-05T15:10:04Z</time>
      </trkpt>
      <trkpt lat="47.26302" lon="-1.04605">
        <ele>34</ele>
        <time>2017-06-05T15:10:06Z</time>
      </trkpt>
      <trkpt lat="47.263" lon="-1.04606">
        <ele>35</ele>
        <time>2017-06-05T15:10:08Z</time>
      </trkpt>
      <trkpt lat="47.26296" lon="-1.04607">
        <ele>36</ele>
        <time>2017-06-05T15:10:11Z</time>
      </trkpt>
      <trkpt lat="47.2629" lon="-1.04606">
        <ele>37</ele>
        <time>2017-06-05T15:10:15Z</time>
      </trkpt>
      <trkpt lat="47.26289" lon="-1.04606">
        <ele>37</ele>
        <time>2017-06-05T15:10:16Z</time>
      </trkpt>
      <trkpt lat="47.26284" lon="-1.04607">
        <ele>38</ele>
        <time>2017-06-05T15:10:19Z</time>
      </trkpt>
      <trkpt lat="47.26278" lon="-1.04608">
        <ele>39</ele>
        <time>2017-06-05T15:10:23Z</time>
      </trkpt>
      <trkpt lat="47.26276" lon="-1.04609">
        <ele>40</ele>
        <time>2017-06-05T15:10:25Z</time>
      </trkpt>
      <trkpt lat="47.26275" lon="-1.0461">
        <ele>40</ele>
        <time>2017-06-05T15:10:26Z</time>
      </trkpt>
      <trkpt lat="47.26271" lon="-1.04612">
        <ele>41</ele>
        <time>2017-06-05T15:10:29Z</time>
      </trkpt>
      <trkpt lat="47.26264" lon="-1.04614">
        <ele>42</ele>
        <time>2017-06-05T15:10:33Z</time>
      </trkpt>
      <trkpt lat="47.26257" lon="-1.04616">
        <ele>43</ele>
        <time>2017-06-05T15:10:37Z</time>
      </trkpt>
      <trkpt lat="47.26251" lon="-1.0462">
        <ele>44</ele>
        <time>2017-06-05T15:10:41Z</time>
      </trkpt>
      <trkpt lat="47.2625" lon="-1.04621">
        <ele>45</ele>
        <time>2017-06-05T15:10:42Z</time>
      </trkpt>
      <trkpt lat="47.26245" lon="-1.04624">
        <ele>46</ele>
        <time>2017-06-05T15:10:45Z</time>
      </trkpt>
      <trkpt lat="47.26238" lon="-1.04627">
        <ele>47</ele>
        <time>2017-06-05T15:10:49Z</time>
      </trkpt>
      <trkpt lat="47.26237" lon="-1.04627">
        <ele>47</ele>
        <time>2017-06-05T15:10:50Z</time>
      </trkpt>
      <trkpt lat="47.2623" lon="-1.04628">
        <ele>48</ele>
        <time>2017-06-05T15:10:54Z</time>
      </trkpt>
      <trkpt lat="47.26227" lon="-1.04626">
        <ele>49</ele>
        <time>2017-06-05T15:10:57Z</time>
      </trkpt>
      <trkpt lat="47.26225" lon="-1.04624">
        <ele>49</ele>
        <time>2017-06-05T15:10:59Z</time>
      </trkpt>
      <trkpt lat="47.26224" lon="-1.04619">
        <ele>50</ele>
        <time>2017-06-05T15:11:02Z</time>
      </trkpt>
      <trkpt lat="47.26224" lon="-1.04615">
        <ele>51</ele>
        <time>2017-06-05T15:11:04Z</time>
      </trkpt>
      <trkpt lat="47.26224" lon="-1.04613">
        <ele>51</ele>
        <time>2017-06-05T15:11:05Z</time>
      </trkpt>
      <trkpt lat="47.26219" lon="-1.04606">
        <ele>51</ele>
        <time>2017-06-05T15:11:08Z</time>
      </trkpt>
      <trkpt lat="47.26218" lon="-1.04605">
        <ele>51</ele>
        <time>2017-06-05T15:11:09Z</time>
      </trkpt>
      <trkpt lat="47.26216" lon="-1.04603">
        <ele>52</ele>
        <time>2017-06-05T15:11:10Z</time>
      </trkpt>
      <trkpt lat="47.26213" lon="-1.04598">
        <ele>52</ele>
        <time>2017-06-05T15:11:13Z</time>
      </trkpt>
      <trkpt lat="47.2621" lon="-1.04586">
        <ele>53</ele>
        <time>2017-06-05T15:11:17Z</time>
      </trkpt>
      <trkpt lat="47.26205" lon="-1.04574">
        <ele>53</ele>
        <time>2017-06-05T15:11:22Z</time>
      </trkpt>
      <trkpt lat="47.26202" lon="-1.04569">
        <ele>53</ele>
        <time>2017-06-05T15:11:24Z</time>
      </trkpt>
      <trkpt lat="47.26199" lon="-1.04561">
        <ele>53</ele>
        <time>2017-06-05T15:11:27Z</time>
      </trkpt>
      <trkpt lat="47.26201" lon="-1.04558">
        <ele>53</ele>
        <time>2017-06-05T15:11:29Z</time>
      </trkpt>
      <trkpt lat="47.26206" lon="-1.0455">
        <ele>53</ele>
        <time>2017-06-05T15:11:38Z</time>
      </trkpt>
      <trkpt lat="47.26205" lon="-1.04542">
        <ele>53</ele>
        <time>2017-06-05T15:11:39Z</time>
      </trkpt>
      <trkpt lat="47.26195" lon="-1.04528">
        <ele>52</ele>
        <time>2017-06-05T15:11:42Z</time>
      </trkpt>
      <trkpt lat="47.26191" lon="-1.04527">
        <ele>52</ele>
        <time>2017-06-05T15:11:43Z</time>
      </trkpt>
      <trkpt lat="47.26187" lon="-1.04525">
        <ele>51</ele>
        <time>2017-06-05T15:11:44Z</time>
      </trkpt>
      <trkpt lat="47.26183" lon="-1.04525">
        <ele>51</ele>
        <time>2017-06-05T15:11:45Z</time>
      </trkpt>
      <trkpt lat="47.26177" lon="-1.04522">
        <ele>50</ele>
        <time>2017-06-05T15:11:47Z</time>
      </trkpt>
      <trkpt lat="47.26175" lon="-1.04517">
        <ele>49</ele>
        <time>2017-06-05T15:11:48Z</time>
      </trkpt>
      <trkpt lat="47.26174" lon="-1.04513">
        <ele>49</ele>
        <time>2017-06-05T15:11:49Z</time>
      </trkpt>
      <trkpt lat="47.26166" lon="-1.04499">
        <ele>47</ele>
        <time>2017-06-05T15:11:52Z</time>
      </trkpt>
      <trkpt lat="47.26162" lon="-1.04496">
        <ele>47</ele>
        <time>2017-06-05T15:11:53Z</time>
      </trkpt>
      <trkpt lat="47.26157" lon="-1.04491">
        <ele>46</ele>
        <time>2017-06-05T15:11:54Z</time>
      </trkpt>
      <trkpt lat="47.2615" lon="-1.04486">
        <ele>46</ele>
        <time>2017-06-05T15:11:55Z</time>
      </trkpt>
      <trkpt lat="47.26144" lon="-1.04482">
        <ele>45</ele>
        <time>2017-06-05T15:11:56Z</time>
      </trkpt>
      <trkpt lat="47.26139" lon="-1.04478">
        <ele>45</ele>
        <time>2017-06-05T15:11:57Z</time>
      </trkpt>
      <trkpt lat="47.26128" lon="-1.04471">
        <ele>44</ele>
        <time>2017-06-05T15:11:59Z</time>
      </trkpt>
      <trkpt lat="47.26123" lon="-1.04467">
        <ele>43</ele>
        <time>2017-06-05T15:12:00Z</time>
      </trkpt>
      <trkpt lat="47.26118" lon="-1.04463">
        <ele>42</ele>
        <time>2017-06-05T15:12:01Z</time>
      </trkpt>
      <trkpt lat="47.26112" lon="-1.04459">
        <ele>42</ele>
        <time>2017-06-05T15:12:02Z</time>
      </trkpt>
      <trkpt lat="47.26107" lon="-1.04453">
        <ele>41</ele>
        <time>2017-06-05T15:12:03Z</time>
      </trkpt>
      <trkpt lat="47.26102" lon="-1.04448">
        <ele>40</ele>
        <time>2017-06-05T15:12:04Z</time>
      </trkpt>
      <trkpt lat="47.26097" lon="-1.04442">
        <ele>39</ele>
        <time>2017-06-05T15:12:05Z</time>
      </trkpt>
      <trkpt lat="47.26093" lon="-1.04436">
        <ele>39</ele>
        <time>2017-06-05T15:12:06Z</time>
      </trkpt>
      <trkpt lat="47.26089" lon="-1.04429">
        <ele>38</ele>
        <time>2017-06-05T15:12:07Z</time>
      </trkpt>
      <trkpt lat="47.26085" lon="-1.04422">
        <ele>37</ele>
        <time>2017-06-05T15:12:08Z</time>
      </trkpt>
      <trkpt lat="47.2608" lon="-1.04406">
        <ele>36</ele>
        <time>2017-06-05T15:12:10Z</time>
      </trkpt>
      <trkpt lat="47.26078" lon="-1.04387">
        <ele>35</ele>
        <time>2017-06-05T15:12:12Z</time>
      </trkpt>
      <trkpt lat="47.26076" lon="-1.04379">
        <ele>34</ele>
        <time>2017-06-05T15:12:13Z</time>
      </trkpt>
      <trkpt lat="47.26076" lon="-1.0437">
        <ele>34</ele>
        <time>2017-06-05T15:12:14Z</time>
      </trkpt>
      <trkpt lat="47.26075" lon="-1.04349">
        <ele>32</ele>
        <time>2017-06-05T15:12:17Z</time>
      </trkpt>
      <trkpt lat="47.26075" lon="-1.04342">
        <ele>32</ele>
        <time>2017-06-05T15:12:18Z</time>
      </trkpt>
      <trkpt lat="47.26074" lon="-1.04311">
        <ele>32</ele>
        <time>2017-06-05T15:12:23Z</time>
      </trkpt>
      <trkpt lat="47.26071" lon="-1.043">
        <ele>32</ele>
        <time>2017-06-05T15:12:25Z</time>
      </trkpt>
      <trkpt lat="47.26066" lon="-1.04282">
        <ele>32</ele>
        <time>2017-06-05T15:12:28Z</time>
      </trkpt>
      <trkpt lat="47.26063" lon="-1.04271">
        <ele>32</ele>
        <time>2017-06-05T15:12:30Z</time>
      </trkpt>
      <trkpt lat="47.26061" lon="-1.0426">
        <ele>32</ele>
        <time>2017-06-05T15:12:32Z</time>
      </trkpt>
      <trkpt lat="47.2606" lon="-1.04254">
        <ele>32</ele>
        <time>2017-06-05T15:12:33Z</time>
      </trkpt>
      <trkpt lat="47.26061" lon="-1.04223">
        <ele>33</ele>
        <time>2017-06-05T15:12:38Z</time>
      </trkpt>
      <trkpt lat="47.26062" lon="-1.0421">
        <ele>33</ele>
        <time>2017-06-05T15:12:40Z</time>
      </trkpt>
      <trkpt lat="47.26062" lon="-1.04195">
        <ele>33</ele>
        <time>2017-06-05T15:12:42Z</time>
      </trkpt>
      <trkpt lat="47.26061" lon="-1.04159">
        <ele>33</ele>
        <time>2017-06-05T15:12:48Z</time>
      </trkpt>
      <trkpt lat="47.26058" lon="-1.04132">
        <ele>33</ele>
        <time>2017-06-05T15:12:53Z</time>
      </trkpt>
      <trkpt lat="47.26053" lon="-1.0412">
        <ele>33</ele>
        <time>2017-06-05T15:12:56Z</time>
      </trkpt>
      <trkpt lat="47.26038" lon="-1.04115">
        <ele>33</ele>
        <time>2017-06-05T15:13:00Z</time>
      </trkpt>
      <trkpt lat="47.26014" lon="-1.04113">
        <ele>35</ele>
        <time>2017-06-05T15:13:07Z</time>
      </trkpt>
      <trkpt lat="47.26005" lon="-1.04112">
        <ele>36</ele>
        <time>2017-06-05T15:13:10Z</time>
      </trkpt>
      <trkpt lat="47.25986" lon="-1.04109">
        <ele>37</ele>
        <time>2017-06-05T15:13:16Z</time>
      </trkpt>
      <trkpt lat="47.25967" lon="-1.04103">
        <ele>36</ele>
        <time>2017-06-05T15:13:21Z</time>
      </trkpt>
      <trkpt lat="47.25957" lon="-1.041">
        <ele>37</ele>
        <time>2017-06-05T15:13:24Z</time>
      </trkpt>
      <trkpt lat="47.25951" lon="-1.04098">
        <ele>37</ele>
        <time>2017-06-05T15:13:26Z</time>
      </trkpt>
      <trkpt lat="47.25934" lon="-1.04092">
        <ele>39</ele>
        <time>2017-06-05T15:13:32Z</time>
      </trkpt>
      <trkpt lat="47.25911" lon="-1.04081">
        <ele>39</ele>
        <time>2017-06-05T15:13:40Z</time>
      </trkpt>
      <trkpt lat="47.25908" lon="-1.04079">
        <ele>39</ele>
        <time>2017-06-05T15:13:41Z</time>
      </trkpt>
      <trkpt lat="47.25898" lon="-1.04072">
        <ele>40</ele>
        <time>2017-06-05T15:13:45Z</time>
      </trkpt>
      <trkpt lat="47.25892" lon="-1.04066">
        <ele>41</ele>
        <time>2017-06-05T15:13:48Z</time>
      </trkpt>
      <trkpt lat="47.25889" lon="-1.04064">
        <ele>41</ele>
        <time>2017-06-05T15:13:49Z</time>
      </trkpt>
      <trkpt lat="47.25878" lon="-1.0405">
        <ele>42</ele>
        <time>2017-06-05T15:13:56Z</time>
      </trkpt>
      <trkpt lat="47.25871" lon="-1.0404">
        <ele>44</ele>
        <time>2017-06-05T15:14:01Z</time>
      </trkpt>
      <trkpt lat="47.25867" lon="-1.04034">
        <ele>44</ele>
        <time>2017-06-05T15:14:04Z</time>
      </trkpt>
      <trkpt lat="47.25863" lon="-1.04029">
        <ele>45</ele>
        <time>2017-06-05T15:14:07Z</time>
      </trkpt>
      <trkpt lat="47.25855" lon="-1.04019">
        <ele>46</ele>
        <time>2017-06-05T15:14:12Z</time>
      </trkpt>
      <trkpt lat="47.25853" lon="-1.04015">
        <ele>47</ele>
        <time>2017-06-05T15:14:14Z</time>
      </trkpt>
      <trkpt lat="47.25853" lon="-1.04013">
        <ele>47</ele>
        <time>2017-06-05T15:14:15Z</time>
      </trkpt>
      <trkpt lat="47.25848" lon="-1.04004">
        <ele>48</ele>
        <time>2017-06-05T15:14:19Z</time>
      </trkpt>
      <trkpt lat="47.25845" lon="-1.03996">
        <ele>49</ele>
        <time>2017-06-05T15:14:22Z</time>
      </trkpt>
      <trkpt lat="47.25842" lon="-1.0399">
        <ele>49</ele>
        <time>2017-06-05T15:14:24Z</time>
      </trkpt>
      <trkpt lat="47.25835" lon="-1.03976">
        <ele>50</ele>
        <time>2017-06-05T15:14:30Z</time>
      </trkpt>
      <trkpt lat="47.25826" lon="-1.03957">
        <ele>51</ele>
        <time>2017-06-05T15:14:37Z</time>
      </trkpt>
      <trkpt lat="47.25825" lon="-1.03955">
        <ele>52</ele>
        <time>2017-06-05T15:14:38Z</time>
      </trkpt>
      <trkpt lat="47.25819" lon="-1.03942">
        <ele>53</ele>
        <time>2017-06-05T15:14:43Z</time>
      </trkpt>
      <trkpt lat="47.25814" lon="-1.03932">
        <ele>53</ele>
        <time>2017-06-05T15:14:46Z</time>
      </trkpt>
      <trkpt lat="47.2581" lon="-1.03923">
        <ele>54</ele>
        <time>2017-06-05T15:14:49Z</time>
      </trkpt>
      <trkpt lat="47.25802" lon="-1.03901">
        <ele>55</ele>
        <time>2017-06-05T15:14:56Z</time>
      </trkpt>
      <trkpt lat="47.25801" lon="-1.03898">
        <ele>55</ele>
        <time>2017-06-05T15:14:57Z</time>
      </trkpt>
      <trkpt lat="47.25794" lon="-1.03878">
        <ele>56</ele>
        <time>2017-06-05T15:15:03Z</time>
      </trkpt>
      <trkpt lat="47.25791" lon="-1.03868">
        <ele>57</ele>
        <time>2017-06-05T15:15:06Z</time>
      </trkpt>
      <trkpt lat="47.2579" lon="-1.03865">
        <ele>57</ele>
        <time>2017-06-05T15:15:07Z</time>
      </trkpt>
      <trkpt lat="47.25783" lon="-1.0385">
        <ele>58</ele>
        <time>2017-06-05T15:15:13Z</time>
      </trkpt>
      <trkpt lat="47.25783" lon="-1.03847">
        <ele>59</ele>
        <time>2017-06-05T15:15:14Z</time>
      </trkpt>
      <trkpt lat="47.25779" lon="-1.03837">
        <ele>60</ele>
        <time>2017-06-05T15:15:18Z</time>
      </trkpt>
      <trkpt lat="47.25775" lon="-1.03822">
        <ele>60</ele>
        <time>2017-06-05T15:15:23Z</time>
      </trkpt>
      <trkpt lat="47.25773" lon="-1.03817">
        <ele>61</ele>
        <time>2017-06-05T15:15:25Z</time>
      </trkpt>
      <trkpt lat="47.25768" lon="-1.03803">
        <ele>62</ele>
        <time>2017-06-05T15:15:29Z</time>
      </trkpt>
      <trkpt lat="47.25766" lon="-1.03795">
        <ele>63</ele>
        <time>2017-06-05T15:15:31Z</time>
      </trkpt>
      <trkpt lat="47.25757" lon="-1.03763">
        <ele>63</ele>
        <time>2017-06-05T15:15:38Z</time>
      </trkpt>
      <trkpt lat="47.25754" lon="-1.03748">
        <ele>63</ele>
        <time>2017-06-05T15:15:41Z</time>
      </trkpt>
      <trkpt lat="47.25751" lon="-1.03733">
        <ele>63</ele>
        <time>2017-06-05T15:15:44Z</time>
      </trkpt>
      <trkpt lat="47.25749" lon="-1.03718">
        <ele>63</ele>
        <time>2017-06-05T15:15:47Z</time>
      </trkpt>
      <trkpt lat="47.25746" lon="-1.03688">
        <ele>63</ele>
        <time>2017-06-05T15:15:53Z</time>
      </trkpt>
      <trkpt lat="47.25743" lon="-1.03667">
        <ele>63</ele>
        <time>2017-06-05T15:15:57Z</time>
      </trkpt>
      <trkpt lat="47.25737" lon="-1.03621">
        <ele>63</ele>
        <time>2017-06-05T15:16:04Z</time>
      </trkpt>
      <trkpt lat="47.25734" lon="-1.03605">
        <ele>62</ele>
        <time>2017-06-05T15:16:06Z</time>
      </trkpt>
      <trkpt lat="47.25729" lon="-1.0358">
        <ele>61</ele>
        <time>2017-06-05T15:16:09Z</time>
      </trkpt>
      <trkpt lat="47.25727" lon="-1.03564">
        <ele>60</ele>
        <time>2017-06-05T15:16:11Z</time>
      </trkpt>
      <trkpt lat="47.25724" lon="-1.03537">
        <ele>60</ele>
        <time>2017-06-05T15:16:14Z</time>
      </trkpt>
      <trkpt lat="47.25721" lon="-1.03509">
        <ele>58</ele>
        <time>2017-06-05T15:16:17Z</time>
      </trkpt>
      <trkpt lat="47.25719" lon="-1.03491">
        <ele>57</ele>
        <time>2017-06-05T15:16:19Z</time>
      </trkpt>
      <trkpt lat="47.25715" lon="-1.03468">
        <ele>56</ele>
        <time>2017-06-05T15:16:22Z</time>
      </trkpt>
      <trkpt lat="47.25712" lon="-1.03461">
        <ele>56</ele>
        <time>2017-06-05T15:16:23Z</time>
      </trkpt>
      <trkpt lat="47.2571" lon="-1.03456">
        <ele>56</ele>
        <time>2017-06-05T15:16:24Z</time>
      </trkpt>
      <trkpt lat="47.25704" lon="-1.03447">
        <ele>56</ele>
        <time>2017-06-05T15:16:26Z</time>
      </trkpt>
      <trkpt lat="47.25701" lon="-1.03443">
        <ele>56</ele>
        <time>2017-06-05T15:16:27Z</time>
      </trkpt>
      <trkpt lat="47.25697" lon="-1.03436">
        <ele>56</ele>
        <time>2017-06-05T15:16:29Z</time>
      </trkpt>
      <trkpt lat="47.25693" lon="-1.03427">
        <ele>56</ele>
        <time>2017-06-05T15:16:32Z</time>
      </trkpt>
      <trkpt lat="47.2569" lon="-1.03419">
        <ele>56</ele>
        <time>2017-06-05T15:16:35Z</time>
      </trkpt>
      <trkpt lat="47.25686" lon="-1.0341">
        <ele>57</ele>
        <time>2017-06-05T15:16:38Z</time>
      </trkpt>
      <trkpt lat="47.2568" lon="-1.03396">
        <ele>58</ele>
        <time>2017-06-05T15:16:42Z</time>
      </trkpt>
      <trkpt lat="47.25678" lon="-1.03392">
        <ele>59</ele>
        <time>2017-06-05T15:16:43Z</time>
      </trkpt>
      <trkpt lat="47.25674" lon="-1.03381">
        <ele>60</ele>
        <time>2017-06-05T15:16:46Z</time>
      </trkpt>
      <trkpt lat="47.25669" lon="-1.03371">
        <ele>61</ele>
        <time>2017-06-05T15:16:49Z</time>
      </trkpt>
      <trkpt lat="47.25666" lon="-1.03366">
        <ele>61</ele>
        <time>2017-06-05T15:16:51Z</time>
      </trkpt>
      <trkpt lat="47.25663" lon="-1.03361">
        <ele>62</ele>
        <time>2017-06-05T15:16:53Z</time>
      </trkpt>
      <trkpt lat="47.25657" lon="-1.03351">
        <ele>63</ele>
        <time>2017-06-05T15:16:57Z</time>
      </trkpt>
      <trkpt lat="47.25653" lon="-1.03344">
        <ele>63</ele>
        <time>2017-06-05T15:16:59Z</time>
      </trkpt>
      <trkpt lat="47.25645" lon="-1.03331">
        <ele>64</ele>
        <time>2017-06-05T15:17:03Z</time>
      </trkpt>
      <trkpt lat="47.25638" lon="-1.03318">
        <ele>65</ele>
        <time>2017-06-05T15:17:07Z</time>
      </trkpt>
      <trkpt lat="47.25634" lon="-1.03311">
        <ele>65</ele>
        <time>2017-06-05T15:17:10Z</time>
      </trkpt>
      <trkpt lat="47.25628" lon="-1.03302">
        <ele>66</ele>
        <time>2017-06-05T15:17:13Z</time>
      </trkpt>
      <trkpt lat="47.25619" lon="-1.03291">
        <ele>66</ele>
        <time>2017-06-05T15:17:16Z</time>
      </trkpt>
      <trkpt lat="47.25611" lon="-1.03279">
        <ele>67</ele>
        <time>2017-06-05T15:17:19Z</time>
      </trkpt>
      <trkpt lat="47.25593" lon="-1.03249">
        <ele>67</ele>
        <time>2017-06-05T15:17:26Z</time>
      </trkpt>
      <trkpt lat="47.25587" lon="-1.03238">
        <ele>68</ele>
        <time>2017-06-05T15:17:29Z</time>
      </trkpt>
      <trkpt lat="47.25583" lon="-1.0323">
        <ele>68</ele>
        <time>2017-06-05T15:17:31Z</time>
      </trkpt>
      <trkpt lat="47.25573" lon="-1.0321">
        <ele>70</ele>
        <time>2017-06-05T15:17:37Z</time>
      </trkpt>
      <trkpt lat="47.2556" lon="-1.03181">
        <ele>71</ele>
        <time>2017-06-05T15:17:46Z</time>
      </trkpt>
      <trkpt lat="47.25558" lon="-1.03178">
        <ele>71</ele>
        <time>2017-06-05T15:17:47Z</time>
      </trkpt>
      <trkpt lat="47.25551" lon="-1.03156">
        <ele>72</ele>
        <time>2017-06-05T15:17:53Z</time>
      </trkpt>
      <trkpt lat="47.25549" lon="-1.03149">
        <ele>72</ele>
        <time>2017-06-05T15:17:55Z</time>
      </trkpt>
      <trkpt lat="47.2554" lon="-1.03138">
        <ele>73</ele>
        <time>2017-06-05T15:17:59Z</time>
      </trkpt>
      <trkpt lat="47.25537" lon="-1.03138">
        <ele>73</ele>
        <time>2017-06-05T15:18:00Z</time>
      </trkpt>
      <trkpt lat="47.25533" lon="-1.03139">
        <ele>73</ele>
        <time>2017-06-05T15:18:01Z</time>
      </trkpt>
      <trkpt lat="47.25526" lon="-1.03141">
        <ele>74</ele>
        <time>2017-06-05T15:18:03Z</time>
      </trkpt>
      <trkpt lat="47.25519" lon="-1.03144">
        <ele>74</ele>
        <time>2017-06-05T15:18:05Z</time>
      </trkpt>
      <trkpt lat="47.25498" lon="-1.03151">
        <ele>74</ele>
        <time>2017-06-05T15:18:11Z</time>
      </trkpt>
      <trkpt lat="47.2548" lon="-1.03157">
        <ele>75</ele>
        <time>2017-06-05T15:18:16Z</time>
      </trkpt>
      <trkpt lat="47.25473" lon="-1.03161">
        <ele>75</ele>
        <time>2017-06-05T15:18:18Z</time>
      </trkpt>
      <trkpt lat="47.25452" lon="-1.03175">
        <ele>76</ele>
        <time>2017-06-05T15:18:25Z</time>
      </trkpt>
      <trkpt lat="47.25449" lon="-1.03177">
        <ele>76</ele>
        <time>2017-06-05T15:18:26Z</time>
      </trkpt>
      <trkpt lat="47.25435" lon="-1.03187">
        <ele>77</ele>
        <time>2017-06-05T15:18:31Z</time>
      </trkpt>
      <trkpt lat="47.25422" lon="-1.03197">
        <ele>78</ele>
        <time>2017-06-05T15:18:36Z</time>
      </trkpt>
      <trkpt lat="47.2542" lon="-1.03199">
        <ele>78</ele>
        <time>2017-06-05T15:18:37Z</time>
      </trkpt>
      <trkpt lat="47.25396" lon="-1.03215">
        <ele>79</ele>
        <time>2017-06-05T15:18:46Z</time>
      </trkpt>
      <trkpt lat="47.25394" lon="-1.03217">
        <ele>79</ele>
        <time>2017-06-05T15:18:47Z</time>
      </trkpt>
      <trkpt lat="47.25384" lon="-1.03224">
        <ele>81</ele>
        <time>2017-06-05T15:18:51Z</time>
      </trkpt>
      <trkpt lat="47.25374" lon="-1.03231">
        <ele>82</ele>
        <time>2017-06-05T15:18:55Z</time>
      </trkpt>
      <trkpt lat="47.25369" lon="-1.03234">
        <ele>82</ele>
        <time>2017-06-05T15:18:57Z</time>
      </trkpt>
      <trkpt lat="47.25358" lon="-1.03241">
        <ele>83</ele>
        <time>2017-06-05T15:19:02Z</time>
      </trkpt>
      <trkpt lat="47.25349" lon="-1.03245">
        <ele>83</ele>
        <time>2017-06-05T15:19:06Z</time>
      </trkpt>
      <trkpt lat="47.25337" lon="-1.03249">
        <ele>84</ele>
        <time>2017-06-05T15:19:11Z</time>
      </trkpt>
      <trkpt lat="47.25324" lon="-1.03254">
        <ele>85</ele>
        <time>2017-06-05T15:19:16Z</time>
      </trkpt>
      <trkpt lat="47.25319" lon="-1.03256">
        <ele>85</ele>
        <time>2017-06-05T15:19:18Z</time>
      </trkpt>
      <trkpt lat="47.2531" lon="-1.03258">
        <ele>86</ele>
        <time>2017-06-05T15:19:21Z</time>
      </trkpt>
      <trkpt lat="47.25291" lon="-1.03263">
        <ele>87</ele>
        <time>2017-06-05T15:19:28Z</time>
      </trkpt>
      <trkpt lat="47.25278" lon="-1.03266">
        <ele>88</ele>
        <time>2017-06-05T15:19:33Z</time>
      </trkpt>
      <trkpt lat="47.25273" lon="-1.03266">
        <ele>89</ele>
        <time>2017-06-05T15:19:35Z</time>
      </trkpt>
      <trkpt lat="47.25266" lon="-1.03267">
        <ele>90</ele>
        <time>2017-06-05T15:19:38Z</time>
      </trkpt>
      <trkpt lat="47.25263" lon="-1.03267">
        <ele>90</ele>
        <time>2017-06-05T15:19:39Z</time>
      </trkpt>
      <trkpt lat="47.25244" lon="-1.03272">
        <ele>90</ele>
        <time>2017-06-05T15:19:46Z</time>
      </trkpt>
      <trkpt lat="47.25231" lon="-1.03289">
        <ele>92</ele>
        <time>2017-06-05T15:19:52Z</time>
      </trkpt>
      <trkpt lat="47.25228" lon="-1.03292">
        <ele>92</ele>
        <time>2017-06-05T15:19:53Z</time>
      </trkpt>
      <trkpt lat="47.25211" lon="-1.03307">
        <ele>93</ele>
        <time>2017-06-05T15:19:59Z</time>
      </trkpt>
      <trkpt lat="47.25208" lon="-1.03309">
        <ele>93</ele>
        <time>2017-06-05T15:20:00Z</time>
      </trkpt>
      <trkpt lat="47.25185" lon="-1.03328">
        <ele>93</ele>
        <time>2017-06-05T15:20:07Z</time>
      </trkpt>
      <trkpt lat="47.25176" lon="-1.03344">
        <ele>92</ele>
        <time>2017-06-05T15:20:10Z</time>
      </trkpt>
      <trkpt lat="47.25173" lon="-1.0335">
        <ele>92</ele>
        <time>2017-06-05T15:20:11Z</time>
      </trkpt>
      <trkpt lat="47.25171" lon="-1.03356">
        <ele>92</ele>
        <time>2017-06-05T15:20:12Z</time>
      </trkpt>
      <trkpt lat="47.25163" lon="-1.03379">
        <ele>92</ele>
        <time>2017-06-05T15:20:16Z</time>
      </trkpt>
      <trkpt lat="47.25153" lon="-1.0341">
        <ele>91</ele>
        <time>2017-06-05T15:20:21Z</time>
      </trkpt>
      <trkpt lat="47.25148" lon="-1.03426">
        <ele>91</ele>
        <time>2017-06-05T15:20:24Z</time>
      </trkpt>
      <trkpt lat="47.25144" lon="-1.03442">
        <ele>91</ele>
        <time>2017-06-05T15:20:27Z</time>
      </trkpt>
      <trkpt lat="47.25139" lon="-1.03458">
        <ele>91</ele>
        <time>2017-06-05T15:20:30Z</time>
      </trkpt>
      <trkpt lat="47.25134" lon="-1.03471">
        <ele>91</ele>
        <time>2017-06-05T15:20:33Z</time>
      </trkpt>
      <trkpt lat="47.25131" lon="-1.03479">
        <ele>91</ele>
        <time>2017-06-05T15:20:35Z</time>
      </trkpt>
      <trkpt lat="47.2513" lon="-1.03486">
        <ele>91</ele>
        <time>2017-06-05T15:20:37Z</time>
      </trkpt>
      <trkpt lat="47.25129" lon="-1.03488">
        <ele>91</ele>
        <time>2017-06-05T15:20:38Z</time>
      </trkpt>
      <trkpt lat="47.25127" lon="-1.03488">
        <ele>89</ele>
        <time>2017-06-05T15:20:40Z</time>
      </trkpt>
      <trkpt lat="47.25127" lon="-1.03485">
        <ele>89</ele>
        <time>2017-06-05T15:20:41Z</time>
      </trkpt>
      <trkpt lat="47.25128" lon="-1.03482">
        <ele>88</ele>
        <time>2017-06-05T15:20:43Z</time>
      </trkpt>
      <trkpt lat="47.25129" lon="-1.0348">
        <ele>88</ele>
        <time>2017-06-05T15:20:44Z</time>
      </trkpt>
      <trkpt lat="47.25131" lon="-1.03473">
        <ele>88</ele>
        <time>2017-06-05T15:20:46Z</time>
      </trkpt>
      <trkpt lat="47.25139" lon="-1.03445">
        <ele>89</ele>
        <time>2017-06-05T15:20:52Z</time>
      </trkpt>
      <trkpt lat="47.25154" lon="-1.034">
        <ele>89</ele>
        <time>2017-06-05T15:21:01Z</time>
      </trkpt>
      <trkpt lat="47.25166" lon="-1.0336">
        <ele>90</ele>
        <time>2017-06-05T15:21:09Z</time>
      </trkpt>
      <trkpt lat="47.25165" lon="-1.03358">
        <ele>90</ele>
        <time>2017-06-05T15:21:10Z</time>
      </trkpt>
      <trkpt lat="47.25162" lon="-1.03357">
        <ele>90</ele>
        <time>2017-06-05T15:21:12Z</time>
      </trkpt>
      <trkpt lat="47.25157" lon="-1.03356">
        <ele>90</ele>
        <time>2017-06-05T15:21:14Z</time>
      </trkpt>
      <trkpt lat="47.25149" lon="-1.03354">
        <ele>90</ele>
        <time>2017-06-05T15:21:17Z</time>
      </trkpt>
      <trkpt lat="47.25146" lon="-1.03353">
        <ele>90</ele>
        <time>2017-06-05T15:21:18Z</time>
      </trkpt>
      <trkpt lat="47.25134" lon="-1.03348">
        <ele>88</ele>
        <time>2017-06-05T15:21:21Z</time>
      </trkpt>
      <trkpt lat="47.25125" lon="-1.03345">
        <ele>88</ele>
        <time>2017-06-05T15:21:23Z</time>
      </trkpt>
      <trkpt lat="47.25096" lon="-1.03332">
        <ele>88</ele>
        <time>2017-06-05T15:21:31Z</time>
      </trkpt>
      <trkpt lat="47.25085" lon="-1.03326">
        <ele>89</ele>
        <time>2017-06-05T15:21:35Z</time>
      </trkpt>
      <trkpt lat="47.25082" lon="-1.03325">
        <ele>88</ele>
        <time>2017-06-05T15:21:37Z</time>
      </trkpt>
      <trkpt lat="47.25084" lon="-1.03322">
        <ele>87</ele>
        <time>2017-06-05T15:21:53Z</time>
      </trkpt>
      <trkpt lat="47.25086" lon="-1.03324">
        <ele>87</ele>
        <time>2017-06-05T15:21:54Z</time>
      </trkpt>
      <trkpt lat="47.25094" lon="-1.03329">
        <ele>87</ele>
        <time>2017-06-05T15:21:57Z</time>
      </trkpt>
      <trkpt lat="47.251" lon="-1.03333">
        <ele>88</ele>
        <time>2017-06-05T15:21:59Z</time>
      </trkpt>
      <trkpt lat="47.25115" lon="-1.03341">
        <ele>88</ele>
        <time>2017-06-05T15:22:03Z</time>
      </trkpt>
      <trkpt lat="47.25128" lon="-1.03346">
        <ele>88</ele>
        <time>2017-06-05T15:22:06Z</time>
      </trkpt>
      <trkpt lat="47.2514" lon="-1.03353">
        <ele>88</ele>
        <time>2017-06-05T15:22:09Z</time>
      </trkpt>
      <trkpt lat="47.25154" lon="-1.03358">
        <ele>88</ele>
        <time>2017-06-05T15:22:13Z</time>
      </trkpt>
      <trkpt lat="47.25162" lon="-1.03359">
        <ele>89</ele>
        <time>2017-06-05T15:22:16Z</time>
      </trkpt>
      <trkpt lat="47.2517" lon="-1.03353">
        <ele>90</ele>
        <time>2017-06-05T15:22:19Z</time>
      </trkpt>
      <trkpt lat="47.25172" lon="-1.0335">
        <ele>90</ele>
        <time>2017-06-05T15:22:20Z</time>
      </trkpt>
      <trkpt lat="47.25174" lon="-1.03344">
        <ele>90</ele>
        <time>2017-06-05T15:22:21Z</time>
      </trkpt>
      <trkpt lat="47.25181" lon="-1.0333">
        <ele>91</ele>
        <time>2017-06-05T15:22:24Z</time>
      </trkpt>
      <trkpt lat="47.25192" lon="-1.03315">
        <ele>91</ele>
        <time>2017-06-05T15:22:28Z</time>
      </trkpt>
      <trkpt lat="47.25194" lon="-1.03311">
        <ele>91</ele>
        <time>2017-06-05T15:22:29Z</time>
      </trkpt>
      <trkpt lat="47.25192" lon="-1.03307">
        <ele>91</ele>
        <time>2017-06-05T15:22:30Z</time>
      </trkpt>
      <trkpt lat="47.25189" lon="-1.03301">
        <ele>92</ele>
        <time>2017-06-05T15:22:32Z</time>
      </trkpt>
      <trkpt lat="47.25185" lon="-1.03281">
        <ele>92</ele>
        <time>2017-06-05T15:22:36Z</time>
      </trkpt>
      <trkpt lat="47.2519" lon="-1.03262">
        <ele>92</ele>
        <time>2017-06-05T15:22:40Z</time>
      </trkpt>
      <trkpt lat="47.25191" lon="-1.03257">
        <ele>92</ele>
        <time>2017-06-05T15:22:41Z</time>
      </trkpt>
      <trkpt lat="47.25192" lon="-1.03252">
        <ele>92</ele>
        <time>2017-06-05T15:22:42Z</time>
      </trkpt>
      <trkpt lat="47.25193" lon="-1.03236">
        <ele>93</ele>
        <time>2017-06-05T15:22:45Z</time>
      </trkpt>
      <trkpt lat="47.25192" lon="-1.03231">
        <ele>93</ele>
        <time>2017-06-05T15:22:46Z</time>
      </trkpt>
      <trkpt lat="47.25189" lon="-1.03212">
        <ele>93</ele>
        <time>2017-06-05T15:22:49Z</time>
      </trkpt>
      <trkpt lat="47.2519" lon="-1.03199">
        <ele>93</ele>
        <time>2017-06-05T15:22:51Z</time>
      </trkpt>
      <trkpt lat="47.25194" lon="-1.03151">
        <ele>93</ele>
        <time>2017-06-05T15:22:59Z</time>
      </trkpt>
      <trkpt lat="47.25195" lon="-1.03145">
        <ele>93</ele>
        <time>2017-06-05T15:23:00Z</time>
      </trkpt>
      <trkpt lat="47.25202" lon="-1.03096">
        <ele>94</ele>
        <time>2017-06-05T15:23:08Z</time>
      </trkpt>
      <trkpt lat="47.25217" lon="-1.03059">
        <ele>94</ele>
        <time>2017-06-05T15:23:15Z</time>
      </trkpt>
      <trkpt lat="47.25226" lon="-1.0302">
        <ele>94</ele>
        <time>2017-06-05T15:23:22Z</time>
      </trkpt>
      <trkpt lat="47.25228" lon="-1.03008">
        <ele>95</ele>
        <time>2017-06-05T15:23:24Z</time>
      </trkpt>
      <trkpt lat="47.25232" lon="-1.02962">
        <ele>95</ele>
        <time>2017-06-05T15:23:32Z</time>
      </trkpt>
      <trkpt lat="47.25232" lon="-1.02957">
        <ele>96</ele>
        <time>2017-06-05T15:23:33Z</time>
      </trkpt>
      <trkpt lat="47.25229" lon="-1.02921">
        <ele>97</ele>
        <time>2017-06-05T15:23:40Z</time>
      </trkpt>
      <trkpt lat="47.25226" lon="-1.0287">
        <ele>97</ele>
        <time>2017-06-05T15:23:50Z</time>
      </trkpt>
      <trkpt lat="47.25233" lon="-1.02836">
        <ele>98</ele>
        <time>2017-06-05T15:23:56Z</time>
      </trkpt>
      <trkpt lat="47.25236" lon="-1.02819">
        <ele>98</ele>
        <time>2017-06-05T15:23:59Z</time>
      </trkpt>
      <trkpt lat="47.25239" lon="-1.02782">
        <ele>98</ele>
        <time>2017-06-05T15:24:05Z</time>
      </trkpt>
      <trkpt lat="47.25245" lon="-1.02739">
        <ele>98</ele>
        <time>2017-06-05T15:24:12Z</time>
      </trkpt>
      <trkpt lat="47.25248" lon="-1.02727">
        <ele>98</ele>
        <time>2017-06-05T15:24:14Z</time>
      </trkpt>
      <trkpt lat="47.25258" lon="-1.02692">
        <ele>99</ele>
        <time>2017-06-05T15:24:20Z</time>
      </trkpt>
      <trkpt lat="47.25261" lon="-1.02686">
        <ele>99</ele>
        <time>2017-06-05T15:24:21Z</time>
      </trkpt>
      <trkpt lat="47.25278" lon="-1.02652">
        <ele>99</ele>
        <time>2017-06-05T15:24:27Z</time>
      </trkpt>
      <trkpt lat="47.25285" lon="-1.02642">
        <ele>98</ele>
        <time>2017-06-05T15:24:29Z</time>
      </trkpt>
      <trkpt lat="47.25293" lon="-1.02628">
        <ele>98</ele>
        <time>2017-06-05T15:24:32Z</time>
      </trkpt>
      <trkpt lat="47.25301" lon="-1.02614">
        <ele>98</ele>
        <time>2017-06-05T15:24:35Z</time>
      </trkpt>
      <trkpt lat="47.25301" lon="-1.02609">
        <ele>98</ele>
        <time>2017-06-05T15:24:36Z</time>
      </trkpt>
      <trkpt lat="47.25294" lon="-1.02592">
        <ele>98</ele>
        <time>2017-06-05T15:24:39Z</time>
      </trkpt>
      <trkpt lat="47.25272" lon="-1.02545">
        <ele>98</ele>
        <time>2017-06-05T15:24:46Z</time>
      </trkpt>
      <trkpt lat="47.25265" lon="-1.02523">
        <ele>97</ele>
        <time>2017-06-05T15:24:49Z</time>
      </trkpt>
      <trkpt lat="47.25258" lon="-1.02503">
        <ele>97</ele>
        <time>2017-06-05T15:24:52Z</time>
      </trkpt>
      <trkpt lat="47.25255" lon="-1.02497">
        <ele>97</ele>
        <time>2017-06-05T15:24:53Z</time>
      </trkpt>
      <trkpt lat="47.25245" lon="-1.02482">
        <ele>97</ele>
        <time>2017-06-05T15:24:56Z</time>
      </trkpt>
      <trkpt lat="47.25236" lon="-1.02474">
        <ele>96</ele>
        <time>2017-06-05T15:24:58Z</time>
      </trkpt>
      <trkpt lat="47.25218" lon="-1.02459">
        <ele>95</ele>
        <time>2017-06-05T15:25:02Z</time>
      </trkpt>
      <trkpt lat="47.25203" lon="-1.02447">
        <ele>94</ele>
        <time>2017-06-05T15:25:05Z</time>
      </trkpt>
      <trkpt lat="47.25198" lon="-1.02443">
        <ele>93</ele>
        <time>2017-06-05T15:25:06Z</time>
      </trkpt>
      <trkpt lat="47.25184" lon="-1.0243">
        <ele>93</ele>
        <time>2017-06-05T15:25:09Z</time>
      </trkpt>
      <trkpt lat="47.25166" lon="-1.02415">
        <ele>91</ele>
        <time>2017-06-05T15:25:13Z</time>
      </trkpt>
      <trkpt lat="47.25162" lon="-1.02411">
        <ele>91</ele>
        <time>2017-06-05T15:25:14Z</time>
      </trkpt>
      <trkpt lat="47.25153" lon="-1.02404">
        <ele>90</ele>
        <time>2017-06-05T15:25:16Z</time>
      </trkpt>
      <trkpt lat="47.25144" lon="-1.02396">
        <ele>89</ele>
        <time>2017-06-05T15:25:18Z</time>
      </trkpt>
      <trkpt lat="47.2513" lon="-1.02384">
        <ele>88</ele>
        <time>2017-06-05T15:25:21Z</time>
      </trkpt>
      <trkpt lat="47.25125" lon="-1.0238">
        <ele>88</ele>
        <time>2017-06-05T15:25:22Z</time>
      </trkpt>
      <trkpt lat="47.25111" lon="-1.02366">
        <ele>87</ele>
        <time>2017-06-05T15:25:25Z</time>
      </trkpt>
      <trkpt lat="47.25107" lon="-1.02361">
        <ele>87</ele>
        <time>2017-06-05T15:25:26Z</time>
      </trkpt>
      <trkpt lat="47.25101" lon="-1.02349">
        <ele>86</ele>
        <time>2017-06-05T15:25:28Z</time>
      </trkpt>
      <trkpt lat="47.25098" lon="-1.02344">
        <ele>86</ele>
        <time>2017-06-05T15:25:29Z</time>
      </trkpt>
      <trkpt lat="47.25089" lon="-1.0233">
        <ele>85</ele>
        <time>2017-06-05T15:25:32Z</time>
      </trkpt>
      <trkpt lat="47.25085" lon="-1.02324">
        <ele>84</ele>
        <time>2017-06-05T15:25:33Z</time>
      </trkpt>
      <trkpt lat="47.25076" lon="-1.02313">
        <ele>84</ele>
        <time>2017-06-05T15:25:35Z</time>
      </trkpt>
      <trkpt lat="47.25057" lon="-1.02288">
        <ele>84</ele>
        <time>2017-06-05T15:25:40Z</time>
      </trkpt>
      <trkpt lat="47.25043" lon="-1.0227">
        <ele>84</ele>
        <time>2017-06-05T15:25:44Z</time>
      </trkpt>
      <trkpt lat="47.25036" lon="-1.02263">
        <ele>84</ele>
        <time>2017-06-05T15:25:46Z</time>
      </trkpt>
      <trkpt lat="47.25031" lon="-1.02261">
        <ele>84</ele>
        <time>2017-06-05T15:25:47Z</time>
      </trkpt>
      <trkpt lat="47.25019" lon="-1.02255">
        <ele>85</ele>
        <time>2017-06-05T15:25:50Z</time>
      </trkpt>
      <trkpt lat="47.25008" lon="-1.0225">
        <ele>86</ele>
        <time>2017-06-05T15:25:53Z</time>
      </trkpt>
      <trkpt lat="47.24997" lon="-1.02245">
        <ele>86</ele>
        <time>2017-06-05T15:25:56Z</time>
      </trkpt>
      <trkpt lat="47.2499" lon="-1.02242">
        <ele>87</ele>
        <time>2017-06-05T15:25:58Z</time>
      </trkpt>
      <trkpt lat="47.2498" lon="-1.02237">
        <ele>87</ele>
        <time>2017-06-05T15:26:01Z</time>
      </trkpt>
      <trkpt lat="47.24977" lon="-1.02235">
        <ele>88</ele>
        <time>2017-06-05T15:26:02Z</time>
      </trkpt>
      <trkpt lat="47.24961" lon="-1.02224">
        <ele>89</ele>
        <time>2017-06-05T15:26:07Z</time>
      </trkpt>
      <trkpt lat="47.24954" lon="-1.02219">
        <ele>89</ele>
        <time>2017-06-05T15:26:09Z</time>
      </trkpt>
      <trkpt lat="47.24947" lon="-1.02214">
        <ele>89</ele>
        <time>2017-06-05T15:26:11Z</time>
      </trkpt>
      <trkpt lat="47.24937" lon="-1.02207">
        <ele>90</ele>
        <time>2017-06-05T15:26:14Z</time>
      </trkpt>
      <trkpt lat="47.24921" lon="-1.02196">
        <ele>91</ele>
        <time>2017-06-05T15:26:19Z</time>
      </trkpt>
      <trkpt lat="47.24915" lon="-1.02191">
        <ele>91</ele>
        <time>2017-06-05T15:26:21Z</time>
      </trkpt>
      <trkpt lat="47.249" lon="-1.0218">
        <ele>92</ele>
        <time>2017-06-05T15:26:26Z</time>
      </trkpt>
      <trkpt lat="47.24897" lon="-1.02178">
        <ele>92</ele>
        <time>2017-06-05T15:26:27Z</time>
      </trkpt>
      <trkpt lat="47.24894" lon="-1.02176">
        <ele>92</ele>
        <time>2017-06-05T15:26:28Z</time>
      </trkpt>
      <trkpt lat="47.24881" lon="-1.02166">
        <ele>93</ele>
        <time>2017-06-05T15:26:32Z</time>
      </trkpt>
      <trkpt lat="47.24862" lon="-1.02151">
        <ele>94</ele>
        <time>2017-06-05T15:26:38Z</time>
      </trkpt>
      <trkpt lat="47.24859" lon="-1.02149">
        <ele>94</ele>
        <time>2017-06-05T15:26:39Z</time>
      </trkpt>
      <trkpt lat="47.24827" lon="-1.02123">
        <ele>95</ele>
        <time>2017-06-05T15:26:49Z</time>
      </trkpt>
      <trkpt lat="47.24824" lon="-1.02121">
        <ele>95</ele>
        <time>2017-06-05T15:26:50Z</time>
      </trkpt>
      <trkpt lat="47.24801" lon="-1.021">
        <ele>97</ele>
        <time>2017-06-05T15:26:58Z</time>
      </trkpt>
      <trkpt lat="47.24798" lon="-1.02097">
        <ele>97</ele>
        <time>2017-06-05T15:26:59Z</time>
      </trkpt>
      <trkpt lat="47.24772" lon="-1.0207">
        <ele>96</ele>
        <time>2017-06-05T15:27:08Z</time>
      </trkpt>
      <trkpt lat="47.24755" lon="-1.02053">
        <ele>98</ele>
        <time>2017-06-05T15:27:14Z</time>
      </trkpt>
      <trkpt lat="47.24742" lon="-1.02039">
        <ele>99</ele>
        <time>2017-06-05T15:27:18Z</time>
      </trkpt>
      <trkpt lat="47.24724" lon="-1.02015">
        <ele>99</ele>
        <time>2017-06-05T15:27:24Z</time>
      </trkpt>
      <trkpt lat="47.24714" lon="-1.02004">
        <ele>99</ele>
        <time>2017-06-05T15:27:27Z</time>
      </trkpt>
      <trkpt lat="47.24691" lon="-1.01976">
        <ele>100</ele>
        <time>2017-06-05T15:27:34Z</time>
      </trkpt>
      <trkpt lat="47.24667" lon="-1.01944">
        <ele>99</ele>
        <time>2017-06-05T15:27:41Z</time>
      </trkpt>
      <trkpt lat="47.2464" lon="-1.01912">
        <ele>99</ele>
        <time>2017-06-05T15:27:47Z</time>
      </trkpt>
      <trkpt lat="47.24625" lon="-1.01898">
        <ele>98</ele>
        <time>2017-06-05T15:27:50Z</time>
      </trkpt>
      <trkpt lat="47.2462" lon="-1.01893">
        <ele>98</ele>
        <time>2017-06-05T15:27:51Z</time>
      </trkpt>
      <trkpt lat="47.24609" lon="-1.01884">
        <ele>97</ele>
        <time>2017-06-05T15:27:53Z</time>
      </trkpt>
      <trkpt lat="47.24588" lon="-1.01869">
        <ele>97</ele>
        <time>2017-06-05T15:27:57Z</time>
      </trkpt>
      <trkpt lat="47.24583" lon="-1.01866">
        <ele>96</ele>
        <time>2017-06-05T15:27:58Z</time>
      </trkpt>
      <trkpt lat="47.24568" lon="-1.01859">
        <ele>96</ele>
        <time>2017-06-05T15:28:01Z</time>
      </trkpt>
      <trkpt lat="47.24532" lon="-1.01845">
        <ele>96</ele>
        <time>2017-06-05T15:28:09Z</time>
      </trkpt>
      <trkpt lat="47.2452" lon="-1.0184">
        <ele>95</ele>
        <time>2017-06-05T15:28:12Z</time>
      </trkpt>
      <trkpt lat="47.24489" lon="-1.01827">
        <ele>96</ele>
        <time>2017-06-05T15:28:19Z</time>
      </trkpt>
      <trkpt lat="47.24463" lon="-1.01816">
        <ele>96</ele>
        <time>2017-06-05T15:28:25Z</time>
      </trkpt>
      <trkpt lat="47.24446" lon="-1.01808">
        <ele>96</ele>
        <time>2017-06-05T15:28:29Z</time>
      </trkpt>
      <trkpt lat="47.24425" lon="-1.01799">
        <ele>96</ele>
        <time>2017-06-05T15:28:34Z</time>
      </trkpt>
      <trkpt lat="47.24404" lon="-1.01789">
        <ele>97</ele>
        <time>2017-06-05T15:28:39Z</time>
      </trkpt>
      <trkpt lat="47.24373" lon="-1.01776">
        <ele>97</ele>
        <time>2017-06-05T15:28:46Z</time>
      </trkpt>
      <trkpt lat="47.24365" lon="-1.01773">
        <ele>97</ele>
        <time>2017-06-05T15:28:48Z</time>
      </trkpt>
      <trkpt lat="47.24337" lon="-1.01762">
        <ele>97</ele>
        <time>2017-06-05T15:28:55Z</time>
      </trkpt>
      <trkpt lat="47.24326" lon="-1.01765">
        <ele>96</ele>
        <time>2017-06-05T15:28:58Z</time>
      </trkpt>
      <trkpt lat="47.24323" lon="-1.01769">
        <ele>96</ele>
        <time>2017-06-05T15:28:59Z</time>
      </trkpt>
      <trkpt lat="47.24309" lon="-1.01798">
        <ele>96</ele>
        <time>2017-06-05T15:29:04Z</time>
      </trkpt>
      <trkpt lat="47.24283" lon="-1.01852">
        <ele>96</ele>
        <time>2017-06-05T15:29:12Z</time>
      </trkpt>
      <trkpt lat="47.24275" lon="-1.01872">
        <ele>95</ele>
        <time>2017-06-05T15:29:15Z</time>
      </trkpt>
      <trkpt lat="47.2426" lon="-1.01913">
        <ele>95</ele>
        <time>2017-06-05T15:29:21Z</time>
      </trkpt>
      <trkpt lat="47.24258" lon="-1.01919">
        <ele>95</ele>
        <time>2017-06-05T15:29:22Z</time>
      </trkpt>
      <trkpt lat="47.24253" lon="-1.01939">
        <ele>95</ele>
        <time>2017-06-05T15:29:25Z</time>
      </trkpt>
      <trkpt lat="47.24246" lon="-1.01966">
        <ele>94</ele>
        <time>2017-06-05T15:29:29Z</time>
      </trkpt>
      <trkpt lat="47.24242" lon="-1.01981">
        <ele>94</ele>
        <time>2017-06-05T15:29:31Z</time>
      </trkpt>
      <trkpt lat="47.24235" lon="-1.02011">
        <ele>93</ele>
        <time>2017-06-05T15:29:35Z</time>
      </trkpt>
      <trkpt lat="47.24219" lon="-1.02062">
        <ele>93</ele>
        <time>2017-06-05T15:29:42Z</time>
      </trkpt>
      <trkpt lat="47.24208" lon="-1.02093">
        <ele>92</ele>
        <time>2017-06-05T15:29:46Z</time>
      </trkpt>
      <trkpt lat="47.24199" lon="-1.02117">
        <ele>91</ele>
        <time>2017-06-05T15:29:49Z</time>
      </trkpt>
      <trkpt lat="47.24196" lon="-1.02126">
        <ele>91</ele>
        <time>2017-06-05T15:29:50Z</time>
      </trkpt>
      <trkpt lat="47.24179" lon="-1.02171">
        <ele>89</ele>
        <time>2017-06-05T15:29:55Z</time>
      </trkpt>
      <trkpt lat="47.24168" lon="-1.02201">
        <ele>89</ele>
        <time>2017-06-05T15:29:58Z</time>
      </trkpt>
      <trkpt lat="47.24164" lon="-1.0221">
        <ele>88</ele>
        <time>2017-06-05T15:29:59Z</time>
      </trkpt>
      <trkpt lat="47.24153" lon="-1.02238">
        <ele>87</ele>
        <time>2017-06-05T15:30:02Z</time>
      </trkpt>
      <trkpt lat="47.24147" lon="-1.02254">
        <ele>87</ele>
        <time>2017-06-05T15:30:04Z</time>
      </trkpt>
      <trkpt lat="47.24141" lon="-1.0227">
        <ele>86</ele>
        <time>2017-06-05T15:30:06Z</time>
      </trkpt>
      <trkpt lat="47.2413" lon="-1.02298">
        <ele>85</ele>
        <time>2017-06-05T15:30:10Z</time>
      </trkpt>
      <trkpt lat="47.24127" lon="-1.02304">
        <ele>84</ele>
        <time>2017-06-05T15:30:11Z</time>
      </trkpt>
      <trkpt lat="47.24124" lon="-1.02311">
        <ele>83</ele>
        <time>2017-06-05T15:30:12Z</time>
      </trkpt>
      <trkpt lat="47.24116" lon="-1.02327">
        <ele>82</ele>
        <time>2017-06-05T15:30:15Z</time>
      </trkpt>
      <trkpt lat="47.24112" lon="-1.02338">
        <ele>82</ele>
        <time>2017-06-05T15:30:17Z</time>
      </trkpt>
      <trkpt lat="47.24101" lon="-1.0236">
        <ele>81</ele>
        <time>2017-06-05T15:30:21Z</time>
      </trkpt>
      <trkpt lat="47.24098" lon="-1.02365">
        <ele>81</ele>
        <time>2017-06-05T15:30:22Z</time>
      </trkpt>
      <trkpt lat="47.24093" lon="-1.02375">
        <ele>81</ele>
        <time>2017-06-05T15:30:24Z</time>
      </trkpt>
      <trkpt lat="47.24083" lon="-1.02398">
        <ele>80</ele>
        <time>2017-06-05T15:30:28Z</time>
      </trkpt>
      <trkpt lat="47.2407" lon="-1.02429">
        <ele>80</ele>
        <time>2017-06-05T15:30:33Z</time>
      </trkpt>
      <trkpt lat="47.24054" lon="-1.02479">
        <ele>79</ele>
        <time>2017-06-05T15:30:40Z</time>
      </trkpt>
      <trkpt lat="47.24052" lon="-1.02487">
        <ele>79</ele>
        <time>2017-06-05T15:30:41Z</time>
      </trkpt>
      <trkpt lat="47.24033" lon="-1.02555">
        <ele>78</ele>
        <time>2017-06-05T15:30:49Z</time>
      </trkpt>
      <trkpt lat="47.24031" lon="-1.02564">
        <ele>77</ele>
        <time>2017-06-05T15:30:50Z</time>
      </trkpt>
      <trkpt lat="47.24026" lon="-1.02581">
        <ele>76</ele>
        <time>2017-06-05T15:30:52Z</time>
      </trkpt>
      <trkpt lat="47.2402" lon="-1.02604">
        <ele>75</ele>
        <time>2017-06-05T15:30:55Z</time>
      </trkpt>
      <trkpt lat="47.24018" lon="-1.0261">
        <ele>75</ele>
        <time>2017-06-05T15:30:56Z</time>
      </trkpt>
      <trkpt lat="47.24012" lon="-1.0263">
        <ele>75</ele>
        <time>2017-06-05T15:31:00Z</time>
      </trkpt>
      <trkpt lat="47.24009" lon="-1.02634">
        <ele>74</ele>
        <time>2017-06-05T15:31:02Z</time>
      </trkpt>
      <trkpt lat="47.24007" lon="-1.02634">
        <ele>73</ele>
        <time>2017-06-05T15:31:04Z</time>
      </trkpt>
      <trkpt lat="47.24003" lon="-1.02633">
        <ele>72</ele>
        <time>2017-06-05T15:31:06Z</time>
      </trkpt>
      <trkpt lat="47.23997" lon="-1.02629">
        <ele>71</ele>
        <time>2017-06-05T15:31:08Z</time>
      </trkpt>
      <trkpt lat="47.23983" lon="-1.02624">
        <ele>70</ele>
        <time>2017-06-05T15:31:13Z</time>
      </trkpt>
      <trkpt lat="47.23977" lon="-1.02624">
        <ele>69</ele>
        <time>2017-06-05T15:31:15Z</time>
      </trkpt>
      <trkpt lat="47.23963" lon="-1.02624">
        <ele>69</ele>
        <time>2017-06-05T15:31:20Z</time>
      </trkpt>
      <trkpt lat="47.23958" lon="-1.02625">
        <ele>67</ele>
        <time>2017-06-05T15:31:23Z</time>
      </trkpt>
      <trkpt lat="47.23956" lon="-1.02628">
        <ele>64</ele>
        <time>2017-06-05T15:31:29Z</time>
      </trkpt>
      <trkpt lat="47.23955" lon="-1.02629">
        <ele>64</ele>
        <time>2017-06-05T15:31:30Z</time>
      </trkpt>
      <trkpt lat="47.23952" lon="-1.0263">
        <ele>63</ele>
        <time>2017-06-05T15:31:32Z</time>
      </trkpt>
      <trkpt lat="47.23947" lon="-1.02631">
        <ele>61</ele>
        <time>2017-06-05T15:31:38Z</time>
      </trkpt>
      <trkpt lat="47.23944" lon="-1.02631">
        <ele>61</ele>
        <time>2017-06-05T15:31:40Z</time>
      </trkpt>
      <trkpt lat="47.23935" lon="-1.02629">
        <ele>60</ele>
        <time>2017-06-05T15:31:44Z</time>
      </trkpt>
      <trkpt lat="47.23932" lon="-1.02629">
        <ele>60</ele>
        <time>2017-06-05T15:31:45Z</time>
      </trkpt>
      <trkpt lat="47.23923" lon="-1.02631">
        <ele>59</ele>
        <time>2017-06-05T15:31:48Z</time>
      </trkpt>
      <trkpt lat="47.23912" lon="-1.02633">
        <ele>58</ele>
        <time>2017-06-05T15:31:52Z</time>
      </trkpt>
      <trkpt lat="47.23899" lon="-1.02637">
        <ele>57</ele>
        <time>2017-06-05T15:31:57Z</time>
      </trkpt>
      <trkpt lat="47.23896" lon="-1.02638">
        <ele>57</ele>
        <time>2017-06-05T15:31:58Z</time>
      </trkpt>
      <trkpt lat="47.2388" lon="-1.02643">
        <ele>56</ele>
        <time>2017-06-05T15:32:03Z</time>
      </trkpt>
      <trkpt lat="47.23874" lon="-1.02645">
        <ele>55</ele>
        <time>2017-06-05T15:32:05Z</time>
      </trkpt>
      <trkpt lat="47.23871" lon="-1.02645">
        <ele>54</ele>
        <time>2017-06-05T15:32:06Z</time>
      </trkpt>
      <trkpt lat="47.2386" lon="-1.02651">
        <ele>53</ele>
        <time>2017-06-05T15:32:11Z</time>
      </trkpt>
      <trkpt lat="47.23857" lon="-1.02652">
        <ele>53</ele>
        <time>2017-06-05T15:32:12Z</time>
      </trkpt>
      <trkpt lat="47.23853" lon="-1.02654">
        <ele>52</ele>
        <time>2017-06-05T15:32:14Z</time>
      </trkpt>
      <trkpt lat="47.23847" lon="-1.02653">
        <ele>51</ele>
        <time>2017-06-05T15:32:17Z</time>
      </trkpt>
      <trkpt lat="47.23834" lon="-1.02651">
        <ele>50</ele>
        <time>2017-06-05T15:32:22Z</time>
      </trkpt>
      <trkpt lat="47.23829" lon="-1.02649">
        <ele>49</ele>
        <time>2017-06-05T15:32:24Z</time>
      </trkpt>
      <trkpt lat="47.23827" lon="-1.02647">
        <ele>49</ele>
        <time>2017-06-05T15:32:25Z</time>
      </trkpt>
      <trkpt lat="47.23823" lon="-1.02645">
        <ele>48</ele>
        <time>2017-06-05T15:32:27Z</time>
      </trkpt>
      <trkpt lat="47.23818" lon="-1.02643">
        <ele>48</ele>
        <time>2017-06-05T15:32:29Z</time>
      </trkpt>
      <trkpt lat="47.23816" lon="-1.02641">
        <ele>47</ele>
        <time>2017-06-05T15:32:30Z</time>
      </trkpt>
      <trkpt lat="47.23813" lon="-1.02638">
        <ele>46</ele>
        <time>2017-06-05T15:32:32Z</time>
      </trkpt>
      <trkpt lat="47.2381" lon="-1.02632">
        <ele>45</ele>
        <time>2017-06-05T15:32:35Z</time>
      </trkpt>
      <trkpt lat="47.23809" lon="-1.02633">
        <ele>45</ele>
        <time>2017-06-05T15:32:36Z</time>
      </trkpt>
      <trkpt lat="47.23808" lon="-1.02638">
        <ele>44</ele>
        <time>2017-06-05T15:32:39Z</time>
      </trkpt>
      <trkpt lat="47.23808" lon="-1.02642">
        <ele>44</ele>
        <time>2017-06-05T15:32:41Z</time>
      </trkpt>
      <trkpt lat="47.2381" lon="-1.02651">
        <ele>43</ele>
        <time>2017-06-05T15:32:45Z</time>
      </trkpt>
      <trkpt lat="47.23776" lon="-1.02716">
        <ele>33</ele>
        <time>2017-06-05T15:33:53Z</time>
      </trkpt>
      <trkpt lat="47.23774" lon="-1.02718">
        <ele>33</ele>
        <time>2017-06-05T15:33:54Z</time>
      </trkpt>
      <trkpt lat="47.23766" lon="-1.02722">
        <ele>33</ele>
        <time>2017-06-05T15:33:57Z</time>
      </trkpt>
      <trkpt lat="47.23756" lon="-1.02726">
        <ele>33</ele>
        <time>2017-06-05T15:34:02Z</time>
      </trkpt>
      <trkpt lat="47.23754" lon="-1.02726">
        <ele>33</ele>
        <time>2017-06-05T15:34:03Z</time>
      </trkpt>
      <trkpt lat="47.23745" lon="-1.02725">
        <ele>33</ele>
        <time>2017-06-05T15:34:07Z</time>
      </trkpt>
      <trkpt lat="47.23741" lon="-1.02725">
        <ele>34</ele>
        <time>2017-06-05T15:34:09Z</time>
      </trkpt>
      <trkpt lat="47.23732" lon="-1.02723">
        <ele>34</ele>
        <time>2017-06-05T15:34:13Z</time>
      </trkpt>
      <trkpt lat="47.23728" lon="-1.02722">
        <ele>35</ele>
        <time>2017-06-05T15:34:15Z</time>
      </trkpt>
      <trkpt lat="47.23726" lon="-1.02721">
        <ele>35</ele>
        <time>2017-06-05T15:34:16Z</time>
      </trkpt>
      <trkpt lat="47.23721" lon="-1.0272">
        <ele>36</ele>
        <time>2017-06-05T15:34:19Z</time>
      </trkpt>
      <trkpt lat="47.23714" lon="-1.02718">
        <ele>37</ele>
        <time>2017-06-05T15:34:23Z</time>
      </trkpt>
      <trkpt lat="47.23712" lon="-1.02717">
        <ele>37</ele>
        <time>2017-06-05T15:34:24Z</time>
      </trkpt>
      <trkpt lat="47.23711" lon="-1.02717">
        <ele>37</ele>
        <time>2017-06-05T15:34:25Z</time>
      </trkpt>
      <trkpt lat="47.23705" lon="-1.02716">
        <ele>38</ele>
        <time>2017-06-05T15:34:28Z</time>
      </trkpt>
      <trkpt lat="47.23698" lon="-1.02719">
        <ele>39</ele>
        <time>2017-06-05T15:34:33Z</time>
      </trkpt>
      <trkpt lat="47.23696" lon="-1.0272">
        <ele>39</ele>
        <time>2017-06-05T15:34:34Z</time>
      </trkpt>
      <trkpt lat="47.23689" lon="-1.02728">
        <ele>40</ele>
        <time>2017-06-05T15:34:40Z</time>
      </trkpt>
      <trkpt lat="47.23683" lon="-1.02737">
        <ele>41</ele>
        <time>2017-06-05T15:34:45Z</time>
      </trkpt>
      <trkpt lat="47.23679" lon="-1.02744">
        <ele>42</ele>
        <time>2017-06-05T15:34:49Z</time>
      </trkpt>
      <trkpt lat="47.23677" lon="-1.02746">
        <ele>42</ele>
        <time>2017-06-05T15:34:50Z</time>
      </trkpt>
      <trkpt lat="47.23673" lon="-1.02752">
        <ele>43</ele>
        <time>2017-06-05T15:34:54Z</time>
      </trkpt>
      <trkpt lat="47.23668" lon="-1.02759">
        <ele>44</ele>
        <time>2017-06-05T15:34:58Z</time>
      </trkpt>
      <trkpt lat="47.23666" lon="-1.02762">
        <ele>45</ele>
        <time>2017-06-05T15:35:00Z</time>
      </trkpt>
      <trkpt lat="47.23664" lon="-1.02765">
        <ele>46</ele>
        <time>2017-06-05T15:35:02Z</time>
      </trkpt>
      <trkpt lat="47.23659" lon="-1.0277">
        <ele>47</ele>
        <time>2017-06-05T15:35:06Z</time>
      </trkpt>
      <trkpt lat="47.23654" lon="-1.02776">
        <ele>48</ele>
        <time>2017-06-05T15:35:10Z</time>
      </trkpt>
      <trkpt lat="47.23653" lon="-1.02777">
        <ele>48</ele>
        <time>2017-06-05T15:35:11Z</time>
      </trkpt>
      <trkpt lat="47.23649" lon="-1.0278">
        <ele>49</ele>
        <time>2017-06-05T15:35:14Z</time>
      </trkpt>
      <trkpt lat="47.23646" lon="-1.02781">
        <ele>50</ele>
        <time>2017-06-05T15:35:16Z</time>
      </trkpt>
      <trkpt lat="47.23641" lon="-1.02782">
        <ele>50</ele>
        <time>2017-06-05T15:35:19Z</time>
      </trkpt>
      <trkpt lat="47.2363" lon="-1.02785">
        <ele>52</ele>
        <time>2017-06-05T15:35:26Z</time>
      </trkpt>
      <trkpt lat="47.23629" lon="-1.02785">
        <ele>52</ele>
        <time>2017-06-05T15:35:27Z</time>
      </trkpt>
      <trkpt lat="47.23626" lon="-1.02786">
        <ele>53</ele>
        <time>2017-06-05T15:35:29Z</time>
      </trkpt>
      <trkpt lat="47.23615" lon="-1.02787">
        <ele>54</ele>
        <time>2017-06-05T15:35:36Z</time>
      </trkpt>
      <trkpt lat="47.23614" lon="-1.02787">
        <ele>54</ele>
        <time>2017-06-05T15:35:37Z</time>
      </trkpt>
      <trkpt lat="47.23607" lon="-1.02788">
        <ele>55</ele>
        <time>2017-06-05T15:35:41Z</time>
      </trkpt>
      <trkpt lat="47.23601" lon="-1.02788">
        <ele>56</ele>
        <time>2017-06-05T15:35:45Z</time>
      </trkpt>
      <trkpt lat="47.23587" lon="-1.02789">
        <ele>57</ele>
        <time>2017-06-05T15:35:53Z</time>
      </trkpt>
      <trkpt lat="47.23583" lon="-1.0279">
        <ele>58</ele>
        <time>2017-06-05T15:35:55Z</time>
      </trkpt>
      <trkpt lat="47.2358" lon="-1.0279">
        <ele>58</ele>
        <time>2017-06-05T15:35:57Z</time>
      </trkpt>
      <trkpt lat="47.23565" lon="-1.02792">
        <ele>59</ele>
        <time>2017-06-05T15:36:05Z</time>
      </trkpt>
      <trkpt lat="47.23564" lon="-1.02793">
        <ele>59</ele>
        <time>2017-06-05T15:36:06Z</time>
      </trkpt>
      <trkpt lat="47.23552" lon="-1.02797">
        <ele>60</ele>
        <time>2017-06-05T15:36:12Z</time>
      </trkpt>
      <trkpt lat="47.23543" lon="-1.02804">
        <ele>62</ele>
        <time>2017-06-05T15:36:18Z</time>
      </trkpt>
      <trkpt lat="47.23536" lon="-1.0281">
        <ele>62</ele>
        <time>2017-06-05T15:36:22Z</time>
      </trkpt>
      <trkpt lat="47.23531" lon="-1.02815">
        <ele>63</ele>
        <time>2017-06-05T15:36:25Z</time>
      </trkpt>
      <trkpt lat="47.23527" lon="-1.02821">
        <ele>64</ele>
        <time>2017-06-05T15:36:28Z</time>
      </trkpt>
      <trkpt lat="47.23521" lon="-1.02829">
        <ele>64</ele>
        <time>2017-06-05T15:36:32Z</time>
      </trkpt>
      <trkpt lat="47.23516" lon="-1.02837">
        <ele>65</ele>
        <time>2017-06-05T15:36:36Z</time>
      </trkpt>
      <trkpt lat="47.23508" lon="-1.02848">
        <ele>66</ele>
        <time>2017-06-05T15:36:42Z</time>
      </trkpt>
      <trkpt lat="47.23507" lon="-1.0285">
        <ele>66</ele>
        <time>2017-06-05T15:36:43Z</time>
      </trkpt>
      <trkpt lat="47.23499" lon="-1.0286">
        <ele>67</ele>
        <time>2017-06-05T15:36:48Z</time>
      </trkpt>
      <trkpt lat="47.23495" lon="-1.02866">
        <ele>68</ele>
        <time>2017-06-05T15:36:51Z</time>
      </trkpt>
      <trkpt lat="47.23493" lon="-1.0287">
        <ele>68</ele>
        <time>2017-06-05T15:36:53Z</time>
      </trkpt>
      <trkpt lat="47.23486" lon="-1.0288">
        <ele>69</ele>
        <time>2017-06-05T15:36:58Z</time>
      </trkpt>
      <trkpt lat="47.23484" lon="-1.02881">
        <ele>69</ele>
        <time>2017-06-05T15:36:59Z</time>
      </trkpt>
      <trkpt lat="47.23477" lon="-1.02893">
        <ele>70</ele>
        <time>2017-06-05T15:37:05Z</time>
      </trkpt>
      <trkpt lat="47.23475" lon="-1.02897">
        <ele>71</ele>
        <time>2017-06-05T15:37:07Z</time>
      </trkpt>
      <trkpt lat="47.2347" lon="-1.02905">
        <ele>71</ele>
        <time>2017-06-05T15:37:11Z</time>
      </trkpt>
      <trkpt lat="47.23464" lon="-1.02912">
        <ele>72</ele>
        <time>2017-06-05T15:37:15Z</time>
      </trkpt>
      <trkpt lat="47.23463" lon="-1.02914">
        <ele>73</ele>
        <time>2017-06-05T15:37:16Z</time>
      </trkpt>
      <trkpt lat="47.23458" lon="-1.02922">
        <ele>74</ele>
        <time>2017-06-05T15:37:20Z</time>
      </trkpt>
      <trkpt lat="47.23452" lon="-1.02932">
        <ele>75</ele>
        <time>2017-06-05T15:37:25Z</time>
      </trkpt>
      <trkpt lat="47.23446" lon="-1.02941">
        <ele>76</ele>
        <time>2017-06-05T15:37:30Z</time>
      </trkpt>
      <trkpt lat="47.23441" lon="-1.02948">
        <ele>77</ele>
        <time>2017-06-05T15:37:34Z</time>
      </trkpt>
      <trkpt lat="47.23439" lon="-1.02952">
        <ele>77</ele>
        <time>2017-06-05T15:37:36Z</time>
      </trkpt>
      <trkpt lat="47.23435" lon="-1.02957">
        <ele>78</ele>
        <time>2017-06-05T15:37:39Z</time>
      </trkpt>
      <trkpt lat="47.23431" lon="-1.02963">
        <ele>79</ele>
        <time>2017-06-05T15:37:42Z</time>
      </trkpt>
      <trkpt lat="47.23423" lon="-1.02973">
        <ele>81</ele>
        <time>2017-06-05T15:37:48Z</time>
      </trkpt>
      <trkpt lat="47.23418" lon="-1.02981">
        <ele>81</ele>
        <time>2017-06-05T15:37:52Z</time>
      </trkpt>
      <trkpt lat="47.23411" lon="-1.0299">
        <ele>82</ele>
        <time>2017-06-05T15:37:57Z</time>
      </trkpt>
      <trkpt lat="47.23404" lon="-1.02998">
        <ele>82</ele>
        <time>2017-06-05T15:38:01Z</time>
      </trkpt>
      <trkpt lat="47.23403" lon="-1.03">
        <ele>83</ele>
        <time>2017-06-05T15:38:02Z</time>
      </trkpt>
      <trkpt lat="47.23395" lon="-1.03009">
        <ele>84</ele>
        <time>2017-06-05T15:38:07Z</time>
      </trkpt>
      <trkpt lat="47.23388" lon="-1.03016">
        <ele>85</ele>
        <time>2017-06-05T15:38:11Z</time>
      </trkpt>
      <trkpt lat="47.23387" lon="-1.03017">
        <ele>85</ele>
        <time>2017-06-05T15:38:12Z</time>
      </trkpt>
      <trkpt lat="47.23376" lon="-1.03027">
        <ele>86</ele>
        <time>2017-06-05T15:38:18Z</time>
      </trkpt>
      <trkpt lat="47.23372" lon="-1.03031">
        <ele>86</ele>
        <time>2017-06-05T15:38:20Z</time>
      </trkpt>
      <trkpt lat="47.23366" lon="-1.03036">
        <ele>87</ele>
        <time>2017-06-05T15:38:23Z</time>
      </trkpt>
      <trkpt lat="47.23356" lon="-1.03045">
        <ele>88</ele>
        <time>2017-06-05T15:38:28Z</time>
      </trkpt>
      <trkpt lat="47.23352" lon="-1.03048">
        <ele>88</ele>
        <time>2017-06-05T15:38:30Z</time>
      </trkpt>
      <trkpt lat="47.23335" lon="-1.03062">
        <ele>89</ele>
        <time>2017-06-05T15:38:37Z</time>
      </trkpt>
      <trkpt lat="47.23333" lon="-1.03065">
        <ele>89</ele>
        <time>2017-06-05T15:38:38Z</time>
      </trkpt>
      <trkpt lat="47.23313" lon="-1.03082">
        <ele>90</ele>
        <time>2017-06-05T15:38:45Z</time>
      </trkpt>
      <trkpt lat="47.23298" lon="-1.03106">
        <ele>90</ele>
        <time>2017-06-05T15:38:51Z</time>
      </trkpt>
      <trkpt lat="47.23296" lon="-1.0311">
        <ele>90</ele>
        <time>2017-06-05T15:38:52Z</time>
      </trkpt>
      <trkpt lat="47.23276" lon="-1.03142">
        <ele>90</ele>
        <time>2017-06-05T15:38:59Z</time>
      </trkpt>
      <trkpt lat="47.23263" lon="-1.0316">
        <ele>90</ele>
        <time>2017-06-05T15:39:03Z</time>
      </trkpt>
      <trkpt lat="47.23256" lon="-1.03169">
        <ele>89</ele>
        <time>2017-06-05T15:39:05Z</time>
      </trkpt>
      <trkpt lat="47.23241" lon="-1.03186">
        <ele>89</ele>
        <time>2017-06-05T15:39:09Z</time>
      </trkpt>
      <trkpt lat="47.2323" lon="-1.03199">
        <ele>89</ele>
        <time>2017-06-05T15:39:12Z</time>
      </trkpt>
      <trkpt lat="47.23226" lon="-1.03203">
        <ele>88</ele>
        <time>2017-06-05T15:39:13Z</time>
      </trkpt>
      <trkpt lat="47.23218" lon="-1.03212">
        <ele>87</ele>
        <time>2017-06-05T15:39:15Z</time>
      </trkpt>
      <trkpt lat="47.23214" lon="-1.03217">
        <ele>87</ele>
        <time>2017-06-05T15:39:16Z</time>
      </trkpt>
      <trkpt lat="47.23204" lon="-1.03231">
        <ele>86</ele>
        <time>2017-06-05T15:39:19Z</time>
      </trkpt>
      <trkpt lat="47.23201" lon="-1.03236">
        <ele>86</ele>
        <time>2017-06-05T15:39:20Z</time>
      </trkpt>
      <trkpt lat="47.23192" lon="-1.03247">
        <ele>85</ele>
        <time>2017-06-05T15:39:23Z</time>
      </trkpt>
      <trkpt lat="47.23189" lon="-1.03247">
        <ele>85</ele>
        <time>2017-06-05T15:39:24Z</time>
      </trkpt>
      <trkpt lat="47.23186" lon="-1.03243">
        <ele>85</ele>
        <time>2017-06-05T15:39:25Z</time>
      </trkpt>
      <trkpt lat="47.23182" lon="-1.03237">
        <ele>85</ele>
        <time>2017-06-05T15:39:26Z</time>
      </trkpt>
      <trkpt lat="47.23175" lon="-1.03225">
        <ele>84</ele>
        <time>2017-06-05T15:39:28Z</time>
      </trkpt>
      <trkpt lat="47.2317" lon="-1.03219">
        <ele>83</ele>
        <time>2017-06-05T15:39:29Z</time>
      </trkpt>
      <trkpt lat="47.23165" lon="-1.03214">
        <ele>82</ele>
        <time>2017-06-05T15:39:30Z</time>
      </trkpt>
      <trkpt lat="47.23155" lon="-1.03204">
        <ele>81</ele>
        <time>2017-06-05T15:39:32Z</time>
      </trkpt>
      <trkpt lat="47.23143" lon="-1.03194">
        <ele>80</ele>
        <time>2017-06-05T15:39:34Z</time>
      </trkpt>
      <trkpt lat="47.23137" lon="-1.03189">
        <ele>79</ele>
        <time>2017-06-05T15:39:35Z</time>
      </trkpt>
      <trkpt lat="47.23131" lon="-1.03184">
        <ele>79</ele>
        <time>2017-06-05T15:39:36Z</time>
      </trkpt>
      <trkpt lat="47.23118" lon="-1.03173">
        <ele>77</ele>
        <time>2017-06-05T15:39:38Z</time>
      </trkpt>
      <trkpt lat="47.23112" lon="-1.03167">
        <ele>75</ele>
        <time>2017-06-05T15:39:39Z</time>
      </trkpt>
      <trkpt lat="47.23106" lon="-1.03161">
        <ele>74</ele>
        <time>2017-06-05T15:39:40Z</time>
      </trkpt>
      <trkpt lat="47.23101" lon="-1.03155">
        <ele>73</ele>
        <time>2017-06-05T15:39:41Z</time>
      </trkpt>
      <trkpt lat="47.23096" lon="-1.03149">
        <ele>71</ele>
        <time>2017-06-05T15:39:42Z</time>
      </trkpt>
      <trkpt lat="47.2309" lon="-1.03144">
        <ele>70</ele>
        <time>2017-06-05T15:39:43Z</time>
      </trkpt>
      <trkpt lat="47.23085" lon="-1.03141">
        <ele>69</ele>
        <time>2017-06-05T15:39:44Z</time>
      </trkpt>
      <trkpt lat="47.23078" lon="-1.03139">
        <ele>68</ele>
        <time>2017-06-05T15:39:45Z</time>
      </trkpt>
      <trkpt lat="47.23072" lon="-1.03139">
        <ele>67</ele>
        <time>2017-06-05T15:39:46Z</time>
      </trkpt>
      <trkpt lat="47.23059" lon="-1.03143">
        <ele>65</ele>
        <time>2017-06-05T15:39:48Z</time>
      </trkpt>
      <trkpt lat="47.23054" lon="-1.03145">
        <ele>65</ele>
        <time>2017-06-05T15:39:49Z</time>
      </trkpt>
      <trkpt lat="47.23025" lon="-1.03161">
        <ele>65</ele>
        <time>2017-06-05T15:39:55Z</time>
      </trkpt>
      <trkpt lat="47.23018" lon="-1.03166">
        <ele>65</ele>
        <time>2017-06-05T15:39:57Z</time>
      </trkpt>
      <trkpt lat="47.23008" lon="-1.03172">
        <ele>66</ele>
        <time>2017-06-05T15:40:00Z</time>
      </trkpt>
      <trkpt lat="47.23004" lon="-1.03173">
        <ele>66</ele>
        <time>2017-06-05T15:40:01Z</time>
      </trkpt>
      <trkpt lat="47.22978" lon="-1.0318">
        <ele>66</ele>
        <time>2017-06-05T15:40:08Z</time>
      </trkpt>
      <trkpt lat="47.22974" lon="-1.03182">
        <ele>66</ele>
        <time>2017-06-05T15:40:09Z</time>
      </trkpt>
      <trkpt lat="47.22959" lon="-1.03186">
        <ele>66</ele>
        <time>2017-06-05T15:40:13Z</time>
      </trkpt>
      <trkpt lat="47.22943" lon="-1.0319">
        <ele>66</ele>
        <time>2017-06-05T15:40:17Z</time>
      </trkpt>
      <trkpt lat="47.22921" lon="-1.03194">
        <ele>67</ele>
        <time>2017-06-05T15:40:23Z</time>
      </trkpt>
      <trkpt lat="47.22917" lon="-1.03196">
        <ele>67</ele>
        <time>2017-06-05T15:40:24Z</time>
      </trkpt>
      <trkpt lat="47.2289" lon="-1.03205">
        <ele>67</ele>
        <time>2017-06-05T15:40:32Z</time>
      </trkpt>
      <trkpt lat="47.22887" lon="-1.03206">
        <ele>68</ele>
        <time>2017-06-05T15:40:33Z</time>
      </trkpt>
      <trkpt lat="47.22884" lon="-1.03206">
        <ele>68</ele>
        <time>2017-06-05T15:40:34Z</time>
      </trkpt>
      <trkpt lat="47.22872" lon="-1.0321">
        <ele>69</ele>
        <time>2017-06-05T15:40:38Z</time>
      </trkpt>
      <trkpt lat="47.22866" lon="-1.03211">
        <ele>69</ele>
        <time>2017-06-05T15:40:40Z</time>
      </trkpt>
      <trkpt lat="47.22855" lon="-1.03215">
        <ele>70</ele>
        <time>2017-06-05T15:40:44Z</time>
      </trkpt>
      <trkpt lat="47.22847" lon="-1.03217">
        <ele>71</ele>
        <time>2017-06-05T15:40:47Z</time>
      </trkpt>
      <trkpt lat="47.22841" lon="-1.03218">
        <ele>71</ele>
        <time>2017-06-05T15:40:49Z</time>
      </trkpt>
      <trkpt lat="47.22831" lon="-1.03221">
        <ele>72</ele>
        <time>2017-06-05T15:40:53Z</time>
      </trkpt>
      <trkpt lat="47.2282" lon="-1.03224">
        <ele>73</ele>
        <time>2017-06-05T15:40:57Z</time>
      </trkpt>
      <trkpt lat="47.22812" lon="-1.03226">
        <ele>74</ele>
        <time>2017-06-05T15:41:00Z</time>
      </trkpt>
      <trkpt lat="47.22802" lon="-1.03229">
        <ele>75</ele>
        <time>2017-06-05T15:41:04Z</time>
      </trkpt>
      <trkpt lat="47.22796" lon="-1.0323">
        <ele>75</ele>
        <time>2017-06-05T15:41:06Z</time>
      </trkpt>
      <trkpt lat="47.22794" lon="-1.03231">
        <ele>76</ele>
        <time>2017-06-05T15:41:07Z</time>
      </trkpt>
      <trkpt lat="47.22778" lon="-1.03235">
        <ele>77</ele>
        <time>2017-06-05T15:41:13Z</time>
      </trkpt>
      <trkpt lat="47.22775" lon="-1.03235">
        <ele>77</ele>
        <time>2017-06-05T15:41:14Z</time>
      </trkpt>
      <trkpt lat="47.22766" lon="-1.03238">
        <ele>77</ele>
        <time>2017-06-05T15:41:17Z</time>
      </trkpt>
      <trkpt lat="47.22758" lon="-1.0324">
        <ele>78</ele>
        <time>2017-06-05T15:41:20Z</time>
      </trkpt>
      <trkpt lat="47.22738" lon="-1.03246">
        <ele>79</ele>
        <time>2017-06-05T15:41:26Z</time>
      </trkpt>
      <trkpt lat="47.22713" lon="-1.03244">
        <ele>79</ele>
        <time>2017-06-05T15:41:34Z</time>
      </trkpt>
      <trkpt lat="47.22711" lon="-1.03227">
        <ele>79</ele>
        <time>2017-06-05T15:41:37Z</time>
      </trkpt>
      <trkpt lat="47.22712" lon="-1.0322">
        <ele>78</ele>
        <time>2017-06-05T15:41:38Z</time>
      </trkpt>
      <trkpt lat="47.22713" lon="-1.03183">
        <ele>77</ele>
        <time>2017-06-05T15:41:43Z</time>
      </trkpt>
      <trkpt lat="47.22714" lon="-1.03174">
        <ele>77</ele>
        <time>2017-06-05T15:41:44Z</time>
      </trkpt>
      <trkpt lat="47.22716" lon="-1.03166">
        <ele>76</ele>
        <time>2017-06-05T15:41:45Z</time>
      </trkpt>
      <trkpt lat="47.22718" lon="-1.0316">
        <ele>76</ele>
        <time>2017-06-05T15:41:46Z</time>
      </trkpt>
      <trkpt lat="47.22723" lon="-1.03145">
        <ele>75</ele>
        <time>2017-06-05T15:41:48Z</time>
      </trkpt>
      <trkpt lat="47.22725" lon="-1.03138">
        <ele>74</ele>
        <time>2017-06-05T15:41:49Z</time>
      </trkpt>
      <trkpt lat="47.22733" lon="-1.03118">
        <ele>73</ele>
        <time>2017-06-05T15:41:52Z</time>
      </trkpt>
      <trkpt lat="47.22738" lon="-1.03105">
        <ele>72</ele>
        <time>2017-06-05T15:41:54Z</time>
      </trkpt>
      <trkpt lat="47.22741" lon="-1.03099">
        <ele>71</ele>
        <time>2017-06-05T15:41:55Z</time>
      </trkpt>
      <trkpt lat="47.22743" lon="-1.03094">
        <ele>70</ele>
        <time>2017-06-05T15:41:56Z</time>
      </trkpt>
      <trkpt lat="47.22747" lon="-1.03084">
        <ele>69</ele>
        <time>2017-06-05T15:41:58Z</time>
      </trkpt>
      <trkpt lat="47.22749" lon="-1.03077">
        <ele>68</ele>
        <time>2017-06-05T15:42:00Z</time>
      </trkpt>
      <trkpt lat="47.2275" lon="-1.03075">
        <ele>68</ele>
        <time>2017-06-05T15:42:01Z</time>
      </trkpt>
      <trkpt lat="47.22748" lon="-1.03073">
        <ele>67</ele>
        <time>2017-06-05T15:42:03Z</time>
      </trkpt>
      <trkpt lat="47.22746" lon="-1.03073">
        <ele>66</ele>
        <time>2017-06-05T15:42:05Z</time>
      </trkpt>
      <trkpt lat="47.22743" lon="-1.03076">
        <ele>66</ele>
        <time>2017-06-05T15:42:07Z</time>
      </trkpt>
      <trkpt lat="47.22742" lon="-1.03077">
        <ele>66</ele>
        <time>2017-06-05T15:42:08Z</time>
      </trkpt>
      <trkpt lat="47.22739" lon="-1.0308">
        <ele>65</ele>
        <time>2017-06-05T15:42:10Z</time>
      </trkpt>
      <trkpt lat="47.22737" lon="-1.03082">
        <ele>65</ele>
        <time>2017-06-05T15:42:11Z</time>
      </trkpt>
      <trkpt lat="47.22727" lon="-1.03083">
        <ele>59</ele>
        <time>2017-06-05T15:42:28Z</time>
      </trkpt>
      <trkpt lat="47.22724" lon="-1.03067">
        <ele>58</ele>
        <time>2017-06-05T15:42:32Z</time>
      </trkpt>
      <trkpt lat="47.22724" lon="-1.03062">
        <ele>57</ele>
        <time>2017-06-05T15:42:33Z</time>
      </trkpt>
      <trkpt lat="47.22721" lon="-1.03046">
        <ele>56</ele>
        <time>2017-06-05T15:42:37Z</time>
      </trkpt>
      <trkpt lat="47.22718" lon="-1.03029">
        <ele>55</ele>
        <time>2017-06-05T15:42:41Z</time>
      </trkpt>
      <trkpt lat="47.22716" lon="-1.03025">
        <ele>55</ele>
        <time>2017-06-05T15:42:42Z</time>
      </trkpt>
      <trkpt lat="47.22715" lon="-1.03016">
        <ele>55</ele>
        <time>2017-06-05T15:42:44Z</time>
      </trkpt>
      <trkpt lat="47.22712" lon="-1.02995">
        <ele>55</ele>
        <time>2017-06-05T15:42:49Z</time>
      </trkpt>
      <trkpt lat="47.2271" lon="-1.0299">
        <ele>55</ele>
        <time>2017-06-05T15:42:50Z</time>
      </trkpt>
      <trkpt lat="47.22702" lon="-1.02963">
        <ele>54</ele>
        <time>2017-06-05T15:42:55Z</time>
      </trkpt>
      <trkpt lat="47.22698" lon="-1.02945">
        <ele>54</ele>
        <time>2017-06-05T15:42:58Z</time>
      </trkpt>
      <trkpt lat="47.22695" lon="-1.02937">
        <ele>54</ele>
        <time>2017-06-05T15:43:00Z</time>
      </trkpt>
      <trkpt lat="47.22693" lon="-1.02928">
        <ele>54</ele>
        <time>2017-06-05T15:43:02Z</time>
      </trkpt>
      <trkpt lat="47.22681" lon="-1.029">
        <ele>55</ele>
        <time>2017-06-05T15:43:08Z</time>
      </trkpt>
      <trkpt lat="47.22674" lon="-1.02886">
        <ele>54</ele>
        <time>2017-06-05T15:43:12Z</time>
      </trkpt>
      <trkpt lat="47.22672" lon="-1.02883">
        <ele>55</ele>
        <time>2017-06-05T15:43:13Z</time>
      </trkpt>
      <trkpt lat="47.22666" lon="-1.02875">
        <ele>55</ele>
        <time>2017-06-05T15:43:16Z</time>
      </trkpt>
      <trkpt lat="47.2266" lon="-1.02871">
        <ele>55</ele>
        <time>2017-06-05T15:43:19Z</time>
      </trkpt>
      <trkpt lat="47.22646" lon="-1.02861">
        <ele>55</ele>
        <time>2017-06-05T15:43:25Z</time>
      </trkpt>
      <trkpt lat="47.22641" lon="-1.02856">
        <ele>55</ele>
        <time>2017-06-05T15:43:27Z</time>
      </trkpt>
      <trkpt lat="47.22633" lon="-1.02853">
        <ele>55</ele>
        <time>2017-06-05T15:43:30Z</time>
      </trkpt>
      <trkpt lat="47.22652" lon="-1.02898">
        <ele>38</ele>
        <time>2017-06-05T15:44:54Z</time>
      </trkpt>
      <trkpt lat="47.22658" lon="-1.02912">
        <ele>37</ele>
        <time>2017-06-05T15:44:58Z</time>
      </trkpt>
      <trkpt lat="47.2266" lon="-1.02915">
        <ele>37</ele>
        <time>2017-06-05T15:44:59Z</time>
      </trkpt>
      <trkpt lat="47.22666" lon="-1.02937">
        <ele>37</ele>
        <time>2017-06-05T15:45:04Z</time>
      </trkpt>
      <trkpt lat="47.22668" lon="-1.02944">
        <ele>37</ele>
        <time>2017-06-05T15:45:06Z</time>
      </trkpt>
      <trkpt lat="47.22675" lon="-1.02962">
        <ele>37</ele>
        <time>2017-06-05T15:45:11Z</time>
      </trkpt>
      <trkpt lat="47.22683" lon="-1.02991">
        <ele>37</ele>
        <time>2017-06-05T15:45:18Z</time>
      </trkpt>
      <trkpt lat="47.22688" lon="-1.03011">
        <ele>37</ele>
        <time>2017-06-05T15:45:23Z</time>
      </trkpt>
      <trkpt lat="47.22692" lon="-1.0304">
        <ele>37</ele>
        <time>2017-06-05T15:45:29Z</time>
      </trkpt>
      <trkpt lat="47.22692" lon="-1.03064">
        <ele>38</ele>
        <time>2017-06-05T15:45:34Z</time>
      </trkpt>
      <trkpt lat="47.2269" lon="-1.03096">
        <ele>38</ele>
        <time>2017-06-05T15:45:39Z</time>
      </trkpt>
      <trkpt lat="47.22683" lon="-1.03127">
        <ele>38</ele>
        <time>2017-06-05T15:45:45Z</time>
      </trkpt>
      <trkpt lat="47.22674" lon="-1.03152">
        <ele>38</ele>
        <time>2017-06-05T15:45:50Z</time>
      </trkpt>
      <trkpt lat="47.22664" lon="-1.03178">
        <ele>38</ele>
        <time>2017-06-05T15:45:56Z</time>
      </trkpt>
      <trkpt lat="47.22658" lon="-1.03189">
        <ele>38</ele>
        <time>2017-06-05T15:45:59Z</time>
      </trkpt>
      <trkpt lat="47.22645" lon="-1.03215">
        <ele>38</ele>
        <time>2017-06-05T15:46:04Z</time>
      </trkpt>
      <trkpt lat="47.22628" lon="-1.03241">
        <ele>37</ele>
        <time>2017-06-05T15:46:10Z</time>
      </trkpt>
      <trkpt lat="47.22612" lon="-1.03276">
        <ele>38</ele>
        <time>2017-06-05T15:46:17Z</time>
      </trkpt>
      <trkpt lat="47.22599" lon="-1.03301">
        <ele>38</ele>
        <time>2017-06-05T15:46:23Z</time>
      </trkpt>
      <trkpt lat="47.22581" lon="-1.03324">
        <ele>38</ele>
        <time>2017-06-05T15:46:29Z</time>
      </trkpt>
      <trkpt lat="47.22558" lon="-1.03349">
        <ele>38</ele>
        <time>2017-06-05T15:46:36Z</time>
      </trkpt>
      <trkpt lat="47.22537" lon="-1.03363">
        <ele>39</ele>
        <time>2017-06-05T15:46:42Z</time>
      </trkpt>
      <trkpt lat="47.22511" lon="-1.03361">
        <ele>38</ele>
        <time>2017-06-05T15:46:48Z</time>
      </trkpt>
      <trkpt lat="47.22485" lon="-1.03354">
        <ele>38</ele>
        <time>2017-06-05T15:46:55Z</time>
      </trkpt>
      <trkpt lat="47.22456" lon="-1.03341">
        <ele>38</ele>
        <time>2017-06-05T15:47:01Z</time>
      </trkpt>
      <trkpt lat="47.22451" lon="-1.03339">
        <ele>38</ele>
        <time>2017-06-05T15:47:02Z</time>
      </trkpt>
      <trkpt lat="47.22426" lon="-1.03324">
        <ele>38</ele>
        <time>2017-06-05T15:47:09Z</time>
      </trkpt>
      <trkpt lat="47.22409" lon="-1.03314">
        <ele>38</ele>
        <time>2017-06-05T15:47:15Z</time>
      </trkpt>
      <trkpt lat="47.2239" lon="-1.03304">
        <ele>38</ele>
        <time>2017-06-05T15:47:22Z</time>
      </trkpt>
      <trkpt lat="47.22377" lon="-1.03298">
        <ele>39</ele>
        <time>2017-06-05T15:47:29Z</time>
      </trkpt>
      <trkpt lat="47.22375" lon="-1.03298">
        <ele>39</ele>
        <time>2017-06-05T15:47:30Z</time>
      </trkpt>
      <trkpt lat="47.22366" lon="-1.03299">
        <ele>40</ele>
        <time>2017-06-05T15:47:34Z</time>
      </trkpt>
      <trkpt lat="47.22363" lon="-1.03298">
        <ele>40</ele>
        <time>2017-06-05T15:47:35Z</time>
      </trkpt>
      <trkpt lat="47.22351" lon="-1.03291">
        <ele>40</ele>
        <time>2017-06-05T15:47:39Z</time>
      </trkpt>
      <trkpt lat="47.22341" lon="-1.03264">
        <ele>39</ele>
        <time>2017-06-05T15:47:44Z</time>
      </trkpt>
      <trkpt lat="47.22336" lon="-1.03252">
        <ele>39</ele>
        <time>2017-06-05T15:47:47Z</time>
      </trkpt>
      <trkpt lat="47.22334" lon="-1.03249">
        <ele>39</ele>
        <time>2017-06-05T15:47:48Z</time>
      </trkpt>
      <trkpt lat="47.22326" lon="-1.03243">
        <ele>39</ele>
        <time>2017-06-05T15:47:54Z</time>
      </trkpt>
      <trkpt lat="47.22322" lon="-1.03242">
        <ele>40</ele>
        <time>2017-06-05T15:47:57Z</time>
      </trkpt>
      <trkpt lat="47.22321" lon="-1.03243">
        <ele>40</ele>
        <time>2017-06-05T15:47:58Z</time>
      </trkpt>
      <trkpt lat="47.22318" lon="-1.03243">
        <ele>41</ele>
        <time>2017-06-05T15:48:00Z</time>
      </trkpt>
      <trkpt lat="47.22316" lon="-1.03245">
        <ele>41</ele>
        <time>2017-06-05T15:48:02Z</time>
      </trkpt>
      <trkpt lat="47.22336" lon="-1.03376">
        <ele>61</ele>
        <time>2017-06-05T15:49:16Z</time>
      </trkpt>
      <trkpt lat="47.22336" lon="-1.03377">
        <ele>61</ele>
        <time>2017-06-05T15:49:17Z</time>
      </trkpt>
      <trkpt lat="47.22335" lon="-1.03379">
        <ele>61</ele>
        <time>2017-06-05T15:49:18Z</time>
      </trkpt>
      <trkpt lat="47.22335" lon="-1.03382">
        <ele>62</ele>
        <time>2017-06-05T15:49:20Z</time>
      </trkpt>
      <trkpt lat="47.22333" lon="-1.03392">
        <ele>63</ele>
        <time>2017-06-05T15:49:25Z</time>
      </trkpt>
      <trkpt lat="47.22333" lon="-1.03395">
        <ele>63</ele>
        <time>2017-06-05T15:49:27Z</time>
      </trkpt>
      <trkpt lat="47.22332" lon="-1.03404">
        <ele>64</ele>
        <time>2017-06-05T15:49:31Z</time>
      </trkpt>
      <trkpt lat="47.2233" lon="-1.03414">
        <ele>65</ele>
        <time>2017-06-05T15:49:36Z</time>
      </trkpt>
      <trkpt lat="47.2233" lon="-1.03416">
        <ele>66</ele>
        <time>2017-06-05T15:49:37Z</time>
      </trkpt>
      <trkpt lat="47.2233" lon="-1.03421">
        <ele>66</ele>
        <time>2017-06-05T15:49:40Z</time>
      </trkpt>
      <trkpt lat="47.2233" lon="-1.03429">
        <ele>68</ele>
        <time>2017-06-05T15:49:45Z</time>
      </trkpt>
      <trkpt lat="47.22329" lon="-1.03432">
        <ele>68</ele>
        <time>2017-06-05T15:49:47Z</time>
      </trkpt>
      <trkpt lat="47.22329" lon="-1.03438">
        <ele>69</ele>
        <time>2017-06-05T15:49:50Z</time>
      </trkpt>
      <trkpt lat="47.22327" lon="-1.03447">
        <ele>69</ele>
        <time>2017-06-05T15:49:54Z</time>
      </trkpt>
      <trkpt lat="47.22327" lon="-1.03452">
        <ele>70</ele>
        <time>2017-06-05T15:49:56Z</time>
      </trkpt>
      <trkpt lat="47.22329" lon="-1.03465">
        <ele>71</ele>
        <time>2017-06-05T15:50:01Z</time>
      </trkpt>
      <trkpt lat="47.22329" lon="-1.03468">
        <ele>71</ele>
        <time>2017-06-05T15:50:02Z</time>
      </trkpt>
      <trkpt lat="47.22333" lon="-1.03484">
        <ele>72</ele>
        <time>2017-06-05T15:50:09Z</time>
      </trkpt>
      <trkpt lat="47.22336" lon="-1.0349">
        <ele>72</ele>
        <time>2017-06-05T15:50:12Z</time>
      </trkpt>
      <trkpt lat="47.22338" lon="-1.03497">
        <ele>73</ele>
        <time>2017-06-05T15:50:15Z</time>
      </trkpt>
      <trkpt lat="47.22342" lon="-1.03512">
        <ele>74</ele>
        <time>2017-06-05T15:50:21Z</time>
      </trkpt>
      <trkpt lat="47.22343" lon="-1.03514">
        <ele>74</ele>
        <time>2017-06-05T15:50:22Z</time>
      </trkpt>
      <trkpt lat="47.2235" lon="-1.0353">
        <ele>75</ele>
        <time>2017-06-05T15:50:29Z</time>
      </trkpt>
      <trkpt lat="47.22351" lon="-1.03532">
        <ele>75</ele>
        <time>2017-06-05T15:50:30Z</time>
      </trkpt>
      <trkpt lat="47.22354" lon="-1.0354">
        <ele>76</ele>
        <time>2017-06-05T15:50:34Z</time>
      </trkpt>
      <trkpt lat="47.22356" lon="-1.03547">
        <ele>77</ele>
        <time>2017-06-05T15:50:37Z</time>
      </trkpt>
      <trkpt lat="47.22357" lon="-1.03551">
        <ele>78</ele>
        <time>2017-06-05T15:50:39Z</time>
      </trkpt>
      <trkpt lat="47.22358" lon="-1.03554">
        <ele>79</ele>
        <time>2017-06-05T15:50:40Z</time>
      </trkpt>
      <trkpt lat="47.22362" lon="-1.0357">
        <ele>79</ele>
        <time>2017-06-05T15:50:47Z</time>
      </trkpt>
      <trkpt lat="47.22361" lon="-1.03573">
        <ele>79</ele>
        <time>2017-06-05T15:50:48Z</time>
      </trkpt>
      <trkpt lat="47.22354" lon="-1.03579">
        <ele>80</ele>
        <time>2017-06-05T15:50:52Z</time>
      </trkpt>
      <trkpt lat="47.22351" lon="-1.03579">
        <ele>80</ele>
        <time>2017-06-05T15:50:53Z</time>
      </trkpt>
      <trkpt lat="47.22336" lon="-1.03579">
        <ele>81</ele>
        <time>2017-06-05T15:50:58Z</time>
      </trkpt>
      <trkpt lat="47.22332" lon="-1.03579">
        <ele>81</ele>
        <time>2017-06-05T15:50:59Z</time>
      </trkpt>
      <trkpt lat="47.22313" lon="-1.03585">
        <ele>81</ele>
        <time>2017-06-05T15:51:04Z</time>
      </trkpt>
      <trkpt lat="47.22306" lon="-1.03588">
        <ele>81</ele>
        <time>2017-06-05T15:51:06Z</time>
      </trkpt>
      <trkpt lat="47.22296" lon="-1.0359">
        <ele>81</ele>
        <time>2017-06-05T15:51:09Z</time>
      </trkpt>
      <trkpt lat="47.2228" lon="-1.03594">
        <ele>82</ele>
        <time>2017-06-05T15:51:14Z</time>
      </trkpt>
      <trkpt lat="47.22267" lon="-1.03598">
        <ele>82</ele>
        <time>2017-06-05T15:51:18Z</time>
      </trkpt>
      <trkpt lat="47.22241" lon="-1.03604">
        <ele>83</ele>
        <time>2017-06-05T15:51:26Z</time>
      </trkpt>
      <trkpt lat="47.22213" lon="-1.03614">
        <ele>84</ele>
        <time>2017-06-05T15:51:35Z</time>
      </trkpt>
      <trkpt lat="47.22201" lon="-1.0362">
        <ele>84</ele>
        <time>2017-06-05T15:51:39Z</time>
      </trkpt>
      <trkpt lat="47.22185" lon="-1.03628">
        <ele>85</ele>
        <time>2017-06-05T15:51:44Z</time>
      </trkpt>
      <trkpt lat="47.22179" lon="-1.03632">
        <ele>85</ele>
        <time>2017-06-05T15:51:46Z</time>
      </trkpt>
      <trkpt lat="47.22164" lon="-1.03645">
        <ele>86</ele>
        <time>2017-06-05T15:51:51Z</time>
      </trkpt>
      <trkpt lat="47.22152" lon="-1.03662">
        <ele>86</ele>
        <time>2017-06-05T15:51:56Z</time>
      </trkpt>
      <trkpt lat="47.22145" lon="-1.03674">
        <ele>87</ele>
        <time>2017-06-05T15:51:59Z</time>
      </trkpt>
      <trkpt lat="47.22136" lon="-1.03694">
        <ele>87</ele>
        <time>2017-06-05T15:52:04Z</time>
      </trkpt>
      <trkpt lat="47.22132" lon="-1.03707">
        <ele>87</ele>
        <time>2017-06-05T15:52:07Z</time>
      </trkpt>
      <trkpt lat="47.22126" lon="-1.03732">
        <ele>87</ele>
        <time>2017-06-05T15:52:12Z</time>
      </trkpt>
      <trkpt lat="47.22124" lon="-1.03748">
        <ele>87</ele>
        <time>2017-06-05T15:52:15Z</time>
      </trkpt>
      <trkpt lat="47.22127" lon="-1.03776">
        <ele>87</ele>
        <time>2017-06-05T15:52:21Z</time>
      </trkpt>
      <trkpt lat="47.22131" lon="-1.03802">
        <ele>88</ele>
        <time>2017-06-05T15:52:27Z</time>
      </trkpt>
      <trkpt lat="47.22133" lon="-1.0382">
        <ele>89</ele>
        <time>2017-06-05T15:52:31Z</time>
      </trkpt>
      <trkpt lat="47.22135" lon="-1.03834">
        <ele>89</ele>
        <time>2017-06-05T15:52:34Z</time>
      </trkpt>
      <trkpt lat="47.22141" lon="-1.03857">
        <ele>90</ele>
        <time>2017-06-05T15:52:39Z</time>
      </trkpt>
      <trkpt lat="47.22143" lon="-1.03866">
        <ele>91</ele>
        <time>2017-06-05T15:52:41Z</time>
      </trkpt>
      <trkpt lat="47.22149" lon="-1.03894">
        <ele>92</ele>
        <time>2017-06-05T15:52:47Z</time>
      </trkpt>
      <trkpt lat="47.22152" lon="-1.03904">
        <ele>92</ele>
        <time>2017-06-05T15:52:49Z</time>
      </trkpt>
      <trkpt lat="47.22163" lon="-1.03958">
        <ele>92</ele>
        <time>2017-06-05T15:52:59Z</time>
      </trkpt>
      <trkpt lat="47.22169" lon="-1.0399">
        <ele>92</ele>
        <time>2017-06-05T15:53:05Z</time>
      </trkpt>
      <trkpt lat="47.22171" lon="-1.03996">
        <ele>92</ele>
        <time>2017-06-05T15:53:06Z</time>
      </trkpt>
      <trkpt lat="47.22176" lon="-1.0402">
        <ele>92</ele>
        <time>2017-06-05T15:53:10Z</time>
      </trkpt>
      <trkpt lat="47.2218" lon="-1.04041">
        <ele>92</ele>
        <time>2017-06-05T15:53:13Z</time>
      </trkpt>
      <trkpt lat="47.22181" lon="-1.04048">
        <ele>92</ele>
        <time>2017-06-05T15:53:14Z</time>
      </trkpt>
      <trkpt lat="47.22183" lon="-1.04062">
        <ele>92</ele>
        <time>2017-06-05T15:53:16Z</time>
      </trkpt>
      <trkpt lat="47.22184" lon="-1.04077">
        <ele>92</ele>
        <time>2017-06-05T15:53:18Z</time>
      </trkpt>
      <trkpt lat="47.22184" lon="-1.04093">
        <ele>92</ele>
        <time>2017-06-05T15:53:20Z</time>
      </trkpt>
      <trkpt lat="47.22181" lon="-1.04125">
        <ele>90</ele>
        <time>2017-06-05T15:53:24Z</time>
      </trkpt>
      <trkpt lat="47.2218" lon="-1.04148">
        <ele>90</ele>
        <time>2017-06-05T15:53:27Z</time>
      </trkpt>
      <trkpt lat="47.2218" lon="-1.04156">
        <ele>89</ele>
        <time>2017-06-05T15:53:28Z</time>
      </trkpt>
      <trkpt lat="47.2218" lon="-1.04171">
        <ele>88</ele>
        <time>2017-06-05T15:53:30Z</time>
      </trkpt>
      <trkpt lat="47.2218" lon="-1.04185">
        <ele>87</ele>
        <time>2017-06-05T15:53:32Z</time>
      </trkpt>
      <trkpt lat="47.2218" lon="-1.04198">
        <ele>87</ele>
        <time>2017-06-05T15:53:34Z</time>
      </trkpt>
      <trkpt lat="47.22181" lon="-1.0421">
        <ele>86</ele>
        <time>2017-06-05T15:53:36Z</time>
      </trkpt>
      <trkpt lat="47.22183" lon="-1.04214">
        <ele>86</ele>
        <time>2017-06-05T15:53:37Z</time>
      </trkpt>
      <trkpt lat="47.22184" lon="-1.04219">
        <ele>85</ele>
        <time>2017-06-05T15:53:38Z</time>
      </trkpt>
      <trkpt lat="47.2219" lon="-1.04223">
        <ele>85</ele>
        <time>2017-06-05T15:53:40Z</time>
      </trkpt>
      <trkpt lat="47.22194" lon="-1.04222">
        <ele>85</ele>
        <time>2017-06-05T15:53:41Z</time>
      </trkpt>
      <trkpt lat="47.22199" lon="-1.0422">
        <ele>84</ele>
        <time>2017-06-05T15:53:42Z</time>
      </trkpt>
      <trkpt lat="47.22207" lon="-1.04216">
        <ele>84</ele>
        <time>2017-06-05T15:53:44Z</time>
      </trkpt>
      <trkpt lat="47.22217" lon="-1.04215">
        <ele>84</ele>
        <time>2017-06-05T15:53:47Z</time>
      </trkpt>
      <trkpt lat="47.22221" lon="-1.04227">
        <ele>85</ele>
        <time>2017-06-05T15:53:50Z</time>
      </trkpt>
      <trkpt lat="47.22223" lon="-1.04239">
        <ele>86</ele>
        <time>2017-06-05T15:53:53Z</time>
      </trkpt>
      <trkpt lat="47.22224" lon="-1.04243">
        <ele>86</ele>
        <time>2017-06-05T15:53:54Z</time>
      </trkpt>
      <trkpt lat="47.22226" lon="-1.04255">
        <ele>87</ele>
        <time>2017-06-05T15:53:57Z</time>
      </trkpt>
      <trkpt lat="47.22229" lon="-1.04267">
        <ele>87</ele>
        <time>2017-06-05T15:54:00Z</time>
      </trkpt>
      <trkpt lat="47.22232" lon="-1.0428">
        <ele>88</ele>
        <time>2017-06-05T15:54:03Z</time>
      </trkpt>
      <trkpt lat="47.22235" lon="-1.04288">
        <ele>88</ele>
        <time>2017-06-05T15:54:05Z</time>
      </trkpt>
      <trkpt lat="47.22248" lon="-1.04308">
        <ele>89</ele>
        <time>2017-06-05T15:54:11Z</time>
      </trkpt>
      <trkpt lat="47.22251" lon="-1.04307">
        <ele>89</ele>
        <time>2017-06-05T15:54:12Z</time>
      </trkpt>
      <trkpt lat="47.22254" lon="-1.04305">
        <ele>89</ele>
        <time>2017-06-05T15:54:13Z</time>
      </trkpt>
      <trkpt lat="47.22261" lon="-1.04301">
        <ele>89</ele>
        <time>2017-06-05T15:54:15Z</time>
      </trkpt>
      <trkpt lat="47.22267" lon="-1.04298">
        <ele>90</ele>
        <time>2017-06-05T15:54:17Z</time>
      </trkpt>
      <trkpt lat="47.22272" lon="-1.04297">
        <ele>90</ele>
        <time>2017-06-05T15:54:19Z</time>
      </trkpt>
      <trkpt lat="47.2228" lon="-1.04303">
        <ele>90</ele>
        <time>2017-06-05T15:54:22Z</time>
      </trkpt>
      <trkpt lat="47.22282" lon="-1.04306">
        <ele>90</ele>
        <time>2017-06-05T15:54:23Z</time>
      </trkpt>
      <trkpt lat="47.2229" lon="-1.04326">
        <ele>92</ele>
        <time>2017-06-05T15:54:28Z</time>
      </trkpt>
      <trkpt lat="47.22295" lon="-1.04343">
        <ele>93</ele>
        <time>2017-06-05T15:54:32Z</time>
      </trkpt>
      <trkpt lat="47.22299" lon="-1.04361">
        <ele>93</ele>
        <time>2017-06-05T15:54:36Z</time>
      </trkpt>
      <trkpt lat="47.22308" lon="-1.0438">
        <ele>93</ele>
        <time>2017-06-05T15:54:41Z</time>
      </trkpt>
      <trkpt lat="47.22311" lon="-1.04381">
        <ele>93</ele>
        <time>2017-06-05T15:54:42Z</time>
      </trkpt>
      <trkpt lat="47.22321" lon="-1.04376">
        <ele>94</ele>
        <time>2017-06-05T15:54:45Z</time>
      </trkpt>
      <trkpt lat="47.22325" lon="-1.04374">
        <ele>94</ele>
        <time>2017-06-05T15:54:46Z</time>
      </trkpt>
      <trkpt lat="47.22363" lon="-1.04355">
        <ele>95</ele>
        <time>2017-06-05T15:54:56Z</time>
      </trkpt>
      <trkpt lat="47.22367" lon="-1.04355">
        <ele>95</ele>
        <time>2017-06-05T15:54:57Z</time>
      </trkpt>
      <trkpt lat="47.22377" lon="-1.04359">
        <ele>95</ele>
        <time>2017-06-05T15:55:00Z</time>
      </trkpt>
      <trkpt lat="47.22389" lon="-1.04381">
        <ele>95</ele>
        <time>2017-06-05T15:55:05Z</time>
      </trkpt>
      <trkpt lat="47.22389" lon="-1.04386">
        <ele>95</ele>
        <time>2017-06-05T15:55:06Z</time>
      </trkpt>
      <trkpt lat="47.22388" lon="-1.04397">
        <ele>95</ele>
        <time>2017-06-05T15:55:08Z</time>
      </trkpt>
      <trkpt lat="47.22389" lon="-1.04409">
        <ele>96</ele>
        <time>2017-06-05T15:55:10Z</time>
      </trkpt>
      <trkpt lat="47.2239" lon="-1.04414">
        <ele>96</ele>
        <time>2017-06-05T15:55:11Z</time>
      </trkpt>
      <trkpt lat="47.22391" lon="-1.04436">
        <ele>96</ele>
        <time>2017-06-05T15:55:15Z</time>
      </trkpt>
      <trkpt lat="47.22393" lon="-1.0444">
        <ele>96</ele>
        <time>2017-06-05T15:55:16Z</time>
      </trkpt>
      <trkpt lat="47.22398" lon="-1.04442">
        <ele>96</ele>
        <time>2017-06-05T15:55:18Z</time>
      </trkpt>
      <trkpt lat="47.22407" lon="-1.04437">
        <ele>96</ele>
        <time>2017-06-05T15:55:21Z</time>
      </trkpt>
      <trkpt lat="47.2241" lon="-1.04435">
        <ele>96</ele>
        <time>2017-06-05T15:55:22Z</time>
      </trkpt>
      <trkpt lat="47.2244" lon="-1.04419">
        <ele>96</ele>
        <time>2017-06-05T15:55:30Z</time>
      </trkpt>
      <trkpt lat="47.2247" lon="-1.04404">
        <ele>95</ele>
        <time>2017-06-05T15:55:37Z</time>
      </trkpt>
      <trkpt lat="47.22474" lon="-1.04403">
        <ele>95</ele>
        <time>2017-06-05T15:55:38Z</time>
      </trkpt>
      <trkpt lat="47.22479" lon="-1.04401">
        <ele>95</ele>
        <time>2017-06-05T15:55:39Z</time>
      </trkpt>
      <trkpt lat="47.22495" lon="-1.04399">
        <ele>95</ele>
        <time>2017-06-05T15:55:43Z</time>
      </trkpt>
      <trkpt lat="47.22499" lon="-1.04401">
        <ele>95</ele>
        <time>2017-06-05T15:55:44Z</time>
      </trkpt>
      <trkpt lat="47.22503" lon="-1.04413">
        <ele>95</ele>
        <time>2017-06-05T15:55:47Z</time>
      </trkpt>
      <trkpt lat="47.22504" lon="-1.04418">
        <ele>95</ele>
        <time>2017-06-05T15:55:48Z</time>
      </trkpt>
      <trkpt lat="47.22513" lon="-1.04435">
        <ele>95</ele>
        <time>2017-06-05T15:55:52Z</time>
      </trkpt>
      <trkpt lat="47.22524" lon="-1.04442">
        <ele>94</ele>
        <time>2017-06-05T15:55:56Z</time>
      </trkpt>
      <trkpt lat="47.22538" lon="-1.04448">
        <ele>94</ele>
        <time>2017-06-05T15:56:03Z</time>
      </trkpt>
      <trkpt lat="47.22542" lon="-1.0445">
        <ele>94</ele>
        <time>2017-06-05T15:56:05Z</time>
      </trkpt>
      <trkpt lat="47.22553" lon="-1.04454">
        <ele>93</ele>
        <time>2017-06-05T15:56:10Z</time>
      </trkpt>
      <trkpt lat="47.2257" lon="-1.04461">
        <ele>93</ele>
        <time>2017-06-05T15:56:18Z</time>
      </trkpt>
      <trkpt lat="47.22586" lon="-1.04467">
        <ele>92</ele>
        <time>2017-06-05T15:56:25Z</time>
      </trkpt>
      <trkpt lat="47.22587" lon="-1.04468">
        <ele>92</ele>
        <time>2017-06-05T15:56:26Z</time>
      </trkpt>
      <trkpt lat="47.22598" lon="-1.04473">
        <ele>92</ele>
        <time>2017-06-05T15:56:32Z</time>
      </trkpt>
      <trkpt lat="47.22613" lon="-1.0448">
        <ele>91</ele>
        <time>2017-06-05T15:56:38Z</time>
      </trkpt>
      <trkpt lat="47.22636" lon="-1.04493">
        <ele>91</ele>
        <time>2017-06-05T15:56:44Z</time>
      </trkpt>
      <trkpt lat="47.22643" lon="-1.04498">
        <ele>90</ele>
        <time>2017-06-05T15:56:46Z</time>
      </trkpt>
      <trkpt lat="47.22655" lon="-1.04504">
        <ele>90</ele>
        <time>2017-06-05T15:56:49Z</time>
      </trkpt>
      <trkpt lat="47.22661" lon="-1.04508">
        <ele>89</ele>
        <time>2017-06-05T15:56:51Z</time>
      </trkpt>
      <trkpt lat="47.22668" lon="-1.04513">
        <ele>88</ele>
        <time>2017-06-05T15:56:53Z</time>
      </trkpt>
      <trkpt lat="47.22677" lon="-1.04531">
        <ele>87</ele>
        <time>2017-06-05T15:56:57Z</time>
      </trkpt>
      <trkpt lat="47.22678" lon="-1.04543">
        <ele>87</ele>
        <time>2017-06-05T15:56:59Z</time>
      </trkpt>
      <trkpt lat="47.22679" lon="-1.0456">
        <ele>86</ele>
        <time>2017-06-05T15:57:02Z</time>
      </trkpt>
      <trkpt lat="47.22679" lon="-1.04566">
        <ele>86</ele>
        <time>2017-06-05T15:57:03Z</time>
      </trkpt>
      <trkpt lat="47.22679" lon="-1.04572">
        <ele>86</ele>
        <time>2017-06-05T15:57:04Z</time>
      </trkpt>
      <trkpt lat="47.22678" lon="-1.04605">
        <ele>85</ele>
        <time>2017-06-05T15:57:09Z</time>
      </trkpt>
      <trkpt lat="47.22678" lon="-1.04617">
        <ele>85</ele>
        <time>2017-06-05T15:57:11Z</time>
      </trkpt>
      <trkpt lat="47.2268" lon="-1.04641">
        <ele>84</ele>
        <time>2017-06-05T15:57:16Z</time>
      </trkpt>
      <trkpt lat="47.22689" lon="-1.0465">
        <ele>82</ele>
        <time>2017-06-05T15:57:20Z</time>
      </trkpt>
      <trkpt lat="47.22704" lon="-1.04656">
        <ele>81</ele>
        <time>2017-06-05T15:57:24Z</time>
      </trkpt>
      <trkpt lat="47.22718" lon="-1.0466">
        <ele>80</ele>
        <time>2017-06-05T15:57:27Z</time>
      </trkpt>
      <trkpt lat="47.22722" lon="-1.04662">
        <ele>80</ele>
        <time>2017-06-05T15:57:28Z</time>
      </trkpt>
      <trkpt lat="47.22736" lon="-1.04667">
        <ele>79</ele>
        <time>2017-06-05T15:57:31Z</time>
      </trkpt>
      <trkpt lat="47.22743" lon="-1.04671">
        <ele>78</ele>
        <time>2017-06-05T15:57:33Z</time>
      </trkpt>
      <trkpt lat="47.2275" lon="-1.04675">
        <ele>77</ele>
        <time>2017-06-05T15:57:35Z</time>
      </trkpt>
      <trkpt lat="47.22754" lon="-1.04677">
        <ele>77</ele>
        <time>2017-06-05T15:57:36Z</time>
      </trkpt>
      <trkpt lat="47.22762" lon="-1.04686">
        <ele>75</ele>
        <time>2017-06-05T15:57:39Z</time>
      </trkpt>
      <trkpt lat="47.22764" lon="-1.04691">
        <ele>75</ele>
        <time>2017-06-05T15:57:40Z</time>
      </trkpt>
      <trkpt lat="47.22766" lon="-1.04696">
        <ele>74</ele>
        <time>2017-06-05T15:57:41Z</time>
      </trkpt>
      <trkpt lat="47.2277" lon="-1.0471">
        <ele>73</ele>
        <time>2017-06-05T15:57:44Z</time>
      </trkpt>
      <trkpt lat="47.22774" lon="-1.0472">
        <ele>72</ele>
        <time>2017-06-05T15:57:46Z</time>
      </trkpt>
      <trkpt lat="47.22775" lon="-1.04725">
        <ele>72</ele>
        <time>2017-06-05T15:57:47Z</time>
      </trkpt>
      <trkpt lat="47.22778" lon="-1.04742">
        <ele>71</ele>
        <time>2017-06-05T15:57:50Z</time>
      </trkpt>
      <trkpt lat="47.2278" lon="-1.04754">
        <ele>70</ele>
        <time>2017-06-05T15:57:52Z</time>
      </trkpt>
      <trkpt lat="47.22781" lon="-1.04759">
        <ele>69</ele>
        <time>2017-06-05T15:57:53Z</time>
      </trkpt>
      <trkpt lat="47.22783" lon="-1.04779">
        <ele>68</ele>
        <time>2017-06-05T15:57:56Z</time>
      </trkpt>
      <trkpt lat="47.22785" lon="-1.04785">
        <ele>68</ele>
        <time>2017-06-05T15:57:57Z</time>
      </trkpt>
      <trkpt lat="47.22786" lon="-1.04797">
        <ele>67</ele>
        <time>2017-06-05T15:57:59Z</time>
      </trkpt>
      <trkpt lat="47.22789" lon="-1.04813">
        <ele>65</ele>
        <time>2017-06-05T15:58:02Z</time>
      </trkpt>
      <trkpt lat="47.2279" lon="-1.04822">
        <ele>64</ele>
        <time>2017-06-05T15:58:04Z</time>
      </trkpt>
      <trkpt lat="47.2279" lon="-1.04827">
        <ele>63</ele>
        <time>2017-06-05T15:58:05Z</time>
      </trkpt>
      <trkpt lat="47.22791" lon="-1.04832">
        <ele>63</ele>
        <time>2017-06-05T15:58:06Z</time>
      </trkpt>
      <trkpt lat="47.22791" lon="-1.04841">
        <ele>62</ele>
        <time>2017-06-05T15:58:08Z</time>
      </trkpt>
      <trkpt lat="47.22789" lon="-1.04847">
        <ele>61</ele>
        <time>2017-06-05T15:58:10Z</time>
      </trkpt>
      <trkpt lat="47.22788" lon="-1.04849">
        <ele>60</ele>
        <time>2017-06-05T15:58:11Z</time>
      </trkpt>
      <trkpt lat="47.22785" lon="-1.04854">
        <ele>59</ele>
        <time>2017-06-05T15:58:13Z</time>
      </trkpt>
      <trkpt lat="47.22783" lon="-1.04859">
        <ele>58</ele>
        <time>2017-06-05T15:58:15Z</time>
      </trkpt>
      <trkpt lat="47.22781" lon="-1.04863">
        <ele>57</ele>
        <time>2017-06-05T15:58:17Z</time>
      </trkpt>
      <trkpt lat="47.22779" lon="-1.0487">
        <ele>56</ele>
        <time>2017-06-05T15:58:20Z</time>
      </trkpt>
      <trkpt lat="47.22776" lon="-1.04877">
        <ele>55</ele>
        <time>2017-06-05T15:58:23Z</time>
      </trkpt>
      <trkpt lat="47.22797" lon="-1.04908">
        <ele>49</ele>
        <time>2017-06-05T15:59:47Z</time>
      </trkpt>
      <trkpt lat="47.22799" lon="-1.04908">
        <ele>49</ele>
        <time>2017-06-05T15:59:48Z</time>
      </trkpt>
      <trkpt lat="47.22806" lon="-1.04909">
        <ele>49</ele>
        <time>2017-06-05T15:59:53Z</time>
      </trkpt>
      <trkpt lat="47.2281" lon="-1.0491">
        <ele>48</ele>
        <time>2017-06-05T15:59:56Z</time>
      </trkpt>
      <trkpt lat="47.22813" lon="-1.04911">
        <ele>48</ele>
        <time>2017-06-05T15:59:59Z</time>
      </trkpt>
      <trkpt lat="47.22826" lon="-1.04911">
        <ele>48</ele>
        <time>2017-06-05T16:00:57Z</time>
      </trkpt>
      <trkpt lat="47.22831" lon="-1.04905">
        <ele>48</ele>
        <time>2017-06-05T16:01:00Z</time>
      </trkpt>
      <trkpt lat="47.22833" lon="-1.04903">
        <ele>48</ele>
        <time>2017-06-05T16:01:01Z</time>
      </trkpt>
      <trkpt lat="47.2284" lon="-1.04892">
        <ele>49</ele>
        <time>2017-06-05T16:01:07Z</time>
      </trkpt>
      <trkpt lat="47.22841" lon="-1.04891">
        <ele>49</ele>
        <time>2017-06-05T16:01:08Z</time>
      </trkpt>
      <trkpt lat="47.22878" lon="-1.04838">
        <ele>53</ele>
        <time>2017-06-05T16:01:56Z</time>
      </trkpt>
      <trkpt lat="47.22884" lon="-1.04826">
        <ele>54</ele>
        <time>2017-06-05T16:02:01Z</time>
      </trkpt>
      <trkpt lat="47.22885" lon="-1.04824">
        <ele>54</ele>
        <time>2017-06-05T16:02:02Z</time>
      </trkpt>
      <trkpt lat="47.22886" lon="-1.0482">
        <ele>54</ele>
        <time>2017-06-05T16:02:04Z</time>
      </trkpt>
      <trkpt lat="47.22887" lon="-1.04818">
        <ele>54</ele>
        <time>2017-06-05T16:02:05Z</time>
      </trkpt>
      <trkpt lat="47.22909" lon="-1.04762">
        <ele>60</ele>
        <time>2017-06-05T16:02:34Z</time>
      </trkpt>
      <trkpt lat="47.22971" lon="-1.04715">
        <ele>72</ele>
        <time>2017-06-05T16:04:09Z</time>
      </trkpt>
      <trkpt lat="47.22973" lon="-1.04715">
        <ele>73</ele>
        <time>2017-06-05T16:04:10Z</time>
      </trkpt>
      <trkpt lat="47.22981" lon="-1.04718">
        <ele>73</ele>
        <time>2017-06-05T16:04:17Z</time>
      </trkpt>
      <trkpt lat="47.22993" lon="-1.04724">
        <ele>74</ele>
        <time>2017-06-05T16:04:23Z</time>
      </trkpt>
      <trkpt lat="47.22998" lon="-1.04727">
        <ele>75</ele>
        <time>2017-06-05T16:04:26Z</time>
      </trkpt>
      <trkpt lat="47.23006" lon="-1.04732">
        <ele>76</ele>
        <time>2017-06-05T16:04:30Z</time>
      </trkpt>
      <trkpt lat="47.23016" lon="-1.04738">
        <ele>76</ele>
        <time>2017-06-05T16:04:35Z</time>
      </trkpt>
      <trkpt lat="47.2302" lon="-1.04741">
        <ele>77</ele>
        <time>2017-06-05T16:04:37Z</time>
      </trkpt>
      <trkpt lat="47.23033" lon="-1.04751">
        <ele>78</ele>
        <time>2017-06-05T16:04:43Z</time>
      </trkpt>
      <trkpt lat="47.23045" lon="-1.04757">
        <ele>79</ele>
        <time>2017-06-05T16:04:49Z</time>
      </trkpt>
      <trkpt lat="47.23046" lon="-1.04758">
        <ele>79</ele>
        <time>2017-06-05T16:04:50Z</time>
      </trkpt>
      <trkpt lat="47.23057" lon="-1.04764">
        <ele>80</ele>
        <time>2017-06-05T16:04:56Z</time>
      </trkpt>
      <trkpt lat="47.23061" lon="-1.04767">
        <ele>80</ele>
        <time>2017-06-05T16:04:58Z</time>
      </trkpt>
      <trkpt lat="47.23067" lon="-1.04772">
        <ele>81</ele>
        <time>2017-06-05T16:05:02Z</time>
      </trkpt>
      <trkpt lat="47.23074" lon="-1.04776">
        <ele>82</ele>
        <time>2017-06-05T16:05:06Z</time>
      </trkpt>
      <trkpt lat="47.23083" lon="-1.04784">
        <ele>82</ele>
        <time>2017-06-05T16:05:11Z</time>
      </trkpt>
      <trkpt lat="47.23088" lon="-1.04789">
        <ele>83</ele>
        <time>2017-06-05T16:05:14Z</time>
      </trkpt>
      <trkpt lat="47.23096" lon="-1.04798">
        <ele>83</ele>
        <time>2017-06-05T16:05:20Z</time>
      </trkpt>
      <trkpt lat="47.23097" lon="-1.04801">
        <ele>84</ele>
        <time>2017-06-05T16:05:22Z</time>
      </trkpt>
      <trkpt lat="47.231" lon="-1.04804">
        <ele>84</ele>
        <time>2017-06-05T16:05:29Z</time>
      </trkpt>
      <trkpt lat="47.23104" lon="-1.0481">
        <ele>85</ele>
        <time>2017-06-05T16:05:32Z</time>
      </trkpt>
      <trkpt lat="47.23113" lon="-1.04825">
        <ele>86</ele>
        <time>2017-06-05T16:05:39Z</time>
      </trkpt>
      <trkpt lat="47.23115" lon="-1.04828">
        <ele>86</ele>
        <time>2017-06-05T16:05:41Z</time>
      </trkpt>
      <trkpt lat="47.23123" lon="-1.04844">
        <ele>87</ele>
        <time>2017-06-05T16:05:48Z</time>
      </trkpt>
      <trkpt lat="47.23124" lon="-1.04845">
        <ele>87</ele>
        <time>2017-06-05T16:05:49Z</time>
      </trkpt>
      <trkpt lat="47.23131" lon="-1.04854">
        <ele>88</ele>
        <time>2017-06-05T16:05:54Z</time>
      </trkpt>
      <trkpt lat="47.23133" lon="-1.04856">
        <ele>88</ele>
        <time>2017-06-05T16:05:55Z</time>
      </trkpt>
      <trkpt lat="47.23147" lon="-1.04871">
        <ele>89</ele>
        <time>2017-06-05T16:06:03Z</time>
      </trkpt>
      <trkpt lat="47.23157" lon="-1.04879">
        <ele>89</ele>
        <time>2017-06-05T16:06:08Z</time>
      </trkpt>
      <trkpt lat="47.23163" lon="-1.04884">
        <ele>89</ele>
        <time>2017-06-05T16:06:11Z</time>
      </trkpt>
      <trkpt lat="47.23174" lon="-1.04893">
        <ele>90</ele>
        <time>2017-06-05T16:06:16Z</time>
      </trkpt>
      <trkpt lat="47.23182" lon="-1.049">
        <ele>90</ele>
        <time>2017-06-05T16:06:20Z</time>
      </trkpt>
      <trkpt lat="47.23195" lon="-1.04906">
        <ele>91</ele>
        <time>2017-06-05T16:06:26Z</time>
      </trkpt>
      <trkpt lat="47.23197" lon="-1.04905">
        <ele>91</ele>
        <time>2017-06-05T16:06:27Z</time>
      </trkpt>
      <trkpt lat="47.23199" lon="-1.04903">
        <ele>92</ele>
        <time>2017-06-05T16:06:28Z</time>
      </trkpt>
      <trkpt lat="47.23203" lon="-1.049">
        <ele>92</ele>
        <time>2017-06-05T16:06:30Z</time>
      </trkpt>
      <trkpt lat="47.23217" lon="-1.04893">
        <ele>93</ele>
        <time>2017-06-05T16:06:36Z</time>
      </trkpt>
      <trkpt lat="47.2324" lon="-1.04879">
        <ele>93</ele>
        <time>2017-06-05T16:06:44Z</time>
      </trkpt>
      <trkpt lat="47.2324" lon="-1.04875">
        <ele>93</ele>
        <time>2017-06-05T16:06:45Z</time>
      </trkpt>
      <trkpt lat="47.23239" lon="-1.04865">
        <ele>93</ele>
        <time>2017-06-05T16:06:47Z</time>
      </trkpt>
      <trkpt lat="47.23244" lon="-1.0484">
        <ele>93</ele>
        <time>2017-06-05T16:06:52Z</time>
      </trkpt>
      <trkpt lat="47.23246" lon="-1.04835">
        <ele>93</ele>
        <time>2017-06-05T16:06:53Z</time>
      </trkpt>
      <trkpt lat="47.23256" lon="-1.0481">
        <ele>94</ele>
        <time>2017-06-05T16:06:58Z</time>
      </trkpt>
      <trkpt lat="47.2326" lon="-1.048">
        <ele>94</ele>
        <time>2017-06-05T16:07:00Z</time>
      </trkpt>
      <trkpt lat="47.23266" lon="-1.04783">
        <ele>94</ele>
        <time>2017-06-05T16:07:03Z</time>
      </trkpt>
      <trkpt lat="47.23276" lon="-1.04756">
        <ele>93</ele>
        <time>2017-06-05T16:07:08Z</time>
      </trkpt>
      <trkpt lat="47.23291" lon="-1.04716">
        <ele>93</ele>
        <time>2017-06-05T16:07:15Z</time>
      </trkpt>
      <trkpt lat="47.23296" lon="-1.04704">
        <ele>93</ele>
        <time>2017-06-05T16:07:17Z</time>
      </trkpt>
      <trkpt lat="47.23316" lon="-1.04653">
        <ele>92</ele>
        <time>2017-06-05T16:07:26Z</time>
      </trkpt>
      <trkpt lat="47.23326" lon="-1.04626">
        <ele>92</ele>
        <time>2017-06-05T16:07:31Z</time>
      </trkpt>
      <trkpt lat="47.23328" lon="-1.04621">
        <ele>92</ele>
        <time>2017-06-05T16:07:32Z</time>
      </trkpt>
      <trkpt lat="47.23331" lon="-1.04615">
        <ele>92</ele>
        <time>2017-06-05T16:07:33Z</time>
      </trkpt>
      <trkpt lat="47.23351" lon="-1.04563">
        <ele>91</ele>
        <time>2017-06-05T16:07:41Z</time>
      </trkpt>
      <trkpt lat="47.23354" lon="-1.04556">
        <ele>91</ele>
        <time>2017-06-05T16:07:42Z</time>
      </trkpt>
      <trkpt lat="47.2336" lon="-1.04541">
        <ele>91</ele>
        <time>2017-06-05T16:07:44Z</time>
      </trkpt>
      <trkpt lat="47.23377" lon="-1.04502">
        <ele>90</ele>
        <time>2017-06-05T16:07:49Z</time>
      </trkpt>
      <trkpt lat="47.23387" lon="-1.04481">
        <ele>89</ele>
        <time>2017-06-05T16:07:52Z</time>
      </trkpt>
      <trkpt lat="47.23391" lon="-1.04471">
        <ele>89</ele>
        <time>2017-06-05T16:07:54Z</time>
      </trkpt>
      <trkpt lat="47.23398" lon="-1.04455">
        <ele>88</ele>
        <time>2017-06-05T16:07:58Z</time>
      </trkpt>
      <trkpt lat="47.23403" lon="-1.04447">
        <ele>87</ele>
        <time>2017-06-05T16:08:00Z</time>
      </trkpt>
      <trkpt lat="47.23417" lon="-1.04448">
        <ele>87</ele>
        <time>2017-06-05T16:08:04Z</time>
      </trkpt>
      <trkpt lat="47.23422" lon="-1.04456">
        <ele>87</ele>
        <time>2017-06-05T16:08:06Z</time>
      </trkpt>
      <trkpt lat="47.23427" lon="-1.04464">
        <ele>87</ele>
        <time>2017-06-05T16:08:08Z</time>
      </trkpt>
      <trkpt lat="47.2343" lon="-1.04469">
        <ele>87</ele>
        <time>2017-06-05T16:08:09Z</time>
      </trkpt>
      <trkpt lat="47.23435" lon="-1.04477">
        <ele>88</ele>
        <time>2017-06-05T16:08:11Z</time>
      </trkpt>
      <trkpt lat="47.23449" lon="-1.04501">
        <ele>89</ele>
        <time>2017-06-05T16:08:17Z</time>
      </trkpt>
      <trkpt lat="47.23457" lon="-1.04511">
        <ele>90</ele>
        <time>2017-06-05T16:08:20Z</time>
      </trkpt>
      <trkpt lat="47.23465" lon="-1.04519">
        <ele>90</ele>
        <time>2017-06-05T16:08:23Z</time>
      </trkpt>
      <trkpt lat="47.23476" lon="-1.0453">
        <ele>91</ele>
        <time>2017-06-05T16:08:27Z</time>
      </trkpt>
      <trkpt lat="47.23483" lon="-1.04534">
        <ele>91</ele>
        <time>2017-06-05T16:08:29Z</time>
      </trkpt>
      <trkpt lat="47.23497" lon="-1.04543">
        <ele>92</ele>
        <time>2017-06-05T16:08:34Z</time>
      </trkpt>
      <trkpt lat="47.23514" lon="-1.04551">
        <ele>93</ele>
        <time>2017-06-05T16:08:39Z</time>
      </trkpt>
      <trkpt lat="47.23524" lon="-1.04557">
        <ele>93</ele>
        <time>2017-06-05T16:08:42Z</time>
      </trkpt>
      <trkpt lat="47.23545" lon="-1.04569">
        <ele>94</ele>
        <time>2017-06-05T16:08:48Z</time>
      </trkpt>
      <trkpt lat="47.23549" lon="-1.04571">
        <ele>94</ele>
        <time>2017-06-05T16:08:49Z</time>
      </trkpt>
      <trkpt lat="47.2357" lon="-1.04584">
        <ele>95</ele>
        <time>2017-06-05T16:08:55Z</time>
      </trkpt>
      <trkpt lat="47.23584" lon="-1.04593">
        <ele>96</ele>
        <time>2017-06-05T16:08:59Z</time>
      </trkpt>
      <trkpt lat="47.23611" lon="-1.04618">
        <ele>96</ele>
        <time>2017-06-05T16:09:07Z</time>
      </trkpt>
      <trkpt lat="47.23614" lon="-1.04621">
        <ele>96</ele>
        <time>2017-06-05T16:09:08Z</time>
      </trkpt>
      <trkpt lat="47.23633" lon="-1.04643">
        <ele>97</ele>
        <time>2017-06-05T16:09:14Z</time>
      </trkpt>
      <trkpt lat="47.23644" lon="-1.04658">
        <ele>98</ele>
        <time>2017-06-05T16:09:18Z</time>
      </trkpt>
      <trkpt lat="47.23678" lon="-1.04698">
        <ele>98</ele>
        <time>2017-06-05T16:09:29Z</time>
      </trkpt>
      <trkpt lat="47.23702" lon="-1.04727">
        <ele>98</ele>
        <time>2017-06-05T16:09:37Z</time>
      </trkpt>
      <trkpt lat="47.23705" lon="-1.04731">
        <ele>98</ele>
        <time>2017-06-05T16:09:38Z</time>
      </trkpt>
      <trkpt lat="47.23713" lon="-1.04734">
        <ele>98</ele>
        <time>2017-06-05T16:09:40Z</time>
      </trkpt>
      <trkpt lat="47.23717" lon="-1.04731">
        <ele>98</ele>
        <time>2017-06-05T16:09:41Z</time>
      </trkpt>
      <trkpt lat="47.23719" lon="-1.04725">
        <ele>98</ele>
        <time>2017-06-05T16:09:42Z</time>
      </trkpt>
      <trkpt lat="47.23722" lon="-1.04702">
        <ele>98</ele>
        <time>2017-06-05T16:09:45Z</time>
      </trkpt>
      <trkpt lat="47.23724" lon="-1.04687">
        <ele>97</ele>
        <time>2017-06-05T16:09:47Z</time>
      </trkpt>
      <trkpt lat="47.23728" lon="-1.04661">
        <ele>96</ele>
        <time>2017-06-05T16:09:50Z</time>
      </trkpt>
      <trkpt lat="47.2373" lon="-1.04652">
        <ele>96</ele>
        <time>2017-06-05T16:09:51Z</time>
      </trkpt>
      <trkpt lat="47.23731" lon="-1.04643">
        <ele>96</ele>
        <time>2017-06-05T16:09:52Z</time>
      </trkpt>
      <trkpt lat="47.23738" lon="-1.04603">
        <ele>95</ele>
        <time>2017-06-05T16:09:56Z</time>
      </trkpt>
      <trkpt lat="47.2374" lon="-1.04593">
        <ele>95</ele>
        <time>2017-06-05T16:09:57Z</time>
      </trkpt>
      <trkpt lat="47.23742" lon="-1.04583">
        <ele>95</ele>
        <time>2017-06-05T16:09:58Z</time>
      </trkpt>
      <trkpt lat="47.23747" lon="-1.0455">
        <ele>94</ele>
        <time>2017-06-05T16:10:01Z</time>
      </trkpt>
      <trkpt lat="47.23753" lon="-1.04516">
        <ele>94</ele>
        <time>2017-06-05T16:10:04Z</time>
      </trkpt>
      <trkpt lat="47.23757" lon="-1.04492">
        <ele>93</ele>
        <time>2017-06-05T16:10:06Z</time>
      </trkpt>
      <trkpt lat="47.23765" lon="-1.04455">
        <ele>93</ele>
        <time>2017-06-05T16:10:09Z</time>
      </trkpt>
      <trkpt lat="47.23776" lon="-1.04403">
        <ele>92</ele>
        <time>2017-06-05T16:10:13Z</time>
      </trkpt>
      <trkpt lat="47.2378" lon="-1.04389">
        <ele>92</ele>
        <time>2017-06-05T16:10:14Z</time>
      </trkpt>
      <trkpt lat="47.23789" lon="-1.04348">
        <ele>91</ele>
        <time>2017-06-05T16:10:17Z</time>
      </trkpt>
      <trkpt lat="47.23797" lon="-1.0431">
        <ele>89</ele>
        <time>2017-06-05T16:10:20Z</time>
      </trkpt>
      <trkpt lat="47.23804" lon="-1.04279">
        <ele>88</ele>
        <time>2017-06-05T16:10:23Z</time>
      </trkpt>
      <trkpt lat="47.23809" lon="-1.0426">
        <ele>87</ele>
        <time>2017-06-05T16:10:25Z</time>
      </trkpt>
      <trkpt lat="47.23811" lon="-1.04251">
        <ele>87</ele>
        <time>2017-06-05T16:10:26Z</time>
      </trkpt>
      <trkpt lat="47.23817" lon="-1.04223">
        <ele>86</ele>
        <time>2017-06-05T16:10:29Z</time>
      </trkpt>
      <trkpt lat="47.23822" lon="-1.0419">
        <ele>84</ele>
        <time>2017-06-05T16:10:33Z</time>
      </trkpt>
      <trkpt lat="47.23822" lon="-1.04181">
        <ele>84</ele>
        <time>2017-06-05T16:10:34Z</time>
      </trkpt>
      <trkpt lat="47.23821" lon="-1.04161">
        <ele>84</ele>
        <time>2017-06-05T16:10:37Z</time>
      </trkpt>
      <trkpt lat="47.23822" lon="-1.04158">
        <ele>83</ele>
        <time>2017-06-05T16:10:38Z</time>
      </trkpt>
      <trkpt lat="47.23827" lon="-1.04155">
        <ele>83</ele>
        <time>2017-06-05T16:10:40Z</time>
      </trkpt>
      <trkpt lat="47.2383" lon="-1.04155">
        <ele>82</ele>
        <time>2017-06-05T16:10:42Z</time>
      </trkpt>
      <trkpt lat="47.23832" lon="-1.04154">
        <ele>82</ele>
        <time>2017-06-05T16:10:43Z</time>
      </trkpt>
      <trkpt lat="47.23836" lon="-1.04153">
        <ele>83</ele>
        <time>2017-06-05T16:10:45Z</time>
      </trkpt>
      <trkpt lat="47.2384" lon="-1.04152">
        <ele>83</ele>
        <time>2017-06-05T16:10:47Z</time>
      </trkpt>
      <trkpt lat="47.23843" lon="-1.0415">
        <ele>84</ele>
        <time>2017-06-05T16:10:49Z</time>
      </trkpt>
      <trkpt lat="47.23847" lon="-1.04149">
        <ele>84</ele>
        <time>2017-06-05T16:10:51Z</time>
      </trkpt>
      <trkpt lat="47.23849" lon="-1.04148">
        <ele>85</ele>
        <time>2017-06-05T16:10:52Z</time>
      </trkpt>
      <trkpt lat="47.23853" lon="-1.04147">
        <ele>86</ele>
        <time>2017-06-05T16:10:54Z</time>
      </trkpt>
      <trkpt lat="47.23858" lon="-1.04145">
        <ele>87</ele>
        <time>2017-06-05T16:10:57Z</time>
      </trkpt>
      <trkpt lat="47.23861" lon="-1.04144">
        <ele>87</ele>
        <time>2017-06-05T16:10:58Z</time>
      </trkpt>
      <trkpt lat="47.23874" lon="-1.04137">
        <ele>88</ele>
        <time>2017-06-05T16:11:03Z</time>
      </trkpt>
      <trkpt lat="47.23877" lon="-1.04135">
        <ele>88</ele>
        <time>2017-06-05T16:11:04Z</time>
      </trkpt>
      <trkpt lat="47.23893" lon="-1.04129">
        <ele>88</ele>
        <time>2017-06-05T16:11:08Z</time>
      </trkpt>
      <trkpt lat="47.23897" lon="-1.04125">
        <ele>88</ele>
        <time>2017-06-05T16:11:09Z</time>
      </trkpt>
      <trkpt lat="47.2391" lon="-1.04118">
        <ele>88</ele>
        <time>2017-06-05T16:11:13Z</time>
      </trkpt>
      <trkpt lat="47.23936" lon="-1.04108">
        <ele>87</ele>
        <time>2017-06-05T16:11:22Z</time>
      </trkpt>
      <trkpt lat="47.23939" lon="-1.04106">
        <ele>87</ele>
        <time>2017-06-05T16:11:23Z</time>
      </trkpt>
      <trkpt lat="47.23947" lon="-1.04101">
        <ele>86</ele>
        <time>2017-06-05T16:11:26Z</time>
      </trkpt>
      <trkpt lat="47.23949" lon="-1.04099">
        <ele>85</ele>
        <time>2017-06-05T16:11:27Z</time>
      </trkpt>
      <trkpt lat="47.23954" lon="-1.04094">
        <ele>85</ele>
        <time>2017-06-05T16:11:29Z</time>
      </trkpt>
      <trkpt lat="47.23959" lon="-1.04085">
        <ele>84</ele>
        <time>2017-06-05T16:11:31Z</time>
      </trkpt>
      <trkpt lat="47.23964" lon="-1.04069">
        <ele>83</ele>
        <time>2017-06-05T16:11:34Z</time>
      </trkpt>
      <trkpt lat="47.23966" lon="-1.04064">
        <ele>83</ele>
        <time>2017-06-05T16:11:35Z</time>
      </trkpt>
      <trkpt lat="47.23972" lon="-1.04043">
        <ele>82</ele>
        <time>2017-06-05T16:11:39Z</time>
      </trkpt>
      <trkpt lat="47.23978" lon="-1.04025">
        <ele>82</ele>
        <time>2017-06-05T16:11:42Z</time>
      </trkpt>
      <trkpt lat="47.23981" lon="-1.04014">
        <ele>82</ele>
        <time>2017-06-05T16:11:44Z</time>
      </trkpt>
      <trkpt lat="47.23987" lon="-1.03997">
        <ele>82</ele>
        <time>2017-06-05T16:11:47Z</time>
      </trkpt>
      <trkpt lat="47.23997" lon="-1.03957">
        <ele>81</ele>
        <time>2017-06-05T16:11:53Z</time>
      </trkpt>
      <trkpt lat="47.23998" lon="-1.03951">
        <ele>81</ele>
        <time>2017-06-05T16:11:54Z</time>
      </trkpt>
      <trkpt lat="47.24006" lon="-1.03925">
        <ele>80</ele>
        <time>2017-06-05T16:11:59Z</time>
      </trkpt>
      <trkpt lat="47.24007" lon="-1.03921">
        <ele>80</ele>
        <time>2017-06-05T16:12:00Z</time>
      </trkpt>
      <trkpt lat="47.24015" lon="-1.03919">
        <ele>80</ele>
        <time>2017-06-05T16:12:02Z</time>
      </trkpt>
      <trkpt lat="47.24036" lon="-1.03907">
        <ele>79</ele>
        <time>2017-06-05T16:12:07Z</time>
      </trkpt>
      <trkpt lat="47.24041" lon="-1.03904">
        <ele>79</ele>
        <time>2017-06-05T16:12:08Z</time>
      </trkpt>
      <trkpt lat="47.24061" lon="-1.03894">
        <ele>78</ele>
        <time>2017-06-05T16:12:12Z</time>
      </trkpt>
      <trkpt lat="47.24071" lon="-1.03889">
        <ele>77</ele>
        <time>2017-06-05T16:12:14Z</time>
      </trkpt>
      <trkpt lat="47.24076" lon="-1.03886">
        <ele>76</ele>
        <time>2017-06-05T16:12:15Z</time>
      </trkpt>
      <trkpt lat="47.24091" lon="-1.03879">
        <ele>75</ele>
        <time>2017-06-05T16:12:18Z</time>
      </trkpt>
      <trkpt lat="47.24101" lon="-1.03874">
        <ele>74</ele>
        <time>2017-06-05T16:12:20Z</time>
      </trkpt>
      <trkpt lat="47.24112" lon="-1.0387">
        <ele>73</ele>
        <time>2017-06-05T16:12:22Z</time>
      </trkpt>
      <trkpt lat="47.24128" lon="-1.03865">
        <ele>71</ele>
        <time>2017-06-05T16:12:25Z</time>
      </trkpt>
      <trkpt lat="47.24139" lon="-1.03861">
        <ele>70</ele>
        <time>2017-06-05T16:12:27Z</time>
      </trkpt>
      <trkpt lat="47.24144" lon="-1.0386">
        <ele>70</ele>
        <time>2017-06-05T16:12:28Z</time>
      </trkpt>
      <trkpt lat="47.2415" lon="-1.03858">
        <ele>69</ele>
        <time>2017-06-05T16:12:29Z</time>
      </trkpt>
      <trkpt lat="47.24161" lon="-1.03856">
        <ele>68</ele>
        <time>2017-06-05T16:12:31Z</time>
      </trkpt>
      <trkpt lat="47.24167" lon="-1.03855">
        <ele>67</ele>
        <time>2017-06-05T16:12:32Z</time>
      </trkpt>
      <trkpt lat="47.24177" lon="-1.03856">
        <ele>66</ele>
        <time>2017-06-05T16:12:34Z</time>
      </trkpt>
      <trkpt lat="47.24192" lon="-1.03861">
        <ele>65</ele>
        <time>2017-06-05T16:12:37Z</time>
      </trkpt>
      <trkpt lat="47.24202" lon="-1.03866">
        <ele>65</ele>
        <time>2017-06-05T16:12:39Z</time>
      </trkpt>
      <trkpt lat="47.24208" lon="-1.03868">
        <ele>64</ele>
        <time>2017-06-05T16:12:40Z</time>
      </trkpt>
      <trkpt lat="47.24219" lon="-1.03871">
        <ele>63</ele>
        <time>2017-06-05T16:12:42Z</time>
      </trkpt>
      <trkpt lat="47.2423" lon="-1.03875">
        <ele>62</ele>
        <time>2017-06-05T16:12:44Z</time>
      </trkpt>
      <trkpt lat="47.24235" lon="-1.03877">
        <ele>61</ele>
        <time>2017-06-05T16:12:45Z</time>
      </trkpt>
      <trkpt lat="47.2424" lon="-1.03878">
        <ele>60</ele>
        <time>2017-06-05T16:12:46Z</time>
      </trkpt>
      <trkpt lat="47.2425" lon="-1.03882">
        <ele>59</ele>
        <time>2017-06-05T16:12:48Z</time>
      </trkpt>
      <trkpt lat="47.24255" lon="-1.03884">
        <ele>58</ele>
        <time>2017-06-05T16:12:49Z</time>
      </trkpt>
      <trkpt lat="47.24259" lon="-1.03886">
        <ele>58</ele>
        <time>2017-06-05T16:12:50Z</time>
      </trkpt>
      <trkpt lat="47.24262" lon="-1.03889">
        <ele>57</ele>
        <time>2017-06-05T16:12:51Z</time>
      </trkpt>
      <trkpt lat="47.24266" lon="-1.03893">
        <ele>57</ele>
        <time>2017-06-05T16:12:52Z</time>
      </trkpt>
      <trkpt lat="47.24269" lon="-1.03898">
        <ele>57</ele>
        <time>2017-06-05T16:12:53Z</time>
      </trkpt>
      <trkpt lat="47.24274" lon="-1.03913">
        <ele>56</ele>
        <time>2017-06-05T16:12:55Z</time>
      </trkpt>
      <trkpt lat="47.24275" lon="-1.03922">
        <ele>55</ele>
        <time>2017-06-05T16:12:56Z</time>
      </trkpt>
      <trkpt lat="47.24283" lon="-1.03956">
        <ele>55</ele>
        <time>2017-06-05T16:13:00Z</time>
      </trkpt>
      <trkpt lat="47.24286" lon="-1.03963">
        <ele>55</ele>
        <time>2017-06-05T16:13:01Z</time>
      </trkpt>
      <trkpt lat="47.24288" lon="-1.0397">
        <ele>54</ele>
        <time>2017-06-05T16:13:02Z</time>
      </trkpt>
      <trkpt lat="47.24291" lon="-1.03977">
        <ele>54</ele>
        <time>2017-06-05T16:13:03Z</time>
      </trkpt>
      <trkpt lat="47.243" lon="-1.03995">
        <ele>53</ele>
        <time>2017-06-05T16:13:06Z</time>
      </trkpt>
      <trkpt lat="47.24305" lon="-1.04006">
        <ele>53</ele>
        <time>2017-06-05T16:13:08Z</time>
      </trkpt>
      <trkpt lat="47.24311" lon="-1.04023">
        <ele>53</ele>
        <time>2017-06-05T16:13:11Z</time>
      </trkpt>
      <trkpt lat="47.24313" lon="-1.04029">
        <ele>53</ele>
        <time>2017-06-05T16:13:12Z</time>
      </trkpt>
      <trkpt lat="47.24318" lon="-1.04039">
        <ele>54</ele>
        <time>2017-06-05T16:13:14Z</time>
      </trkpt>
      <trkpt lat="47.24324" lon="-1.04053">
        <ele>54</ele>
        <time>2017-06-05T16:13:17Z</time>
      </trkpt>
      <trkpt lat="47.24327" lon="-1.04062">
        <ele>55</ele>
        <time>2017-06-05T16:13:19Z</time>
      </trkpt>
      <trkpt lat="47.24331" lon="-1.0407">
        <ele>55</ele>
        <time>2017-06-05T16:13:21Z</time>
      </trkpt>
      <trkpt lat="47.24337" lon="-1.04083">
        <ele>56</ele>
        <time>2017-06-05T16:13:24Z</time>
      </trkpt>
      <trkpt lat="47.24339" lon="-1.04091">
        <ele>56</ele>
        <time>2017-06-05T16:13:26Z</time>
      </trkpt>
      <trkpt lat="47.24344" lon="-1.04103">
        <ele>56</ele>
        <time>2017-06-05T16:13:29Z</time>
      </trkpt>
      <trkpt lat="47.24347" lon="-1.0411">
        <ele>57</ele>
        <time>2017-06-05T16:13:31Z</time>
      </trkpt>
      <trkpt lat="47.24349" lon="-1.04114">
        <ele>57</ele>
        <time>2017-06-05T16:13:32Z</time>
      </trkpt>
      <trkpt lat="47.24355" lon="-1.04128">
        <ele>57</ele>
        <time>2017-06-05T16:13:36Z</time>
      </trkpt>
      <trkpt lat="47.24357" lon="-1.04136">
        <ele>58</ele>
        <time>2017-06-05T16:13:38Z</time>
      </trkpt>
      <trkpt lat="47.24359" lon="-1.0414">
        <ele>58</ele>
        <time>2017-06-05T16:13:39Z</time>
      </trkpt>
      <trkpt lat="47.24366" lon="-1.04154">
        <ele>59</ele>
        <time>2017-06-05T16:13:43Z</time>
      </trkpt>
      <trkpt lat="47.24371" lon="-1.04164">
        <ele>59</ele>
        <time>2017-06-05T16:13:46Z</time>
      </trkpt>
      <trkpt lat="47.24377" lon="-1.04173">
        <ele>60</ele>
        <time>2017-06-05T16:13:49Z</time>
      </trkpt>
      <trkpt lat="47.24383" lon="-1.04184">
        <ele>61</ele>
        <time>2017-06-05T16:13:53Z</time>
      </trkpt>
      <trkpt lat="47.24383" lon="-1.04187">
        <ele>61</ele>
        <time>2017-06-05T16:13:54Z</time>
      </trkpt>
      <trkpt lat="47.24381" lon="-1.04193">
        <ele>61</ele>
        <time>2017-06-05T16:13:56Z</time>
      </trkpt>
      <trkpt lat="47.24373" lon="-1.04195">
        <ele>62</ele>
        <time>2017-06-05T16:13:59Z</time>
      </trkpt>
      <trkpt lat="47.2437" lon="-1.04197">
        <ele>62</ele>
        <time>2017-06-05T16:14:00Z</time>
      </trkpt>
      <trkpt lat="47.24363" lon="-1.04209">
        <ele>63</ele>
        <time>2017-06-05T16:14:04Z</time>
      </trkpt>
      <trkpt lat="47.24363" lon="-1.04213">
        <ele>63</ele>
        <time>2017-06-05T16:14:05Z</time>
      </trkpt>
      <trkpt lat="47.24367" lon="-1.04225">
        <ele>63</ele>
        <time>2017-06-05T16:14:08Z</time>
      </trkpt>
      <trkpt lat="47.24379" lon="-1.04232">
        <ele>63</ele>
        <time>2017-06-05T16:14:12Z</time>
      </trkpt>
      <trkpt lat="47.24393" lon="-1.04231">
        <ele>62</ele>
        <time>2017-06-05T16:14:17Z</time>
      </trkpt>
      <trkpt lat="47.24403" lon="-1.0424">
        <ele>62</ele>
        <time>2017-06-05T16:14:21Z</time>
      </trkpt>
      <trkpt lat="47.24415" lon="-1.04266">
        <ele>63</ele>
        <time>2017-06-05T16:14:27Z</time>
      </trkpt>
      <trkpt lat="47.24428" lon="-1.04288">
        <ele>64</ele>
        <time>2017-06-05T16:14:34Z</time>
      </trkpt>
      <trkpt lat="47.24438" lon="-1.04297">
        <ele>64</ele>
        <time>2017-06-05T16:14:37Z</time>
      </trkpt>
      <trkpt lat="47.24447" lon="-1.04298">
        <ele>63</ele>
        <time>2017-06-05T16:14:39Z</time>
      </trkpt>
      <trkpt lat="47.24459" lon="-1.04291">
        <ele>63</ele>
        <time>2017-06-05T16:14:42Z</time>
      </trkpt>
      <trkpt lat="47.24463" lon="-1.04288">
        <ele>62</ele>
        <time>2017-06-05T16:14:43Z</time>
      </trkpt>
      <trkpt lat="47.24483" lon="-1.04274">
        <ele>62</ele>
        <time>2017-06-05T16:14:48Z</time>
      </trkpt>
      <trkpt lat="47.24487" lon="-1.0427">
        <ele>62</ele>
        <time>2017-06-05T16:14:49Z</time>
      </trkpt>
      <trkpt lat="47.24491" lon="-1.04266">
        <ele>62</ele>
        <time>2017-06-05T16:14:50Z</time>
      </trkpt>
      <trkpt lat="47.24498" lon="-1.04257">
        <ele>62</ele>
        <time>2017-06-05T16:14:52Z</time>
      </trkpt>
      <trkpt lat="47.24505" lon="-1.0425">
        <ele>62</ele>
        <time>2017-06-05T16:14:54Z</time>
      </trkpt>
      <trkpt lat="47.24508" lon="-1.04246">
        <ele>62</ele>
        <time>2017-06-05T16:14:55Z</time>
      </trkpt>
      <trkpt lat="47.2452" lon="-1.04235">
        <ele>61</ele>
        <time>2017-06-05T16:14:59Z</time>
      </trkpt>
      <trkpt lat="47.24523" lon="-1.04232">
        <ele>60</ele>
        <time>2017-06-05T16:15:00Z</time>
      </trkpt>
      <trkpt lat="47.24528" lon="-1.04224">
        <ele>60</ele>
        <time>2017-06-05T16:15:02Z</time>
      </trkpt>
      <trkpt lat="47.24534" lon="-1.04216">
        <ele>59</ele>
        <time>2017-06-05T16:15:04Z</time>
      </trkpt>
      <trkpt lat="47.24537" lon="-1.04211">
        <ele>58</ele>
        <time>2017-06-05T16:15:05Z</time>
      </trkpt>
      <trkpt lat="47.24543" lon="-1.04199">
        <ele>57</ele>
        <time>2017-06-05T16:15:08Z</time>
      </trkpt>
      <trkpt lat="47.24548" lon="-1.04187">
        <ele>56</ele>
        <time>2017-06-05T16:15:11Z</time>
      </trkpt>
      <trkpt lat="47.24554" lon="-1.04175">
        <ele>55</ele>
        <time>2017-06-05T16:15:14Z</time>
      </trkpt>
      <trkpt lat="47.24564" lon="-1.04166">
        <ele>54</ele>
        <time>2017-06-05T16:15:17Z</time>
      </trkpt>
      <trkpt lat="47.24568" lon="-1.04163">
        <ele>53</ele>
        <time>2017-06-05T16:15:18Z</time>
      </trkpt>
      <trkpt lat="47.24576" lon="-1.04157">
        <ele>52</ele>
        <time>2017-06-05T16:15:20Z</time>
      </trkpt>
      <trkpt lat="47.24588" lon="-1.04146">
        <ele>51</ele>
        <time>2017-06-05T16:15:23Z</time>
      </trkpt>
      <trkpt lat="47.24593" lon="-1.04139">
        <ele>50</ele>
        <time>2017-06-05T16:15:25Z</time>
      </trkpt>
      <trkpt lat="47.24596" lon="-1.04132">
        <ele>49</ele>
        <time>2017-06-05T16:15:27Z</time>
      </trkpt>
      <trkpt lat="47.24598" lon="-1.04129">
        <ele>48</ele>
        <time>2017-06-05T16:15:28Z</time>
      </trkpt>
      <trkpt lat="47.24599" lon="-1.04126">
        <ele>47</ele>
        <time>2017-06-05T16:15:29Z</time>
      </trkpt>
      <trkpt lat="47.24608" lon="-1.04125">
        <ele>46</ele>
        <time>2017-06-05T16:15:32Z</time>
      </trkpt>
      <trkpt lat="47.24632" lon="-1.04125">
        <ele>46</ele>
        <time>2017-06-05T16:15:38Z</time>
      </trkpt>
      <trkpt lat="47.2464" lon="-1.04128">
        <ele>45</ele>
        <time>2017-06-05T16:15:40Z</time>
      </trkpt>
      <trkpt lat="47.24652" lon="-1.04133">
        <ele>44</ele>
        <time>2017-06-05T16:15:43Z</time>
      </trkpt>
      <trkpt lat="47.2466" lon="-1.04138">
        <ele>44</ele>
        <time>2017-06-05T16:15:45Z</time>
      </trkpt>
      <trkpt lat="47.2468" lon="-1.04152">
        <ele>43</ele>
        <time>2017-06-05T16:15:50Z</time>
      </trkpt>
      <trkpt lat="47.24691" lon="-1.04159">
        <ele>42</ele>
        <time>2017-06-05T16:15:53Z</time>
      </trkpt>
      <trkpt lat="47.24707" lon="-1.0417">
        <ele>40</ele>
        <time>2017-06-05T16:15:57Z</time>
      </trkpt>
      <trkpt lat="47.24711" lon="-1.04173">
        <ele>40</ele>
        <time>2017-06-05T16:15:58Z</time>
      </trkpt>
      <trkpt lat="47.24719" lon="-1.04178">
        <ele>39</ele>
        <time>2017-06-05T16:16:00Z</time>
      </trkpt>
      <trkpt lat="47.24733" lon="-1.04192">
        <ele>38</ele>
        <time>2017-06-05T16:16:04Z</time>
      </trkpt>
      <trkpt lat="47.24739" lon="-1.04202">
        <ele>36</ele>
        <time>2017-06-05T16:16:07Z</time>
      </trkpt>
      <trkpt lat="47.24738" lon="-1.04207">
        <ele>35</ele>
        <time>2017-06-05T16:16:08Z</time>
      </trkpt>
      <trkpt lat="47.24732" lon="-1.04217">
        <ele>35</ele>
        <time>2017-06-05T16:16:11Z</time>
      </trkpt>
      <trkpt lat="47.24727" lon="-1.04226">
        <ele>35</ele>
        <time>2017-06-05T16:16:13Z</time>
      </trkpt>
      <trkpt lat="47.24725" lon="-1.0423">
        <ele>35</ele>
        <time>2017-06-05T16:16:14Z</time>
      </trkpt>
      <trkpt lat="47.24718" lon="-1.04244">
        <ele>35</ele>
        <time>2017-06-05T16:16:17Z</time>
      </trkpt>
      <trkpt lat="47.24711" lon="-1.04264">
        <ele>35</ele>
        <time>2017-06-05T16:16:21Z</time>
      </trkpt>
      <trkpt lat="47.247" lon="-1.0429">
        <ele>35</ele>
        <time>2017-06-05T16:16:27Z</time>
      </trkpt>
      <trkpt lat="47.24698" lon="-1.04294">
        <ele>35</ele>
        <time>2017-06-05T16:16:28Z</time>
      </trkpt>
      <trkpt lat="47.24688" lon="-1.04313">
        <ele>34</ele>
        <time>2017-06-05T16:16:33Z</time>
      </trkpt>
      <trkpt lat="47.24676" lon="-1.04338">
        <ele>35</ele>
        <time>2017-06-05T16:16:39Z</time>
      </trkpt>
      <trkpt lat="47.24663" lon="-1.04356">
        <ele>35</ele>
        <time>2017-06-05T16:16:44Z</time>
      </trkpt>
      <trkpt lat="47.24655" lon="-1.04368">
        <ele>35</ele>
        <time>2017-06-05T16:16:49Z</time>
      </trkpt>
      <trkpt lat="47.24654" lon="-1.04372">
        <ele>34</ele>
        <time>2017-06-05T16:16:51Z</time>
      </trkpt>
      <trkpt lat="47.2465" lon="-1.04381">
        <ele>34</ele>
        <time>2017-06-05T16:17:04Z</time>
      </trkpt>
      <trkpt lat="47.2465" lon="-1.04388">
        <ele>34</ele>
        <time>2017-06-05T16:17:07Z</time>
      </trkpt>
      <trkpt lat="47.24649" lon="-1.04406">
        <ele>34</ele>
        <time>2017-06-05T16:17:13Z</time>
      </trkpt>
      <trkpt lat="47.24666" lon="-1.04549">
        <ele>53</ele>
        <time>2017-06-05T16:18:39Z</time>
      </trkpt>
      <trkpt lat="47.24668" lon="-1.04549">
        <ele>53</ele>
        <time>2017-06-05T16:18:40Z</time>
      </trkpt>
      <trkpt lat="47.2468" lon="-1.04559">
        <ele>54</ele>
        <time>2017-06-05T16:18:48Z</time>
      </trkpt>
      <trkpt lat="47.24681" lon="-1.04561">
        <ele>54</ele>
        <time>2017-06-05T16:18:49Z</time>
      </trkpt>
      <trkpt lat="47.24688" lon="-1.04569">
        <ele>55</ele>
        <time>2017-06-05T16:18:54Z</time>
      </trkpt>
      <trkpt lat="47.24689" lon="-1.04571">
        <ele>55</ele>
        <time>2017-06-05T16:18:55Z</time>
      </trkpt>
      <trkpt lat="47.24692" lon="-1.04575">
        <ele>56</ele>
        <time>2017-06-05T16:18:58Z</time>
      </trkpt>
      <trkpt lat="47.24695" lon="-1.04579">
        <ele>57</ele>
        <time>2017-06-05T16:19:01Z</time>
      </trkpt>
      <trkpt lat="47.24699" lon="-1.04583">
        <ele>57</ele>
        <time>2017-06-05T16:19:04Z</time>
      </trkpt>
      <trkpt lat="47.24704" lon="-1.04591">
        <ele>58</ele>
        <time>2017-06-05T16:19:09Z</time>
      </trkpt>
      <trkpt lat="47.2471" lon="-1.046">
        <ele>59</ele>
        <time>2017-06-05T16:19:14Z</time>
      </trkpt>
      <trkpt lat="47.24714" lon="-1.04607">
        <ele>60</ele>
        <time>2017-06-05T16:19:17Z</time>
      </trkpt>
      <trkpt lat="47.24716" lon="-1.04611">
        <ele>60</ele>
        <time>2017-06-05T16:19:19Z</time>
      </trkpt>
      <trkpt lat="47.24723" lon="-1.04623">
        <ele>61</ele>
        <time>2017-06-05T16:19:25Z</time>
      </trkpt>
      <trkpt lat="47.24724" lon="-1.04625">
        <ele>61</ele>
        <time>2017-06-05T16:19:26Z</time>
      </trkpt>
      <trkpt lat="47.2473" lon="-1.04639">
        <ele>63</ele>
        <time>2017-06-05T16:19:31Z</time>
      </trkpt>
      <trkpt lat="47.24739" lon="-1.0466">
        <ele>63</ele>
        <time>2017-06-05T16:19:38Z</time>
      </trkpt>
      <trkpt lat="47.24747" lon="-1.04683">
        <ele>63</ele>
        <time>2017-06-05T16:19:45Z</time>
      </trkpt>
      <trkpt lat="47.2475" lon="-1.04689">
        <ele>64</ele>
        <time>2017-06-05T16:19:47Z</time>
      </trkpt>
      <trkpt lat="47.24759" lon="-1.04698">
        <ele>64</ele>
        <time>2017-06-05T16:19:52Z</time>
      </trkpt>
      <trkpt lat="47.24769" lon="-1.04704">
        <ele>65</ele>
        <time>2017-06-05T16:19:58Z</time>
      </trkpt>
      <trkpt lat="47.2477" lon="-1.04705">
        <ele>65</ele>
        <time>2017-06-05T16:19:59Z</time>
      </trkpt>
      <trkpt lat="47.2478" lon="-1.04712">
        <ele>66</ele>
        <time>2017-06-05T16:20:05Z</time>
      </trkpt>
      <trkpt lat="47.24785" lon="-1.04716">
        <ele>67</ele>
        <time>2017-06-05T16:20:08Z</time>
      </trkpt>
      <trkpt lat="47.24793" lon="-1.04721">
        <ele>68</ele>
        <time>2017-06-05T16:20:13Z</time>
      </trkpt>
      <trkpt lat="47.24795" lon="-1.04721">
        <ele>68</ele>
        <time>2017-06-05T16:20:14Z</time>
      </trkpt>
      <trkpt lat="47.24808" lon="-1.0473">
        <ele>69</ele>
        <time>2017-06-05T16:20:21Z</time>
      </trkpt>
      <trkpt lat="47.2481" lon="-1.04731">
        <ele>69</ele>
        <time>2017-06-05T16:20:22Z</time>
      </trkpt>
      <trkpt lat="47.24822" lon="-1.04738">
        <ele>70</ele>
        <time>2017-06-05T16:20:29Z</time>
      </trkpt>
      <trkpt lat="47.24824" lon="-1.04739">
        <ele>71</ele>
        <time>2017-06-05T16:20:30Z</time>
      </trkpt>
      <trkpt lat="47.24827" lon="-1.04741">
        <ele>71</ele>
        <time>2017-06-05T16:20:32Z</time>
      </trkpt>
      <trkpt lat="47.24835" lon="-1.04746">
        <ele>72</ele>
        <time>2017-06-05T16:20:36Z</time>
      </trkpt>
      <trkpt lat="47.24836" lon="-1.04747">
        <ele>72</ele>
        <time>2017-06-05T16:20:37Z</time>
      </trkpt>
      <trkpt lat="47.24846" lon="-1.04753">
        <ele>73</ele>
        <time>2017-06-05T16:20:43Z</time>
      </trkpt>
      <trkpt lat="47.24848" lon="-1.04755">
        <ele>73</ele>
        <time>2017-06-05T16:20:44Z</time>
      </trkpt>
      <trkpt lat="47.24858" lon="-1.04761">
        <ele>75</ele>
        <time>2017-06-05T16:20:50Z</time>
      </trkpt>
      <trkpt lat="47.24868" lon="-1.04766">
        <ele>76</ele>
        <time>2017-06-05T16:20:55Z</time>
      </trkpt>
      <trkpt lat="47.24871" lon="-1.04769">
        <ele>76</ele>
        <time>2017-06-05T16:20:57Z</time>
      </trkpt>
      <trkpt lat="47.2488" lon="-1.04776">
        <ele>77</ele>
        <time>2017-06-05T16:21:02Z</time>
      </trkpt>
      <trkpt lat="47.24887" lon="-1.04783">
        <ele>78</ele>
        <time>2017-06-05T16:21:06Z</time>
      </trkpt>
      <trkpt lat="47.24894" lon="-1.04785">
        <ele>78</ele>
        <time>2017-06-05T16:21:09Z</time>
      </trkpt>
      <trkpt lat="47.24899" lon="-1.04783">
        <ele>79</ele>
        <time>2017-06-05T16:21:11Z</time>
      </trkpt>
      <trkpt lat="47.24916" lon="-1.0477">
        <ele>79</ele>
        <time>2017-06-05T16:21:17Z</time>
      </trkpt>
      <trkpt lat="47.24919" lon="-1.04769">
        <ele>79</ele>
        <time>2017-06-05T16:21:18Z</time>
      </trkpt>
      <trkpt lat="47.24937" lon="-1.04759">
        <ele>79</ele>
        <time>2017-06-05T16:21:23Z</time>
      </trkpt>
      <trkpt lat="47.24944" lon="-1.04759">
        <ele>79</ele>
        <time>2017-06-05T16:21:25Z</time>
      </trkpt>
      <trkpt lat="47.24949" lon="-1.04772">
        <ele>78</ele>
        <time>2017-06-05T16:21:28Z</time>
      </trkpt>
      <trkpt lat="47.24949" lon="-1.04782">
        <ele>78</ele>
        <time>2017-06-05T16:21:30Z</time>
      </trkpt>
      <trkpt lat="47.24949" lon="-1.04803">
        <ele>79</ele>
        <time>2017-06-05T16:21:34Z</time>
      </trkpt>
      <trkpt lat="47.2495" lon="-1.04823">
        <ele>79</ele>
        <time>2017-06-05T16:21:38Z</time>
      </trkpt>
      <trkpt lat="47.24951" lon="-1.04843">
        <ele>80</ele>
        <time>2017-06-05T16:21:42Z</time>
      </trkpt>
      <trkpt lat="47.24951" lon="-1.04848">
        <ele>81</ele>
        <time>2017-06-05T16:21:43Z</time>
      </trkpt>
      <trkpt lat="47.24953" lon="-1.04884">
        <ele>82</ele>
        <time>2017-06-05T16:21:50Z</time>
      </trkpt>
      <trkpt lat="47.24953" lon="-1.04889">
        <ele>82</ele>
        <time>2017-06-05T16:21:51Z</time>
      </trkpt>
      <trkpt lat="47.24954" lon="-1.04905">
        <ele>83</ele>
        <time>2017-06-05T16:21:54Z</time>
      </trkpt>
      <trkpt lat="47.24954" lon="-1.04925">
        <ele>84</ele>
        <time>2017-06-05T16:21:58Z</time>
      </trkpt>
      <trkpt lat="47.24954" lon="-1.0493">
        <ele>84</ele>
        <time>2017-06-05T16:21:59Z</time>
      </trkpt>
      <trkpt lat="47.24957" lon="-1.04967">
        <ele>85</ele>
        <time>2017-06-05T16:22:06Z</time>
      </trkpt>
      <trkpt lat="47.24958" lon="-1.04971">
        <ele>85</ele>
        <time>2017-06-05T16:22:07Z</time>
      </trkpt>
      <trkpt lat="47.24969" lon="-1.04981">
        <ele>86</ele>
        <time>2017-06-05T16:22:11Z</time>
      </trkpt>
      <trkpt lat="47.2499" lon="-1.04993">
        <ele>86</ele>
        <time>2017-06-05T16:22:18Z</time>
      </trkpt>
      <trkpt lat="47.24992" lon="-1.04993">
        <ele>86</ele>
        <time>2017-06-05T16:22:19Z</time>
      </trkpt>
      <trkpt lat="47.24998" lon="-1.0499">
        <ele>86</ele>
        <time>2017-06-05T16:22:22Z</time>
      </trkpt>
      <trkpt lat="47.25005" lon="-1.04982">
        <ele>84</ele>
        <time>2017-06-05T16:22:33Z</time>
      </trkpt>
      <trkpt lat="47.25013" lon="-1.04978">
        <ele>84</ele>
        <time>2017-06-05T16:22:40Z</time>
      </trkpt>
      <trkpt lat="47.25014" lon="-1.04977">
        <ele>84</ele>
        <time>2017-06-05T16:22:41Z</time>
      </trkpt>
      <trkpt lat="47.25022" lon="-1.04974">
        <ele>86</ele>
        <time>2017-06-05T16:32:41Z</time>
      </trkpt>
      <trkpt lat="47.25025" lon="-1.04973">
        <ele>86</ele>
        <time>2017-06-05T16:32:42Z</time>
      </trkpt>
      <trkpt lat="47.2503" lon="-1.04972">
        <ele>86</ele>
        <time>2017-06-05T16:32:44Z</time>
      </trkpt>
      <trkpt lat="47.25044" lon="-1.0497">
        <ele>85</ele>
        <time>2017-06-05T16:32:49Z</time>
      </trkpt>
      <trkpt lat="47.25066" lon="-1.04973">
        <ele>85</ele>
        <time>2017-06-05T16:32:55Z</time>
      </trkpt>
      <trkpt lat="47.25086" lon="-1.04974">
        <ele>84</ele>
        <time>2017-06-05T16:33:00Z</time>
      </trkpt>
      <trkpt lat="47.25092" lon="-1.0498">
        <ele>84</ele>
        <time>2017-06-05T16:33:02Z</time>
      </trkpt>
      <trkpt lat="47.25093" lon="-1.04985">
        <ele>84</ele>
        <time>2017-06-05T16:33:03Z</time>
      </trkpt>
      <trkpt lat="47.25093" lon="-1.04989">
        <ele>83</ele>
        <time>2017-06-05T16:33:04Z</time>
      </trkpt>
      <trkpt lat="47.25092" lon="-1.05002">
        <ele>83</ele>
        <time>2017-06-05T16:33:07Z</time>
      </trkpt>
      <trkpt lat="47.25091" lon="-1.05011">
        <ele>83</ele>
        <time>2017-06-05T16:33:09Z</time>
      </trkpt>
      <trkpt lat="47.25091" lon="-1.0502">
        <ele>83</ele>
        <time>2017-06-05T16:33:12Z</time>
      </trkpt>
      <trkpt lat="47.25091" lon="-1.05029">
        <ele>84</ele>
        <time>2017-06-05T16:33:14Z</time>
      </trkpt>
      <trkpt lat="47.25097" lon="-1.05053">
        <ele>84</ele>
        <time>2017-06-05T16:33:19Z</time>
      </trkpt>
      <trkpt lat="47.251" lon="-1.05057">
        <ele>84</ele>
        <time>2017-06-05T16:33:20Z</time>
      </trkpt>
      <trkpt lat="47.25112" lon="-1.05062">
        <ele>83</ele>
        <time>2017-06-05T16:33:23Z</time>
      </trkpt>
      <trkpt lat="47.25124" lon="-1.05063">
        <ele>83</ele>
        <time>2017-06-05T16:33:25Z</time>
      </trkpt>
      <trkpt lat="47.2514" lon="-1.05063">
        <ele>81</ele>
        <time>2017-06-05T16:33:28Z</time>
      </trkpt>
      <trkpt lat="47.25145" lon="-1.05064">
        <ele>81</ele>
        <time>2017-06-05T16:33:29Z</time>
      </trkpt>
      <trkpt lat="47.25155" lon="-1.05068">
        <ele>80</ele>
        <time>2017-06-05T16:33:31Z</time>
      </trkpt>
      <trkpt lat="47.25164" lon="-1.05071">
        <ele>80</ele>
        <time>2017-06-05T16:33:33Z</time>
      </trkpt>
      <trkpt lat="47.25169" lon="-1.05072">
        <ele>80</ele>
        <time>2017-06-05T16:33:34Z</time>
      </trkpt>
      <trkpt lat="47.25182" lon="-1.05073">
        <ele>79</ele>
        <time>2017-06-05T16:33:37Z</time>
      </trkpt>
      <trkpt lat="47.2519" lon="-1.05073">
        <ele>78</ele>
        <time>2017-06-05T16:33:39Z</time>
      </trkpt>
      <trkpt lat="47.25193" lon="-1.05072">
        <ele>77</ele>
        <time>2017-06-05T16:33:40Z</time>
      </trkpt>
      <trkpt lat="47.25197" lon="-1.05072">
        <ele>77</ele>
        <time>2017-06-05T16:33:41Z</time>
      </trkpt>
      <trkpt lat="47.25206" lon="-1.05069">
        <ele>75</ele>
        <time>2017-06-05T16:33:44Z</time>
      </trkpt>
      <trkpt lat="47.25209" lon="-1.05069">
        <ele>75</ele>
        <time>2017-06-05T16:33:45Z</time>
      </trkpt>
      <trkpt lat="47.25216" lon="-1.05069">
        <ele>74</ele>
        <time>2017-06-05T16:33:47Z</time>
      </trkpt>
      <trkpt lat="47.25228" lon="-1.05071">
        <ele>73</ele>
        <time>2017-06-05T16:33:50Z</time>
      </trkpt>
      <trkpt lat="47.25232" lon="-1.05072">
        <ele>73</ele>
        <time>2017-06-05T16:33:51Z</time>
      </trkpt>
      <trkpt lat="47.25239" lon="-1.05071">
        <ele>72</ele>
        <time>2017-06-05T16:33:53Z</time>
      </trkpt>
      <trkpt lat="47.2525" lon="-1.05071">
        <ele>70</ele>
        <time>2017-06-05T16:33:56Z</time>
      </trkpt>
      <trkpt lat="47.25257" lon="-1.0507">
        <ele>69</ele>
        <time>2017-06-05T16:33:58Z</time>
      </trkpt>
      <trkpt lat="47.25264" lon="-1.05071">
        <ele>68</ele>
        <time>2017-06-05T16:34:00Z</time>
      </trkpt>
      <trkpt lat="47.25269" lon="-1.0507">
        <ele>66</ele>
        <time>2017-06-05T16:34:02Z</time>
      </trkpt>
      <trkpt lat="47.25272" lon="-1.05071">
        <ele>66</ele>
        <time>2017-06-05T16:34:03Z</time>
      </trkpt>
      <trkpt lat="47.25275" lon="-1.05072">
        <ele>65</ele>
        <time>2017-06-05T16:34:04Z</time>
      </trkpt>
      <trkpt lat="47.25279" lon="-1.05077">
        <ele>64</ele>
        <time>2017-06-05T16:34:06Z</time>
      </trkpt>
      <trkpt lat="47.25279" lon="-1.0508">
        <ele>63</ele>
        <time>2017-06-05T16:34:07Z</time>
      </trkpt>
      <trkpt lat="47.25279" lon="-1.05084">
        <ele>62</ele>
        <time>2017-06-05T16:34:08Z</time>
      </trkpt>
      <trkpt lat="47.25277" lon="-1.05106">
        <ele>61</ele>
        <time>2017-06-05T16:34:12Z</time>
      </trkpt>
      <trkpt lat="47.25274" lon="-1.0512">
        <ele>61</ele>
        <time>2017-06-05T16:34:15Z</time>
      </trkpt>
      <trkpt lat="47.25273" lon="-1.05126">
        <ele>61</ele>
        <time>2017-06-05T16:34:17Z</time>
      </trkpt>
      <trkpt lat="47.25271" lon="-1.05128">
        <ele>61</ele>
        <time>2017-06-05T16:34:18Z</time>
      </trkpt>
      <trkpt lat="47.25269" lon="-1.05133">
        <ele>62</ele>
        <time>2017-06-05T16:34:20Z</time>
      </trkpt>
      <trkpt lat="47.25268" lon="-1.05136">
        <ele>62</ele>
        <time>2017-06-05T16:34:21Z</time>
      </trkpt>
      <trkpt lat="47.25265" lon="-1.05141">
        <ele>63</ele>
        <time>2017-06-05T16:34:23Z</time>
      </trkpt>
      <trkpt lat="47.25265" lon="-1.05145">
        <ele>63</ele>
        <time>2017-06-05T16:34:24Z</time>
      </trkpt>
      <trkpt lat="47.25264" lon="-1.05149">
        <ele>63</ele>
        <time>2017-06-05T16:34:25Z</time>
      </trkpt>
      <trkpt lat="47.25263" lon="-1.05164">
        <ele>64</ele>
        <time>2017-06-05T16:34:29Z</time>
      </trkpt>
      <trkpt lat="47.25263" lon="-1.05176">
        <ele>64</ele>
        <time>2017-06-05T16:34:31Z</time>
      </trkpt>
      <trkpt lat="47.25266" lon="-1.052">
        <ele>64</ele>
        <time>2017-06-05T16:34:37Z</time>
      </trkpt>
      <trkpt lat="47.25266" lon="-1.05209">
        <ele>65</ele>
        <time>2017-06-05T16:34:40Z</time>
      </trkpt>
      <trkpt lat="47.25265" lon="-1.0522">
        <ele>65</ele>
        <time>2017-06-05T16:34:44Z</time>
      </trkpt>
      <trkpt lat="47.25266" lon="-1.05223">
        <ele>66</ele>
        <time>2017-06-05T16:34:45Z</time>
      </trkpt>
      <trkpt lat="47.25267" lon="-1.05232">
        <ele>67</ele>
        <time>2017-06-05T16:34:49Z</time>
      </trkpt>
      <trkpt lat="47.25268" lon="-1.05238">
        <ele>67</ele>
        <time>2017-06-05T16:34:51Z</time>
      </trkpt>
      <trkpt lat="47.2527" lon="-1.05245">
        <ele>68</ele>
        <time>2017-06-05T16:34:53Z</time>
      </trkpt>
      <trkpt lat="47.2527" lon="-1.05267">
        <ele>69</ele>
        <time>2017-06-05T16:34:57Z</time>
      </trkpt>
      <trkpt lat="47.25271" lon="-1.05272">
        <ele>69</ele>
        <time>2017-06-05T16:34:58Z</time>
      </trkpt>
      <trkpt lat="47.25275" lon="-1.05306">
        <ele>70</ele>
        <time>2017-06-05T16:35:05Z</time>
      </trkpt>
      <trkpt lat="47.25278" lon="-1.05331">
        <ele>70</ele>
        <time>2017-06-05T16:35:11Z</time>
      </trkpt>
      <trkpt lat="47.2528" lon="-1.0535">
        <ele>70</ele>
        <time>2017-06-05T16:35:15Z</time>
      </trkpt>
      <trkpt lat="47.25281" lon="-1.05363">
        <ele>70</ele>
        <time>2017-06-05T16:35:18Z</time>
      </trkpt>
      <trkpt lat="47.25279" lon="-1.05382">
        <ele>71</ele>
        <time>2017-06-05T16:35:23Z</time>
      </trkpt>
      <trkpt lat="47.25278" lon="-1.05386">
        <ele>71</ele>
        <time>2017-06-05T16:35:24Z</time>
      </trkpt>
      <trkpt lat="47.25272" lon="-1.05398">
        <ele>72</ele>
        <time>2017-06-05T16:35:28Z</time>
      </trkpt>
      <trkpt lat="47.25271" lon="-1.05402">
        <ele>72</ele>
        <time>2017-06-05T16:35:29Z</time>
      </trkpt>
      <trkpt lat="47.2527" lon="-1.05406">
        <ele>72</ele>
        <time>2017-06-05T16:35:30Z</time>
      </trkpt>
      <trkpt lat="47.25266" lon="-1.05428">
        <ele>73</ele>
        <time>2017-06-05T16:35:36Z</time>
      </trkpt>
      <trkpt lat="47.25265" lon="-1.05432">
        <ele>74</ele>
        <time>2017-06-05T16:35:37Z</time>
      </trkpt>
      <trkpt lat="47.25264" lon="-1.05444">
        <ele>75</ele>
        <time>2017-06-05T16:35:40Z</time>
      </trkpt>
      <trkpt lat="47.25261" lon="-1.05458">
        <ele>75</ele>
        <time>2017-06-05T16:35:43Z</time>
      </trkpt>
      <trkpt lat="47.25259" lon="-1.05468">
        <ele>76</ele>
        <time>2017-06-05T16:35:45Z</time>
      </trkpt>
      <trkpt lat="47.25256" lon="-1.0549">
        <ele>76</ele>
        <time>2017-06-05T16:35:49Z</time>
      </trkpt>
      <trkpt lat="47.25255" lon="-1.05527">
        <ele>76</ele>
        <time>2017-06-05T16:35:55Z</time>
      </trkpt>
      <trkpt lat="47.25252" lon="-1.0557">
        <ele>75</ele>
        <time>2017-06-05T16:36:01Z</time>
      </trkpt>
      <trkpt lat="47.2525" lon="-1.05581">
        <ele>75</ele>
        <time>2017-06-05T16:36:03Z</time>
      </trkpt>
      <trkpt lat="47.25247" lon="-1.05597">
        <ele>74</ele>
        <time>2017-06-05T16:36:06Z</time>
      </trkpt>
      <trkpt lat="47.25243" lon="-1.05627">
        <ele>75</ele>
        <time>2017-06-05T16:36:12Z</time>
      </trkpt>
      <trkpt lat="47.25239" lon="-1.05657">
        <ele>76</ele>
        <time>2017-06-05T16:36:19Z</time>
      </trkpt>
      <trkpt lat="47.25231" lon="-1.05689">
        <ele>77</ele>
        <time>2017-06-05T16:36:26Z</time>
      </trkpt>
      <trkpt lat="47.25216" lon="-1.05709">
        <ele>77</ele>
        <time>2017-06-05T16:36:32Z</time>
      </trkpt>
      <trkpt lat="47.25193" lon="-1.0572">
        <ele>77</ele>
        <time>2017-06-05T16:36:39Z</time>
      </trkpt>
      <trkpt lat="47.25187" lon="-1.05722">
        <ele>78</ele>
        <time>2017-06-05T16:36:41Z</time>
      </trkpt>
      <trkpt lat="47.25171" lon="-1.05726">
        <ele>79</ele>
        <time>2017-06-05T16:36:47Z</time>
      </trkpt>
      <trkpt lat="47.25152" lon="-1.05737">
        <ele>79</ele>
        <time>2017-06-05T16:36:52Z</time>
      </trkpt>
      <trkpt lat="47.25137" lon="-1.05755">
        <ele>79</ele>
        <time>2017-06-05T16:36:58Z</time>
      </trkpt>
      <trkpt lat="47.25119" lon="-1.05775">
        <ele>80</ele>
        <time>2017-06-05T16:37:05Z</time>
      </trkpt>
      <trkpt lat="47.25116" lon="-1.05776">
        <ele>80</ele>
        <time>2017-06-05T16:37:06Z</time>
      </trkpt>
      <trkpt lat="47.25094" lon="-1.05787">
        <ele>81</ele>
        <time>2017-06-05T16:37:13Z</time>
      </trkpt>
      <trkpt lat="47.25091" lon="-1.05789">
        <ele>81</ele>
        <time>2017-06-05T16:37:14Z</time>
      </trkpt>
      <trkpt lat="47.25077" lon="-1.05794">
        <ele>81</ele>
        <time>2017-06-05T16:37:19Z</time>
      </trkpt>
      <trkpt lat="47.25072" lon="-1.05795">
        <ele>82</ele>
        <time>2017-06-05T16:37:21Z</time>
      </trkpt>
      <trkpt lat="47.25061" lon="-1.05798">
        <ele>83</ele>
        <time>2017-06-05T16:37:25Z</time>
      </trkpt>
      <trkpt lat="47.25058" lon="-1.05798">
        <ele>83</ele>
        <time>2017-06-05T16:37:26Z</time>
      </trkpt>
      <trkpt lat="47.25047" lon="-1.05797">
        <ele>84</ele>
        <time>2017-06-05T16:37:30Z</time>
      </trkpt>
      <trkpt lat="47.25037" lon="-1.05796">
        <ele>85</ele>
        <time>2017-06-05T16:37:34Z</time>
      </trkpt>
      <trkpt lat="47.25034" lon="-1.05795">
        <ele>85</ele>
        <time>2017-06-05T16:37:35Z</time>
      </trkpt>
      <trkpt lat="47.25019" lon="-1.05794">
        <ele>86</ele>
        <time>2017-06-05T16:37:41Z</time>
      </trkpt>
      <trkpt lat="47.2501" lon="-1.05793">
        <ele>86</ele>
        <time>2017-06-05T16:37:44Z</time>
      </trkpt>
      <trkpt lat="47.24994" lon="-1.05793">
        <ele>87</ele>
        <time>2017-06-05T16:37:49Z</time>
      </trkpt>
      <trkpt lat="47.24988" lon="-1.05792">
        <ele>87</ele>
        <time>2017-06-05T16:37:51Z</time>
      </trkpt>
      <trkpt lat="47.24973" lon="-1.05792">
        <ele>88</ele>
        <time>2017-06-05T16:37:56Z</time>
      </trkpt>
      <trkpt lat="47.24955" lon="-1.05796">
        <ele>88</ele>
        <time>2017-06-05T16:38:02Z</time>
      </trkpt>
      <trkpt lat="47.2495" lon="-1.05801">
        <ele>88</ele>
        <time>2017-06-05T16:38:04Z</time>
      </trkpt>
      <trkpt lat="47.24944" lon="-1.05812">
        <ele>89</ele>
        <time>2017-06-05T16:38:07Z</time>
      </trkpt>
      <trkpt lat="47.2493" lon="-1.05842">
        <ele>90</ele>
        <time>2017-06-05T16:38:14Z</time>
      </trkpt>
      <trkpt lat="47.24922" lon="-1.05868">
        <ele>90</ele>
        <time>2017-06-05T16:38:20Z</time>
      </trkpt>
      <trkpt lat="47.24918" lon="-1.05877">
        <ele>91</ele>
        <time>2017-06-05T16:38:22Z</time>
      </trkpt>
      <trkpt lat="47.24912" lon="-1.05897">
        <ele>91</ele>
        <time>2017-06-05T16:38:27Z</time>
      </trkpt>
      <trkpt lat="47.24909" lon="-1.05907">
        <ele>92</ele>
        <time>2017-06-05T16:38:31Z</time>
      </trkpt>
      <trkpt lat="47.24907" lon="-1.05918">
        <ele>92</ele>
        <time>2017-06-05T16:38:34Z</time>
      </trkpt>
      <trkpt lat="47.24904" lon="-1.05931">
        <ele>93</ele>
        <time>2017-06-05T16:38:37Z</time>
      </trkpt>
      <trkpt lat="47.24901" lon="-1.0595">
        <ele>94</ele>
        <time>2017-06-05T16:38:42Z</time>
      </trkpt>
      <trkpt lat="47.249" lon="-1.05954">
        <ele>94</ele>
        <time>2017-06-05T16:38:43Z</time>
      </trkpt>
      <trkpt lat="47.24898" lon="-1.05979">
        <ele>95</ele>
        <time>2017-06-05T16:38:49Z</time>
      </trkpt>
      <trkpt lat="47.24895" lon="-1.05996">
        <ele>96</ele>
        <time>2017-06-05T16:38:54Z</time>
      </trkpt>
      <trkpt lat="47.24893" lon="-1.06003">
        <ele>96</ele>
        <time>2017-06-05T16:38:56Z</time>
      </trkpt>
      <trkpt lat="47.24894" lon="-1.06018">
        <ele>97</ele>
        <time>2017-06-05T16:39:00Z</time>
      </trkpt>
      <trkpt lat="47.24893" lon="-1.06026">
        <ele>97</ele>
        <time>2017-06-05T16:39:02Z</time>
      </trkpt>
      <trkpt lat="47.24883" lon="-1.06053">
        <ele>98</ele>
        <time>2017-06-05T16:39:07Z</time>
      </trkpt>
      <trkpt lat="47.24874" lon="-1.06081">
        <ele>98</ele>
        <time>2017-06-05T16:39:12Z</time>
      </trkpt>
      <trkpt lat="47.24865" lon="-1.06106">
        <ele>98</ele>
        <time>2017-06-05T16:39:18Z</time>
      </trkpt>
      <trkpt lat="47.24857" lon="-1.0613">
        <ele>100</ele>
        <time>2017-06-05T16:39:24Z</time>
      </trkpt>
      <trkpt lat="47.24856" lon="-1.06133">
        <ele>100</ele>
        <time>2017-06-05T16:39:25Z</time>
      </trkpt>
      <trkpt lat="47.24853" lon="-1.06142">
        <ele>101</ele>
        <time>2017-06-05T16:39:28Z</time>
      </trkpt>
      <trkpt lat="47.24848" lon="-1.06153">
        <ele>101</ele>
        <time>2017-06-05T16:39:32Z</time>
      </trkpt>
      <trkpt lat="47.24846" lon="-1.06155">
        <ele>102</ele>
        <time>2017-06-05T16:39:33Z</time>
      </trkpt>
      <trkpt lat="47.2484" lon="-1.0617">
        <ele>102</ele>
        <time>2017-06-05T16:39:38Z</time>
      </trkpt>
      <trkpt lat="47.24837" lon="-1.06177">
        <ele>103</ele>
        <time>2017-06-05T16:39:40Z</time>
      </trkpt>
      <trkpt lat="47.24828" lon="-1.06191">
        <ele>103</ele>
        <time>2017-06-05T16:39:44Z</time>
      </trkpt>
      <trkpt lat="47.24816" lon="-1.06206">
        <ele>104</ele>
        <time>2017-06-05T16:39:48Z</time>
      </trkpt>
      <trkpt lat="47.24812" lon="-1.06213">
        <ele>104</ele>
        <time>2017-06-05T16:39:50Z</time>
      </trkpt>
      <trkpt lat="47.24794" lon="-1.06229">
        <ele>104</ele>
        <time>2017-06-05T16:39:55Z</time>
      </trkpt>
      <trkpt lat="47.24777" lon="-1.06224">
        <ele>104</ele>
        <time>2017-06-05T16:40:00Z</time>
      </trkpt>
      <trkpt lat="47.2477" lon="-1.06221">
        <ele>105</ele>
        <time>2017-06-05T16:40:02Z</time>
      </trkpt>
      <trkpt lat="47.24752" lon="-1.06213">
        <ele>105</ele>
        <time>2017-06-05T16:40:07Z</time>
      </trkpt>
      <trkpt lat="47.24741" lon="-1.06206">
        <ele>106</ele>
        <time>2017-06-05T16:40:10Z</time>
      </trkpt>
      <trkpt lat="47.24735" lon="-1.06199">
        <ele>106</ele>
        <time>2017-06-05T16:40:12Z</time>
      </trkpt>
      <trkpt lat="47.24725" lon="-1.06187">
        <ele>107</ele>
        <time>2017-06-05T16:40:16Z</time>
      </trkpt>
      <trkpt lat="47.24714" lon="-1.06175">
        <ele>108</ele>
        <time>2017-06-05T16:40:20Z</time>
      </trkpt>
      <trkpt lat="47.24698" lon="-1.06163">
        <ele>108</ele>
        <time>2017-06-05T16:40:26Z</time>
      </trkpt>
      <trkpt lat="47.24687" lon="-1.06175">
        <ele>107</ele>
        <time>2017-06-05T16:40:30Z</time>
      </trkpt>
      <trkpt lat="47.24685" lon="-1.06179">
        <ele>107</ele>
        <time>2017-06-05T16:40:31Z</time>
      </trkpt>
      <trkpt lat="47.24673" lon="-1.06195">
        <ele>108</ele>
        <time>2017-06-05T16:40:36Z</time>
      </trkpt>
      <trkpt lat="47.24667" lon="-1.06201">
        <ele>108</ele>
        <time>2017-06-05T16:40:38Z</time>
      </trkpt>
      <trkpt lat="47.24652" lon="-1.0622">
        <ele>109</ele>
        <time>2017-06-05T16:40:44Z</time>
      </trkpt>
      <trkpt lat="47.24646" lon="-1.06228">
        <ele>110</ele>
        <time>2017-06-05T16:40:46Z</time>
      </trkpt>
      <trkpt lat="47.24625" lon="-1.06261">
        <ele>110</ele>
        <time>2017-06-05T16:40:54Z</time>
      </trkpt>
      <trkpt lat="47.2462" lon="-1.0627">
        <ele>111</ele>
        <time>2017-06-05T16:40:56Z</time>
      </trkpt>
      <trkpt lat="47.24609" lon="-1.06301">
        <ele>110</ele>
        <time>2017-06-05T16:41:02Z</time>
      </trkpt>
      <trkpt lat="47.24609" lon="-1.06308">
        <ele>110</ele>
        <time>2017-06-05T16:41:03Z</time>
      </trkpt>
      <trkpt lat="47.24607" lon="-1.06331">
        <ele>110</ele>
        <time>2017-06-05T16:41:07Z</time>
      </trkpt>
      <trkpt lat="47.24608" lon="-1.0638">
        <ele>110</ele>
        <time>2017-06-05T16:41:15Z</time>
      </trkpt>
      <trkpt lat="47.24609" lon="-1.06404">
        <ele>111</ele>
        <time>2017-06-05T16:41:19Z</time>
      </trkpt>
      <trkpt lat="47.2461" lon="-1.06415">
        <ele>111</ele>
        <time>2017-06-05T16:41:21Z</time>
      </trkpt>
      <trkpt lat="47.24612" lon="-1.06445">
        <ele>110</ele>
        <time>2017-06-05T16:41:27Z</time>
      </trkpt>
      <trkpt lat="47.24613" lon="-1.06453">
        <ele>110</ele>
        <time>2017-06-05T16:41:29Z</time>
      </trkpt>
      <trkpt lat="47.2462" lon="-1.06463">
        <ele>110</ele>
        <time>2017-06-05T16:41:32Z</time>
      </trkpt>
      <trkpt lat="47.24638" lon="-1.06482">
        <ele>110</ele>
        <time>2017-06-05T16:41:37Z</time>
      </trkpt>
      <trkpt lat="47.24641" lon="-1.06487">
        <ele>110</ele>
        <time>2017-06-05T16:41:38Z</time>
      </trkpt>
      <trkpt lat="47.24648" lon="-1.06509">
        <ele>111</ele>
        <time>2017-06-05T16:41:42Z</time>
      </trkpt>
      <trkpt lat="47.24648" lon="-1.06515">
        <ele>111</ele>
        <time>2017-06-05T16:41:43Z</time>
      </trkpt>
      <trkpt lat="47.24648" lon="-1.06521">
        <ele>111</ele>
        <time>2017-06-05T16:41:44Z</time>
      </trkpt>
      <trkpt lat="47.24642" lon="-1.06541">
        <ele>111</ele>
        <time>2017-06-05T16:41:48Z</time>
      </trkpt>
      <trkpt lat="47.24636" lon="-1.0655">
        <ele>111</ele>
        <time>2017-06-05T16:41:50Z</time>
      </trkpt>
      <trkpt lat="47.24634" lon="-1.06555">
        <ele>112</ele>
        <time>2017-06-05T16:41:51Z</time>
      </trkpt>
      <trkpt lat="47.2463" lon="-1.06566">
        <ele>112</ele>
        <time>2017-06-05T16:41:53Z</time>
      </trkpt>
      <trkpt lat="47.24613" lon="-1.06608">
        <ele>111</ele>
        <time>2017-06-05T16:42:01Z</time>
      </trkpt>
      <trkpt lat="47.24598" lon="-1.06634">
        <ele>111</ele>
        <time>2017-06-05T16:42:07Z</time>
      </trkpt>
      <trkpt lat="47.24584" lon="-1.06663">
        <ele>111</ele>
        <time>2017-06-05T16:42:13Z</time>
      </trkpt>
      <trkpt lat="47.24568" lon="-1.06698">
        <ele>110</ele>
        <time>2017-06-05T16:42:20Z</time>
      </trkpt>
      <trkpt lat="47.24566" lon="-1.06702">
        <ele>110</ele>
        <time>2017-06-05T16:42:21Z</time>
      </trkpt>
      <trkpt lat="47.24549" lon="-1.06731">
        <ele>111</ele>
        <time>2017-06-05T16:42:26Z</time>
      </trkpt>
      <trkpt lat="47.24539" lon="-1.0675">
        <ele>111</ele>
        <time>2017-06-05T16:42:29Z</time>
      </trkpt>
      <trkpt lat="47.24531" lon="-1.06765">
        <ele>111</ele>
        <time>2017-06-05T16:42:32Z</time>
      </trkpt>
      <trkpt lat="47.24523" lon="-1.0678">
        <ele>111</ele>
        <time>2017-06-05T16:42:35Z</time>
      </trkpt>
      <trkpt lat="47.24517" lon="-1.06796">
        <ele>112</ele>
        <time>2017-06-05T16:42:38Z</time>
      </trkpt>
      <trkpt lat="47.24501" lon="-1.06835">
        <ele>112</ele>
        <time>2017-06-05T16:42:46Z</time>
      </trkpt>
      <trkpt lat="47.24492" lon="-1.06856">
        <ele>113</ele>
        <time>2017-06-05T16:42:50Z</time>
      </trkpt>
      <trkpt lat="47.2449" lon="-1.06862">
        <ele>113</ele>
        <time>2017-06-05T16:42:51Z</time>
      </trkpt>
      <trkpt lat="47.24486" lon="-1.06873">
        <ele>113</ele>
        <time>2017-06-05T16:42:53Z</time>
      </trkpt>
      <trkpt lat="47.24471" lon="-1.06895">
        <ele>113</ele>
        <time>2017-06-05T16:42:58Z</time>
      </trkpt>
      <trkpt lat="47.24454" lon="-1.0692">
        <ele>113</ele>
        <time>2017-06-05T16:43:03Z</time>
      </trkpt>
      <trkpt lat="47.24432" lon="-1.06961">
        <ele>113</ele>
        <time>2017-06-05T16:43:09Z</time>
      </trkpt>
      <trkpt lat="47.2443" lon="-1.06967">
        <ele>113</ele>
        <time>2017-06-05T16:43:10Z</time>
      </trkpt>
      <trkpt lat="47.24422" lon="-1.06985">
        <ele>113</ele>
        <time>2017-06-05T16:43:13Z</time>
      </trkpt>
      <trkpt lat="47.24416" lon="-1.06995">
        <ele>113</ele>
        <time>2017-06-05T16:43:15Z</time>
      </trkpt>
      <trkpt lat="47.24411" lon="-1.07004">
        <ele>114</ele>
        <time>2017-06-05T16:43:17Z</time>
      </trkpt>
      <trkpt lat="47.24399" lon="-1.07028">
        <ele>114</ele>
        <time>2017-06-05T16:43:22Z</time>
      </trkpt>
      <trkpt lat="47.24377" lon="-1.07067">
        <ele>115</ele>
        <time>2017-06-05T16:43:30Z</time>
      </trkpt>
      <trkpt lat="47.24359" lon="-1.07099">
        <ele>115</ele>
        <time>2017-06-05T16:43:36Z</time>
      </trkpt>
      <trkpt lat="47.2435" lon="-1.07115">
        <ele>115</ele>
        <time>2017-06-05T16:43:39Z</time>
      </trkpt>
      <trkpt lat="47.24323" lon="-1.07156">
        <ele>115</ele>
        <time>2017-06-05T16:43:47Z</time>
      </trkpt>
      <trkpt lat="47.24317" lon="-1.07166">
        <ele>115</ele>
        <time>2017-06-05T16:43:49Z</time>
      </trkpt>
      <trkpt lat="47.24307" lon="-1.07187">
        <ele>115</ele>
        <time>2017-06-05T16:43:53Z</time>
      </trkpt>
      <trkpt lat="47.2429" lon="-1.07222">
        <ele>115</ele>
        <time>2017-06-05T16:44:00Z</time>
      </trkpt>
      <trkpt lat="47.24277" lon="-1.07246">
        <ele>115</ele>
        <time>2017-06-05T16:44:04Z</time>
      </trkpt>
      <trkpt lat="47.24268" lon="-1.07256">
        <ele>115</ele>
        <time>2017-06-05T16:44:06Z</time>
      </trkpt>
      <trkpt lat="47.24258" lon="-1.07265">
        <ele>115</ele>
        <time>2017-06-05T16:44:09Z</time>
      </trkpt>
      <trkpt lat="47.24255" lon="-1.07272">
        <ele>114</ele>
        <time>2017-06-05T16:44:11Z</time>
      </trkpt>
      <trkpt lat="47.24255" lon="-1.07275">
        <ele>114</ele>
        <time>2017-06-05T16:44:12Z</time>
      </trkpt>
      <trkpt lat="47.24257" lon="-1.07281">
        <ele>114</ele>
        <time>2017-06-05T16:44:14Z</time>
      </trkpt>
      <trkpt lat="47.24262" lon="-1.07287">
        <ele>113</ele>
        <time>2017-06-05T16:44:16Z</time>
      </trkpt>
      <trkpt lat="47.24267" lon="-1.07299">
        <ele>113</ele>
        <time>2017-06-05T16:44:19Z</time>
      </trkpt>
      <trkpt lat="47.24264" lon="-1.07313">
        <ele>113</ele>
        <time>2017-06-05T16:44:23Z</time>
      </trkpt>
      <trkpt lat="47.24254" lon="-1.07325">
        <ele>113</ele>
        <time>2017-06-05T16:44:28Z</time>
      </trkpt>
      <trkpt lat="47.24237" lon="-1.07355">
        <ele>113</ele>
        <time>2017-06-05T16:44:33Z</time>
      </trkpt>
      <trkpt lat="47.24226" lon="-1.07372">
        <ele>113</ele>
        <time>2017-06-05T16:44:36Z</time>
      </trkpt>
      <trkpt lat="47.24207" lon="-1.074">
        <ele>112</ele>
        <time>2017-06-05T16:44:41Z</time>
      </trkpt>
      <trkpt lat="47.24186" lon="-1.07428">
        <ele>112</ele>
        <time>2017-06-05T16:44:46Z</time>
      </trkpt>
      <trkpt lat="47.24177" lon="-1.07439">
        <ele>112</ele>
        <time>2017-06-05T16:44:48Z</time>
      </trkpt>
      <trkpt lat="47.24173" lon="-1.07444">
        <ele>111</ele>
        <time>2017-06-05T16:44:49Z</time>
      </trkpt>
      <trkpt lat="47.24161" lon="-1.07459">
        <ele>111</ele>
        <time>2017-06-05T16:44:52Z</time>
      </trkpt>
      <trkpt lat="47.24154" lon="-1.0747">
        <ele>111</ele>
        <time>2017-06-05T16:44:54Z</time>
      </trkpt>
      <trkpt lat="47.24142" lon="-1.07493">
        <ele>110</ele>
        <time>2017-06-05T16:44:58Z</time>
      </trkpt>
      <trkpt lat="47.24134" lon="-1.07511">
        <ele>110</ele>
        <time>2017-06-05T16:45:01Z</time>
      </trkpt>
      <trkpt lat="47.24128" lon="-1.07522">
        <ele>110</ele>
        <time>2017-06-05T16:45:03Z</time>
      </trkpt>
      <trkpt lat="47.24125" lon="-1.07528">
        <ele>110</ele>
        <time>2017-06-05T16:45:04Z</time>
      </trkpt>
      <trkpt lat="47.24115" lon="-1.07546">
        <ele>110</ele>
        <time>2017-06-05T16:45:07Z</time>
      </trkpt>
      <trkpt lat="47.24113" lon="-1.07552">
        <ele>110</ele>
        <time>2017-06-05T16:45:08Z</time>
      </trkpt>
      <trkpt lat="47.24111" lon="-1.07565">
        <ele>110</ele>
        <time>2017-06-05T16:45:10Z</time>
      </trkpt>
      <trkpt lat="47.24109" lon="-1.07571">
        <ele>110</ele>
        <time>2017-06-05T16:45:11Z</time>
      </trkpt>
      <trkpt lat="47.24105" lon="-1.07589">
        <ele>110</ele>
        <time>2017-06-05T16:45:14Z</time>
      </trkpt>
      <trkpt lat="47.24098" lon="-1.07606">
        <ele>110</ele>
        <time>2017-06-05T16:45:17Z</time>
      </trkpt>
      <trkpt lat="47.24088" lon="-1.07636">
        <ele>111</ele>
        <time>2017-06-05T16:45:22Z</time>
      </trkpt>
      <trkpt lat="47.24085" lon="-1.07649">
        <ele>111</ele>
        <time>2017-06-05T16:45:24Z</time>
      </trkpt>
      <trkpt lat="47.24073" lon="-1.07696">
        <ele>111</ele>
        <time>2017-06-05T16:45:31Z</time>
      </trkpt>
      <trkpt lat="47.24059" lon="-1.07745">
        <ele>110</ele>
        <time>2017-06-05T16:45:38Z</time>
      </trkpt>
      <trkpt lat="47.24049" lon="-1.07793">
        <ele>110</ele>
        <time>2017-06-05T16:45:45Z</time>
      </trkpt>
      <trkpt lat="47.24048" lon="-1.07801">
        <ele>109</ele>
        <time>2017-06-05T16:45:46Z</time>
      </trkpt>
      <trkpt lat="47.24048" lon="-1.07825">
        <ele>109</ele>
        <time>2017-06-05T16:45:49Z</time>
      </trkpt>
      <trkpt lat="47.2405" lon="-1.07852">
        <ele>109</ele>
        <time>2017-06-05T16:45:53Z</time>
      </trkpt>
      <trkpt lat="47.24053" lon="-1.07859">
        <ele>109</ele>
        <time>2017-06-05T16:45:54Z</time>
      </trkpt>
      <trkpt lat="47.24058" lon="-1.07872">
        <ele>108</ele>
        <time>2017-06-05T16:45:56Z</time>
      </trkpt>
      <trkpt lat="47.24063" lon="-1.07885">
        <ele>108</ele>
        <time>2017-06-05T16:45:58Z</time>
      </trkpt>
      <trkpt lat="47.2407" lon="-1.07904">
        <ele>108</ele>
        <time>2017-06-05T16:46:01Z</time>
      </trkpt>
      <trkpt lat="47.24071" lon="-1.07911">
        <ele>108</ele>
        <time>2017-06-05T16:46:02Z</time>
      </trkpt>
      <trkpt lat="47.24083" lon="-1.07946">
        <ele>107</ele>
        <time>2017-06-05T16:46:07Z</time>
      </trkpt>
      <trkpt lat="47.24086" lon="-1.07953">
        <ele>107</ele>
        <time>2017-06-05T16:46:08Z</time>
      </trkpt>
      <trkpt lat="47.24093" lon="-1.07966">
        <ele>106</ele>
        <time>2017-06-05T16:46:10Z</time>
      </trkpt>
      <trkpt lat="47.24099" lon="-1.07987">
        <ele>105</ele>
        <time>2017-06-05T16:46:13Z</time>
      </trkpt>
      <trkpt lat="47.24098" lon="-1.07995">
        <ele>105</ele>
        <time>2017-06-05T16:46:14Z</time>
      </trkpt>
      <trkpt lat="47.24097" lon="-1.08025">
        <ele>104</ele>
        <time>2017-06-05T16:46:18Z</time>
      </trkpt>
      <trkpt lat="47.24098" lon="-1.08036">
        <ele>103</ele>
        <time>2017-06-05T16:46:20Z</time>
      </trkpt>
      <trkpt lat="47.24098" lon="-1.08046">
        <ele>103</ele>
        <time>2017-06-05T16:46:22Z</time>
      </trkpt>
      <trkpt lat="47.24099" lon="-1.08058">
        <ele>104</ele>
        <time>2017-06-05T16:46:24Z</time>
      </trkpt>
      <trkpt lat="47.241" lon="-1.08071">
        <ele>104</ele>
        <time>2017-06-05T16:46:26Z</time>
      </trkpt>
      <trkpt lat="47.24103" lon="-1.08084">
        <ele>105</ele>
        <time>2017-06-05T16:46:28Z</time>
      </trkpt>
      <trkpt lat="47.24104" lon="-1.0809">
        <ele>105</ele>
        <time>2017-06-05T16:46:29Z</time>
      </trkpt>
      <trkpt lat="47.24105" lon="-1.08109">
        <ele>106</ele>
        <time>2017-06-05T16:46:32Z</time>
      </trkpt>
      <trkpt lat="47.24105" lon="-1.08116">
        <ele>106</ele>
        <time>2017-06-05T16:46:33Z</time>
      </trkpt>
      <trkpt lat="47.24106" lon="-1.08129">
        <ele>107</ele>
        <time>2017-06-05T16:46:35Z</time>
      </trkpt>
      <trkpt lat="47.24108" lon="-1.08149">
        <ele>107</ele>
        <time>2017-06-05T16:46:38Z</time>
      </trkpt>
      <trkpt lat="47.24109" lon="-1.08173">
        <ele>107</ele>
        <time>2017-06-05T16:46:42Z</time>
      </trkpt>
      <trkpt lat="47.24097" lon="-1.0819">
        <ele>108</ele>
        <time>2017-06-05T16:46:46Z</time>
      </trkpt>
      <trkpt lat="47.24074" lon="-1.08205">
        <ele>107</ele>
        <time>2017-06-05T16:46:50Z</time>
      </trkpt>
      <trkpt lat="47.24069" lon="-1.08208">
        <ele>107</ele>
        <time>2017-06-05T16:46:51Z</time>
      </trkpt>
      <trkpt lat="47.24047" lon="-1.08218">
        <ele>107</ele>
        <time>2017-06-05T16:46:56Z</time>
      </trkpt>
      <trkpt lat="47.24026" lon="-1.08225">
        <ele>106</ele>
        <time>2017-06-05T16:47:01Z</time>
      </trkpt>
      <trkpt lat="47.24017" lon="-1.08227">
        <ele>106</ele>
        <time>2017-06-05T16:47:03Z</time>
      </trkpt>
      <trkpt lat="47.24013" lon="-1.08229">
        <ele>106</ele>
        <time>2017-06-05T16:47:04Z</time>
      </trkpt>
      <trkpt lat="47.24001" lon="-1.08239">
        <ele>105</ele>
        <time>2017-06-05T16:47:07Z</time>
      </trkpt>
      <trkpt lat="47.23992" lon="-1.08247">
        <ele>105</ele>
        <time>2017-06-05T16:47:09Z</time>
      </trkpt>
      <trkpt lat="47.23978" lon="-1.08259">
        <ele>104</ele>
        <time>2017-06-05T16:47:12Z</time>
      </trkpt>
      <trkpt lat="47.23973" lon="-1.08262">
        <ele>104</ele>
        <time>2017-06-05T16:47:13Z</time>
      </trkpt>
      <trkpt lat="47.23962" lon="-1.08269">
        <ele>103</ele>
        <time>2017-06-05T16:47:15Z</time>
      </trkpt>
      <trkpt lat="47.23956" lon="-1.08273">
        <ele>102</ele>
        <time>2017-06-05T16:47:16Z</time>
      </trkpt>
      <trkpt lat="47.23951" lon="-1.08277">
        <ele>102</ele>
        <time>2017-06-05T16:47:17Z</time>
      </trkpt>
      <trkpt lat="47.23942" lon="-1.08282">
        <ele>101</ele>
        <time>2017-06-05T16:47:19Z</time>
      </trkpt>
      <trkpt lat="47.23928" lon="-1.08284">
        <ele>99</ele>
        <time>2017-06-05T16:47:22Z</time>
      </trkpt>
      <trkpt lat="47.23923" lon="-1.08283">
        <ele>99</ele>
        <time>2017-06-05T16:47:23Z</time>
      </trkpt>
      <trkpt lat="47.23915" lon="-1.08282">
        <ele>98</ele>
        <time>2017-06-05T16:47:25Z</time>
      </trkpt>
      <trkpt lat="47.23879" lon="-1.08277">
        <ele>96</ele>
        <time>2017-06-05T16:48:04Z</time>
      </trkpt>
      <trkpt lat="47.23871" lon="-1.0828">
        <ele>96</ele>
        <time>2017-06-05T16:48:07Z</time>
      </trkpt>
      <trkpt lat="47.23865" lon="-1.08284">
        <ele>96</ele>
        <time>2017-06-05T16:48:10Z</time>
      </trkpt>
      <trkpt lat="47.23862" lon="-1.08286">
        <ele>97</ele>
        <time>2017-06-05T16:48:12Z</time>
      </trkpt>
      <trkpt lat="47.23859" lon="-1.08289">
        <ele>97</ele>
        <time>2017-06-05T16:48:14Z</time>
      </trkpt>
      <trkpt lat="47.23856" lon="-1.08291">
        <ele>98</ele>
        <time>2017-06-05T16:48:16Z</time>
      </trkpt>
      <trkpt lat="47.23855" lon="-1.08292">
        <ele>98</ele>
        <time>2017-06-05T16:48:17Z</time>
      </trkpt>
      <trkpt lat="47.23849" lon="-1.08298">
        <ele>99</ele>
        <time>2017-06-05T16:48:20Z</time>
      </trkpt>
      <trkpt lat="47.23847" lon="-1.083">
        <ele>99</ele>
        <time>2017-06-05T16:48:21Z</time>
      </trkpt>
      <trkpt lat="47.23839" lon="-1.0831">
        <ele>100</ele>
        <time>2017-06-05T16:48:26Z</time>
      </trkpt>
      <trkpt lat="47.2383" lon="-1.08316">
        <ele>101</ele>
        <time>2017-06-05T16:48:30Z</time>
      </trkpt>
      <trkpt lat="47.23827" lon="-1.08318">
        <ele>101</ele>
        <time>2017-06-05T16:48:31Z</time>
      </trkpt>
      <trkpt lat="47.23824" lon="-1.08319">
        <ele>101</ele>
        <time>2017-06-05T16:48:32Z</time>
      </trkpt>
      <trkpt lat="47.23799" lon="-1.08343">
        <ele>102</ele>
        <time>2017-06-05T16:48:39Z</time>
      </trkpt>
      <trkpt lat="47.23794" lon="-1.08348">
        <ele>102</ele>
        <time>2017-06-05T16:48:40Z</time>
      </trkpt>
      <trkpt lat="47.23779" lon="-1.0837">
        <ele>103</ele>
        <time>2017-06-05T16:48:45Z</time>
      </trkpt>
      <trkpt lat="47.23764" lon="-1.08395">
        <ele>104</ele>
        <time>2017-06-05T16:48:51Z</time>
      </trkpt>
      <trkpt lat="47.2376" lon="-1.08403">
        <ele>104</ele>
        <time>2017-06-05T16:48:53Z</time>
      </trkpt>
      <trkpt lat="47.23752" lon="-1.08413">
        <ele>105</ele>
        <time>2017-06-05T16:48:56Z</time>
      </trkpt>
      <trkpt lat="47.23747" lon="-1.08419">
        <ele>105</ele>
        <time>2017-06-05T16:48:58Z</time>
      </trkpt>
      <trkpt lat="47.23724" lon="-1.08436">
        <ele>106</ele>
        <time>2017-06-05T16:49:05Z</time>
      </trkpt>
      <trkpt lat="47.23721" lon="-1.08439">
        <ele>106</ele>
        <time>2017-06-05T16:49:06Z</time>
      </trkpt>
      <trkpt lat="47.23706" lon="-1.08451">
        <ele>106</ele>
        <time>2017-06-05T16:49:11Z</time>
      </trkpt>
      <trkpt lat="47.23694" lon="-1.08468">
        <ele>107</ele>
        <time>2017-06-05T16:49:16Z</time>
      </trkpt>
      <trkpt lat="47.23682" lon="-1.08487">
        <ele>108</ele>
        <time>2017-06-05T16:49:21Z</time>
      </trkpt>
      <trkpt lat="47.23675" lon="-1.08503">
        <ele>108</ele>
        <time>2017-06-05T16:49:25Z</time>
      </trkpt>
      <trkpt lat="47.23675" lon="-1.08506">
        <ele>108</ele>
        <time>2017-06-05T16:49:26Z</time>
      </trkpt>
      <trkpt lat="47.23677" lon="-1.08513">
        <ele>108</ele>
        <time>2017-06-05T16:49:28Z</time>
      </trkpt>
      <trkpt lat="47.23679" lon="-1.08521">
        <ele>108</ele>
        <time>2017-06-05T16:49:30Z</time>
      </trkpt>
      <trkpt lat="47.23685" lon="-1.08532">
        <ele>108</ele>
        <time>2017-06-05T16:49:33Z</time>
      </trkpt>
      <trkpt lat="47.23703" lon="-1.08562">
        <ele>108</ele>
        <time>2017-06-05T16:49:39Z</time>
      </trkpt>
      <trkpt lat="47.23727" lon="-1.08595">
        <ele>109</ele>
        <time>2017-06-05T16:49:45Z</time>
      </trkpt>
      <trkpt lat="47.23732" lon="-1.086">
        <ele>109</ele>
        <time>2017-06-05T16:49:46Z</time>
      </trkpt>
      <trkpt lat="47.2375" lon="-1.08621">
        <ele>108</ele>
        <time>2017-06-05T16:49:50Z</time>
      </trkpt>
      <trkpt lat="47.23761" lon="-1.08636">
        <ele>108</ele>
        <time>2017-06-05T16:49:52Z</time>
      </trkpt>
      <trkpt lat="47.23779" lon="-1.08665">
        <ele>108</ele>
        <time>2017-06-05T16:49:56Z</time>
      </trkpt>
      <trkpt lat="47.23787" lon="-1.08677">
        <ele>107</ele>
        <time>2017-06-05T16:49:58Z</time>
      </trkpt>
      <trkpt lat="47.23817" lon="-1.08715">
        <ele>107</ele>
        <time>2017-06-05T16:50:05Z</time>
      </trkpt>
      <trkpt lat="47.23841" lon="-1.08743">
        <ele>108</ele>
        <time>2017-06-05T16:50:11Z</time>
      </trkpt>
      <trkpt lat="47.23862" lon="-1.08771">
        <ele>109</ele>
        <time>2017-06-05T16:50:17Z</time>
      </trkpt>
      <trkpt lat="47.23868" lon="-1.08779">
        <ele>109</ele>
        <time>2017-06-05T16:50:19Z</time>
      </trkpt>
      <trkpt lat="47.23876" lon="-1.08795">
        <ele>110</ele>
        <time>2017-06-05T16:50:23Z</time>
      </trkpt>
      <trkpt lat="47.2388" lon="-1.08802">
        <ele>110</ele>
        <time>2017-06-05T16:50:25Z</time>
      </trkpt>
      <trkpt lat="47.23893" lon="-1.08821">
        <ele>111</ele>
        <time>2017-06-05T16:50:30Z</time>
      </trkpt>
      <trkpt lat="47.23903" lon="-1.08835">
        <ele>111</ele>
        <time>2017-06-05T16:50:33Z</time>
      </trkpt>
      <trkpt lat="47.23917" lon="-1.08858">
        <ele>111</ele>
        <time>2017-06-05T16:50:37Z</time>
      </trkpt>
      <trkpt lat="47.23945" lon="-1.08892">
        <ele>111</ele>
        <time>2017-06-05T16:50:43Z</time>
      </trkpt>
      <trkpt lat="47.23952" lon="-1.08904">
        <ele>112</ele>
        <time>2017-06-05T16:50:45Z</time>
      </trkpt>
      <trkpt lat="47.23968" lon="-1.08929">
        <ele>112</ele>
        <time>2017-06-05T16:50:49Z</time>
      </trkpt>
      <trkpt lat="47.23998" lon="-1.08968">
        <ele>112</ele>
        <time>2017-06-05T16:50:55Z</time>
      </trkpt>
      <trkpt lat="47.24021" lon="-1.08997">
        <ele>111</ele>
        <time>2017-06-05T16:50:59Z</time>
      </trkpt>
      <trkpt lat="47.24043" lon="-1.09025">
        <ele>110</ele>
        <time>2017-06-05T16:51:03Z</time>
      </trkpt>
      <trkpt lat="47.24057" lon="-1.09045">
        <ele>110</ele>
        <time>2017-06-05T16:51:06Z</time>
      </trkpt>
      <trkpt lat="47.24071" lon="-1.09063">
        <ele>110</ele>
        <time>2017-06-05T16:51:09Z</time>
      </trkpt>
      <trkpt lat="47.24079" lon="-1.09074">
        <ele>110</ele>
        <time>2017-06-05T16:51:11Z</time>
      </trkpt>
      <trkpt lat="47.24103" lon="-1.09114">
        <ele>110</ele>
        <time>2017-06-05T16:51:18Z</time>
      </trkpt>
      <trkpt lat="47.24128" lon="-1.09146">
        <ele>109</ele>
        <time>2017-06-05T16:51:24Z</time>
      </trkpt>
      <trkpt lat="47.24151" lon="-1.09179">
        <ele>110</ele>
        <time>2017-06-05T16:51:30Z</time>
      </trkpt>
      <trkpt lat="47.24167" lon="-1.09205">
        <ele>111</ele>
        <time>2017-06-05T16:51:35Z</time>
      </trkpt>
      <trkpt lat="47.2417" lon="-1.09209">
        <ele>111</ele>
        <time>2017-06-05T16:51:36Z</time>
      </trkpt>
      <trkpt lat="47.24172" lon="-1.09215">
        <ele>111</ele>
        <time>2017-06-05T16:51:37Z</time>
      </trkpt>
      <trkpt lat="47.24181" lon="-1.09231">
        <ele>112</ele>
        <time>2017-06-05T16:51:40Z</time>
      </trkpt>
      <trkpt lat="47.24191" lon="-1.09245">
        <ele>113</ele>
        <time>2017-06-05T16:51:43Z</time>
      </trkpt>
      <trkpt lat="47.24214" lon="-1.09279">
        <ele>113</ele>
        <time>2017-06-05T16:51:50Z</time>
      </trkpt>
      <trkpt lat="47.2423" lon="-1.09304">
        <ele>114</ele>
        <time>2017-06-05T16:51:56Z</time>
      </trkpt>
      <trkpt lat="47.24232" lon="-1.09308">
        <ele>114</ele>
        <time>2017-06-05T16:51:57Z</time>
      </trkpt>
      <trkpt lat="47.24241" lon="-1.09328">
        <ele>115</ele>
        <time>2017-06-05T16:52:02Z</time>
      </trkpt>
      <trkpt lat="47.24258" lon="-1.0935">
        <ele>115</ele>
        <time>2017-06-05T16:52:08Z</time>
      </trkpt>
      <trkpt lat="47.24267" lon="-1.09367">
        <ele>115</ele>
        <time>2017-06-05T16:52:14Z</time>
      </trkpt>
      <trkpt lat="47.24274" lon="-1.0938">
        <ele>115</ele>
        <time>2017-06-05T16:52:18Z</time>
      </trkpt>
      <trkpt lat="47.24277" lon="-1.09384">
        <ele>115</ele>
        <time>2017-06-05T16:52:19Z</time>
      </trkpt>
      <trkpt lat="47.2428" lon="-1.09387">
        <ele>115</ele>
        <time>2017-06-05T16:52:20Z</time>
      </trkpt>
      <trkpt lat="47.24295" lon="-1.09414">
        <ele>116</ele>
        <time>2017-06-05T16:52:26Z</time>
      </trkpt>
      <trkpt lat="47.24312" lon="-1.09442">
        <ele>117</ele>
        <time>2017-06-05T16:52:30Z</time>
      </trkpt>
      <trkpt lat="47.24324" lon="-1.09459">
        <ele>117</ele>
        <time>2017-06-05T16:52:33Z</time>
      </trkpt>
      <trkpt lat="47.24332" lon="-1.0947">
        <ele>118</ele>
        <time>2017-06-05T16:52:35Z</time>
      </trkpt>
      <trkpt lat="47.24357" lon="-1.0951">
        <ele>118</ele>
        <time>2017-06-05T16:52:42Z</time>
      </trkpt>
      <trkpt lat="47.24387" lon="-1.09553">
        <ele>119</ele>
        <time>2017-06-05T16:52:50Z</time>
      </trkpt>
      <trkpt lat="47.24394" lon="-1.09565">
        <ele>119</ele>
        <time>2017-06-05T16:52:52Z</time>
      </trkpt>
      <trkpt lat="47.24418" lon="-1.096">
        <ele>119</ele>
        <time>2017-06-05T16:52:58Z</time>
      </trkpt>
      <trkpt lat="47.24442" lon="-1.09638">
        <ele>120</ele>
        <time>2017-06-05T16:53:04Z</time>
      </trkpt>
      <trkpt lat="47.24445" lon="-1.09645">
        <ele>120</ele>
        <time>2017-06-05T16:53:05Z</time>
      </trkpt>
      <trkpt lat="47.24471" lon="-1.09687">
        <ele>120</ele>
        <time>2017-06-05T16:53:11Z</time>
      </trkpt>
      <trkpt lat="47.2449" lon="-1.09717">
        <ele>119</ele>
        <time>2017-06-05T16:53:15Z</time>
      </trkpt>
      <trkpt lat="47.24504" lon="-1.09738">
        <ele>117</ele>
        <time>2017-06-05T16:53:18Z</time>
      </trkpt>
      <trkpt lat="47.24509" lon="-1.09744">
        <ele>117</ele>
        <time>2017-06-05T16:53:19Z</time>
      </trkpt>
      <trkpt lat="47.24517" lon="-1.09757">
        <ele>117</ele>
        <time>2017-06-05T16:53:21Z</time>
      </trkpt>
      <trkpt lat="47.24526" lon="-1.09769">
        <ele>116</ele>
        <time>2017-06-05T16:53:23Z</time>
      </trkpt>
      <trkpt lat="47.24534" lon="-1.09782">
        <ele>116</ele>
        <time>2017-06-05T16:53:25Z</time>
      </trkpt>
      <trkpt lat="47.24538" lon="-1.09788">
        <ele>116</ele>
        <time>2017-06-05T16:53:26Z</time>
      </trkpt>
      <trkpt lat="47.24543" lon="-1.09795">
        <ele>115</ele>
        <time>2017-06-05T16:53:27Z</time>
      </trkpt>
      <trkpt lat="47.24555" lon="-1.09814">
        <ele>115</ele>
        <time>2017-06-05T16:53:30Z</time>
      </trkpt>
      <trkpt lat="47.2456" lon="-1.09818">
        <ele>115</ele>
        <time>2017-06-05T16:53:31Z</time>
      </trkpt>
      <trkpt lat="47.24568" lon="-1.09827">
        <ele>115</ele>
        <time>2017-06-05T16:53:33Z</time>
      </trkpt>
      <trkpt lat="47.2459" lon="-1.09861">
        <ele>115</ele>
        <time>2017-06-05T16:53:39Z</time>
      </trkpt>
      <trkpt lat="47.24594" lon="-1.09866">
        <ele>115</ele>
        <time>2017-06-05T16:53:40Z</time>
      </trkpt>
      <trkpt lat="47.24613" lon="-1.099">
        <ele>116</ele>
        <time>2017-06-05T16:53:46Z</time>
      </trkpt>
      <trkpt lat="47.2464" lon="-1.09941">
        <ele>115</ele>
        <time>2017-06-05T16:53:53Z</time>
      </trkpt>
      <trkpt lat="47.24665" lon="-1.09976">
        <ele>114</ele>
        <time>2017-06-05T16:54:00Z</time>
      </trkpt>
      <trkpt lat="47.24669" lon="-1.0998">
        <ele>114</ele>
        <time>2017-06-05T16:54:01Z</time>
      </trkpt>
      <trkpt lat="47.24693" lon="-1.10014">
        <ele>114</ele>
        <time>2017-06-05T16:54:08Z</time>
      </trkpt>
      <trkpt lat="47.24702" lon="-1.10035">
        <ele>113</ele>
        <time>2017-06-05T16:54:12Z</time>
      </trkpt>
      <trkpt lat="47.24703" lon="-1.1004">
        <ele>113</ele>
        <time>2017-06-05T16:54:13Z</time>
      </trkpt>
      <trkpt lat="47.24705" lon="-1.10044">
        <ele>113</ele>
        <time>2017-06-05T16:54:14Z</time>
      </trkpt>
      <trkpt lat="47.24714" lon="-1.10061">
        <ele>113</ele>
        <time>2017-06-05T16:54:18Z</time>
      </trkpt>
      <trkpt lat="47.24716" lon="-1.10067">
        <ele>113</ele>
        <time>2017-06-05T16:54:19Z</time>
      </trkpt>
      <trkpt lat="47.24731" lon="-1.101">
        <ele>112</ele>
        <time>2017-06-05T16:54:25Z</time>
      </trkpt>
      <trkpt lat="47.24756" lon="-1.10135">
        <ele>112</ele>
        <time>2017-06-05T16:54:32Z</time>
      </trkpt>
      <trkpt lat="47.24779" lon="-1.1015">
        <ele>111</ele>
        <time>2017-06-05T16:54:37Z</time>
      </trkpt>
      <trkpt lat="47.24791" lon="-1.10158">
        <ele>111</ele>
        <time>2017-06-05T16:54:40Z</time>
      </trkpt>
      <trkpt lat="47.248" lon="-1.10165">
        <ele>111</ele>
        <time>2017-06-05T16:54:43Z</time>
      </trkpt>
      <trkpt lat="47.2481" lon="-1.1017">
        <ele>111</ele>
        <time>2017-06-05T16:54:46Z</time>
      </trkpt>
      <trkpt lat="47.24817" lon="-1.10175">
        <ele>111</ele>
        <time>2017-06-05T16:54:48Z</time>
      </trkpt>
      <trkpt lat="47.24837" lon="-1.10187">
        <ele>111</ele>
        <time>2017-06-05T16:54:52Z</time>
      </trkpt>
      <trkpt lat="47.24844" lon="-1.10192">
        <ele>111</ele>
        <time>2017-06-05T16:54:54Z</time>
      </trkpt>
      <trkpt lat="47.24876" lon="-1.10218">
        <ele>112</ele>
        <time>2017-06-05T16:55:02Z</time>
      </trkpt>
      <trkpt lat="47.24893" lon="-1.10228">
        <ele>112</ele>
        <time>2017-06-05T16:55:06Z</time>
      </trkpt>
      <trkpt lat="47.24902" lon="-1.10234">
        <ele>112</ele>
        <time>2017-06-05T16:55:08Z</time>
      </trkpt>
      <trkpt lat="47.24922" lon="-1.10249">
        <ele>112</ele>
        <time>2017-06-05T16:55:14Z</time>
      </trkpt>
      <trkpt lat="47.24928" lon="-1.10253">
        <ele>112</ele>
        <time>2017-06-05T16:55:17Z</time>
      </trkpt>
      <trkpt lat="47.24929" lon="-1.10253">
        <ele>112</ele>
        <time>2017-06-05T16:55:18Z</time>
      </trkpt>
      <trkpt lat="47.24929" lon="-1.10252">
        <ele>112</ele>
        <time>2017-06-05T16:55:19Z</time>
      </trkpt>
      <trkpt lat="47.2493" lon="-1.10245">
        <ele>113</ele>
        <time>2017-06-05T16:55:23Z</time>
      </trkpt>
      <trkpt lat="47.2493" lon="-1.10238">
        <ele>113</ele>
        <time>2017-06-05T16:55:25Z</time>
      </trkpt>
      <trkpt lat="47.24932" lon="-1.10223">
        <ele>113</ele>
        <time>2017-06-05T16:55:29Z</time>
      </trkpt>
      <trkpt lat="47.24934" lon="-1.10216">
        <ele>114</ele>
        <time>2017-06-05T16:55:31Z</time>
      </trkpt>
      <trkpt lat="47.24937" lon="-1.10194">
        <ele>114</ele>
        <time>2017-06-05T16:55:36Z</time>
      </trkpt>
      <trkpt lat="47.24938" lon="-1.10175">
        <ele>114</ele>
        <time>2017-06-05T16:55:42Z</time>
      </trkpt>
      <trkpt lat="47.2494" lon="-1.10156">
        <ele>114</ele>
        <time>2017-06-05T16:55:47Z</time>
      </trkpt>
      <trkpt lat="47.24942" lon="-1.10148">
        <ele>115</ele>
        <time>2017-06-05T16:55:49Z</time>
      </trkpt>
      <trkpt lat="47.24948" lon="-1.10128">
        <ele>115</ele>
        <time>2017-06-05T16:55:54Z</time>
      </trkpt>
      <trkpt lat="47.24955" lon="-1.10093">
        <ele>115</ele>
        <time>2017-06-05T16:56:02Z</time>
      </trkpt>
      <trkpt lat="47.24962" lon="-1.10069">
        <ele>115</ele>
        <time>2017-06-05T16:56:08Z</time>
      </trkpt>
      <trkpt lat="47.24964" lon="-1.10052">
        <ele>115</ele>
        <time>2017-06-05T16:56:12Z</time>
      </trkpt>
      <trkpt lat="47.24964" lon="-1.10047">
        <ele>115</ele>
        <time>2017-06-05T16:56:14Z</time>
      </trkpt>
      <trkpt lat="47.24965" lon="-1.1004">
        <ele>115</ele>
        <time>2017-06-05T16:56:16Z</time>
      </trkpt>
      <trkpt lat="47.24967" lon="-1.10026">
        <ele>115</ele>
        <time>2017-06-05T16:56:19Z</time>
      </trkpt>
      <trkpt lat="47.24969" lon="-1.10004">
        <ele>115</ele>
        <time>2017-06-05T16:56:25Z</time>
      </trkpt>
      <trkpt lat="47.2497" lon="-1.09981">
        <ele>115</ele>
        <time>2017-06-05T16:56:32Z</time>
      </trkpt>
      <trkpt lat="47.24973" lon="-1.09958">
        <ele>115</ele>
        <time>2017-06-05T16:56:38Z</time>
      </trkpt>
      <trkpt lat="47.24979" lon="-1.09924">
        <ele>115</ele>
        <time>2017-06-05T16:56:45Z</time>
      </trkpt>
      <trkpt lat="47.24983" lon="-1.09892">
        <ele>115</ele>
        <time>2017-06-05T16:56:51Z</time>
      </trkpt>
      <trkpt lat="47.24993" lon="-1.09852">
        <ele>115</ele>
        <time>2017-06-05T16:56:58Z</time>
      </trkpt>
      <trkpt lat="47.24993" lon="-1.09848">
        <ele>116</ele>
        <time>2017-06-05T16:56:59Z</time>
      </trkpt>
      <trkpt lat="47.24993" lon="-1.09832">
        <ele>116</ele>
        <time>2017-06-05T16:57:02Z</time>
      </trkpt>
      <trkpt lat="47.25" lon="-1.09802">
        <ele>116</ele>
        <time>2017-06-05T16:57:08Z</time>
      </trkpt>
      <trkpt lat="47.25014" lon="-1.09758">
        <ele>116</ele>
        <time>2017-06-05T16:57:14Z</time>
      </trkpt>
      <trkpt lat="47.25019" lon="-1.09753">
        <ele>116</ele>
        <time>2017-06-05T16:57:16Z</time>
      </trkpt>
      <trkpt lat="47.25027" lon="-1.09755">
        <ele>116</ele>
        <time>2017-06-05T16:57:18Z</time>
      </trkpt>
      <trkpt lat="47.25043" lon="-1.09759">
        <ele>117</ele>
        <time>2017-06-05T16:57:21Z</time>
      </trkpt>
      <trkpt lat="47.25048" lon="-1.09761">
        <ele>117</ele>
        <time>2017-06-05T16:57:22Z</time>
      </trkpt>
      <trkpt lat="47.25053" lon="-1.09762">
        <ele>117</ele>
        <time>2017-06-05T16:57:23Z</time>
      </trkpt>
      <trkpt lat="47.25097" lon="-1.09774">
        <ele>117</ele>
        <time>2017-06-05T16:57:31Z</time>
      </trkpt>
      <trkpt lat="47.25118" lon="-1.09782">
        <ele>117</ele>
        <time>2017-06-05T16:57:35Z</time>
      </trkpt>
      <trkpt lat="47.25124" lon="-1.09793">
        <ele>116</ele>
        <time>2017-06-05T16:57:37Z</time>
      </trkpt>
      <trkpt lat="47.25129" lon="-1.09811">
        <ele>116</ele>
        <time>2017-06-05T16:57:41Z</time>
      </trkpt>
      <trkpt lat="47.25143" lon="-1.09811">
        <ele>115</ele>
        <time>2017-06-05T16:57:44Z</time>
      </trkpt>
      <trkpt lat="47.25154" lon="-1.09812">
        <ele>115</ele>
        <time>2017-06-05T16:57:46Z</time>
      </trkpt>
      <trkpt lat="47.25171" lon="-1.09813">
        <ele>113</ele>
        <time>2017-06-05T16:57:50Z</time>
      </trkpt>
      <trkpt lat="47.25192" lon="-1.09814">
        <ele>113</ele>
        <time>2017-06-05T16:57:55Z</time>
      </trkpt>
      <trkpt lat="47.25224" lon="-1.09813">
        <ele>113</ele>
        <time>2017-06-05T16:58:02Z</time>
      </trkpt>
      <trkpt lat="47.25242" lon="-1.09808">
        <ele>112</ele>
        <time>2017-06-05T16:58:06Z</time>
      </trkpt>
      <trkpt lat="47.2527" lon="-1.09804">
        <ele>111</ele>
        <time>2017-06-05T16:58:11Z</time>
      </trkpt>
      <trkpt lat="47.25281" lon="-1.09801">
        <ele>111</ele>
        <time>2017-06-05T16:58:13Z</time>
      </trkpt>
      <trkpt lat="47.25329" lon="-1.09787">
        <ele>110</ele>
        <time>2017-06-05T16:58:22Z</time>
      </trkpt>
      <trkpt lat="47.25334" lon="-1.09785">
        <ele>110</ele>
        <time>2017-06-05T16:58:23Z</time>
      </trkpt>
      <trkpt lat="47.25371" lon="-1.09777">
        <ele>110</ele>
        <time>2017-06-05T16:58:30Z</time>
      </trkpt>
      <trkpt lat="47.25377" lon="-1.09776">
        <ele>110</ele>
        <time>2017-06-05T16:58:31Z</time>
      </trkpt>
      <trkpt lat="47.25409" lon="-1.09774">
        <ele>109</ele>
        <time>2017-06-05T16:58:37Z</time>
      </trkpt>
      <trkpt lat="47.25422" lon="-1.09774">
        <ele>109</ele>
        <time>2017-06-05T16:58:40Z</time>
      </trkpt>
      <trkpt lat="47.25437" lon="-1.09776">
        <ele>109</ele>
        <time>2017-06-05T16:58:45Z</time>
      </trkpt>
      <trkpt lat="47.25452" lon="-1.09777">
        <ele>108</ele>
        <time>2017-06-05T16:58:49Z</time>
      </trkpt>
      <trkpt lat="47.25463" lon="-1.09777">
        <ele>108</ele>
        <time>2017-06-05T16:58:52Z</time>
      </trkpt>
      <trkpt lat="47.25484" lon="-1.09778">
        <ele>108</ele>
        <time>2017-06-05T16:58:57Z</time>
      </trkpt>
      <trkpt lat="47.25494" lon="-1.0978">
        <ele>108</ele>
        <time>2017-06-05T16:58:59Z</time>
      </trkpt>
      <trkpt lat="47.25515" lon="-1.09782">
        <ele>108</ele>
        <time>2017-06-05T16:59:04Z</time>
      </trkpt>
      <trkpt lat="47.25529" lon="-1.09781">
        <ele>108</ele>
        <time>2017-06-05T16:59:07Z</time>
      </trkpt>
      <trkpt lat="47.25558" lon="-1.0978">
        <ele>109</ele>
        <time>2017-06-05T16:59:14Z</time>
      </trkpt>
      <trkpt lat="47.25577" lon="-1.09774">
        <ele>109</ele>
        <time>2017-06-05T16:59:18Z</time>
      </trkpt>
      <trkpt lat="47.25597" lon="-1.09765">
        <ele>109</ele>
        <time>2017-06-05T16:59:22Z</time>
      </trkpt>
      <trkpt lat="47.25607" lon="-1.09758">
        <ele>110</ele>
        <time>2017-06-05T16:59:24Z</time>
      </trkpt>
      <trkpt lat="47.25623" lon="-1.09747">
        <ele>110</ele>
        <time>2017-06-05T16:59:27Z</time>
      </trkpt>
      <trkpt lat="47.25659" lon="-1.09719">
        <ele>110</ele>
        <time>2017-06-05T16:59:34Z</time>
      </trkpt>
      <trkpt lat="47.25696" lon="-1.0969">
        <ele>109</ele>
        <time>2017-06-05T16:59:42Z</time>
      </trkpt>
      <trkpt lat="47.25735" lon="-1.09662">
        <ele>108</ele>
        <time>2017-06-05T16:59:50Z</time>
      </trkpt>
      <trkpt lat="47.2577" lon="-1.09639">
        <ele>108</ele>
        <time>2017-06-05T16:59:57Z</time>
      </trkpt>
      <trkpt lat="47.25807" lon="-1.09619">
        <ele>108</ele>
        <time>2017-06-05T17:00:04Z</time>
      </trkpt>
      <trkpt lat="47.25852" lon="-1.09604">
        <ele>109</ele>
        <time>2017-06-05T17:00:12Z</time>
      </trkpt>
      <trkpt lat="47.25858" lon="-1.09602">
        <ele>108</ele>
        <time>2017-06-05T17:00:13Z</time>
      </trkpt>
      <trkpt lat="47.25864" lon="-1.09601">
        <ele>108</ele>
        <time>2017-06-05T17:00:14Z</time>
      </trkpt>
      <trkpt lat="47.25902" lon="-1.09583">
        <ele>107</ele>
        <time>2017-06-05T17:00:21Z</time>
      </trkpt>
      <trkpt lat="47.25912" lon="-1.09576">
        <ele>107</ele>
        <time>2017-06-05T17:00:23Z</time>
      </trkpt>
      <trkpt lat="47.25922" lon="-1.09566">
        <ele>107</ele>
        <time>2017-06-05T17:00:25Z</time>
      </trkpt>
      <trkpt lat="47.25932" lon="-1.09555">
        <ele>107</ele>
        <time>2017-06-05T17:00:27Z</time>
      </trkpt>
      <trkpt lat="47.25941" lon="-1.09544">
        <ele>106</ele>
        <time>2017-06-05T17:00:29Z</time>
      </trkpt>
      <trkpt lat="47.25946" lon="-1.09538">
        <ele>106</ele>
        <time>2017-06-05T17:00:30Z</time>
      </trkpt>
      <trkpt lat="47.25955" lon="-1.09528">
        <ele>106</ele>
        <time>2017-06-05T17:00:32Z</time>
      </trkpt>
      <trkpt lat="47.25965" lon="-1.09517">
        <ele>106</ele>
        <time>2017-06-05T17:00:34Z</time>
      </trkpt>
      <trkpt lat="47.25973" lon="-1.09505">
        <ele>105</ele>
        <time>2017-06-05T17:00:36Z</time>
      </trkpt>
      <trkpt lat="47.25994" lon="-1.09474">
        <ele>104</ele>
        <time>2017-06-05T17:00:41Z</time>
      </trkpt>
      <trkpt lat="47.25998" lon="-1.09468">
        <ele>103</ele>
        <time>2017-06-05T17:00:42Z</time>
      </trkpt>
      <trkpt lat="47.26012" lon="-1.09444">
        <ele>102</ele>
        <time>2017-06-05T17:00:46Z</time>
      </trkpt>
      <trkpt lat="47.26019" lon="-1.09432">
        <ele>102</ele>
        <time>2017-06-05T17:00:48Z</time>
      </trkpt>
      <trkpt lat="47.26023" lon="-1.09425">
        <ele>101</ele>
        <time>2017-06-05T17:00:49Z</time>
      </trkpt>
      <trkpt lat="47.26035" lon="-1.09405">
        <ele>100</ele>
        <time>2017-06-05T17:00:52Z</time>
      </trkpt>
      <trkpt lat="47.26055" lon="-1.09369">
        <ele>99</ele>
        <time>2017-06-05T17:00:57Z</time>
      </trkpt>
      <trkpt lat="47.26063" lon="-1.09353">
        <ele>99</ele>
        <time>2017-06-05T17:00:59Z</time>
      </trkpt>
      <trkpt lat="47.26079" lon="-1.09314">
        <ele>98</ele>
        <time>2017-06-05T17:01:04Z</time>
      </trkpt>
      <trkpt lat="47.26081" lon="-1.09306">
        <ele>98</ele>
        <time>2017-06-05T17:01:05Z</time>
      </trkpt>
      <trkpt lat="47.26088" lon="-1.09281">
        <ele>97</ele>
        <time>2017-06-05T17:01:08Z</time>
      </trkpt>
      <trkpt lat="47.26093" lon="-1.09265">
        <ele>96</ele>
        <time>2017-06-05T17:01:10Z</time>
      </trkpt>
      <trkpt lat="47.26097" lon="-1.09259">
        <ele>96</ele>
        <time>2017-06-05T17:01:11Z</time>
      </trkpt>
      <trkpt lat="47.26111" lon="-1.09232">
        <ele>96</ele>
        <time>2017-06-05T17:01:15Z</time>
      </trkpt>
      <trkpt lat="47.26118" lon="-1.09218">
        <ele>96</ele>
        <time>2017-06-05T17:01:17Z</time>
      </trkpt>
      <trkpt lat="47.26125" lon="-1.09206">
        <ele>96</ele>
        <time>2017-06-05T17:01:19Z</time>
      </trkpt>
      <trkpt lat="47.26134" lon="-1.09195">
        <ele>97</ele>
        <time>2017-06-05T17:01:21Z</time>
      </trkpt>
      <trkpt lat="47.26141" lon="-1.09184">
        <ele>97</ele>
        <time>2017-06-05T17:01:23Z</time>
      </trkpt>
      <trkpt lat="47.26147" lon="-1.09172">
        <ele>98</ele>
        <time>2017-06-05T17:01:25Z</time>
      </trkpt>
      <trkpt lat="47.26152" lon="-1.09161">
        <ele>98</ele>
        <time>2017-06-05T17:01:27Z</time>
      </trkpt>
      <trkpt lat="47.26155" lon="-1.0915">
        <ele>99</ele>
        <time>2017-06-05T17:01:29Z</time>
      </trkpt>
      <trkpt lat="47.26157" lon="-1.09126">
        <ele>100</ele>
        <time>2017-06-05T17:01:33Z</time>
      </trkpt>
      <trkpt lat="47.26157" lon="-1.0912">
        <ele>100</ele>
        <time>2017-06-05T17:01:34Z</time>
      </trkpt>
      <trkpt lat="47.26155" lon="-1.09108">
        <ele>100</ele>
        <time>2017-06-05T17:01:36Z</time>
      </trkpt>
      <trkpt lat="47.26153" lon="-1.09102">
        <ele>100</ele>
        <time>2017-06-05T17:01:37Z</time>
      </trkpt>
      <trkpt lat="47.26149" lon="-1.09084">
        <ele>100</ele>
        <time>2017-06-05T17:01:40Z</time>
      </trkpt>
      <trkpt lat="47.26141" lon="-1.09056">
        <ele>101</ele>
        <time>2017-06-05T17:01:45Z</time>
      </trkpt>
      <trkpt lat="47.26141" lon="-1.0904">
        <ele>102</ele>
        <time>2017-06-05T17:01:48Z</time>
      </trkpt>
      <trkpt lat="47.26146" lon="-1.09034">
        <ele>102</ele>
        <time>2017-06-05T17:01:50Z</time>
      </trkpt>
      <trkpt lat="47.26152" lon="-1.09028">
        <ele>103</ele>
        <time>2017-06-05T17:01:52Z</time>
      </trkpt>
      <trkpt lat="47.26156" lon="-1.09026">
        <ele>103</ele>
        <time>2017-06-05T17:01:53Z</time>
      </trkpt>
      <trkpt lat="47.26174" lon="-1.09011">
        <ele>104</ele>
        <time>2017-06-05T17:01:58Z</time>
      </trkpt>
      <trkpt lat="47.26203" lon="-1.08989">
        <ele>103</ele>
        <time>2017-06-05T17:02:05Z</time>
      </trkpt>
      <trkpt lat="47.26225" lon="-1.08972">
        <ele>104</ele>
        <time>2017-06-05T17:02:11Z</time>
      </trkpt>
      <trkpt lat="47.26227" lon="-1.08963">
        <ele>104</ele>
        <time>2017-06-05T17:02:13Z</time>
      </trkpt>
      <trkpt lat="47.26227" lon="-1.08958">
        <ele>104</ele>
        <time>2017-06-05T17:02:14Z</time>
      </trkpt>
      <trkpt lat="47.26223" lon="-1.08944">
        <ele>104</ele>
        <time>2017-06-05T17:02:17Z</time>
      </trkpt>
      <trkpt lat="47.26219" lon="-1.08933">
        <ele>104</ele>
        <time>2017-06-05T17:02:19Z</time>
      </trkpt>
      <trkpt lat="47.26213" lon="-1.08916">
        <ele>104</ele>
        <time>2017-06-05T17:02:22Z</time>
      </trkpt>
      <trkpt lat="47.26204" lon="-1.0889">
        <ele>105</ele>
        <time>2017-06-05T17:02:27Z</time>
      </trkpt>
      <trkpt lat="47.26201" lon="-1.0888">
        <ele>105</ele>
        <time>2017-06-05T17:02:29Z</time>
      </trkpt>
      <trkpt lat="47.26194" lon="-1.08856">
        <ele>106</ele>
        <time>2017-06-05T17:02:34Z</time>
      </trkpt>
      <trkpt lat="47.26191" lon="-1.08846">
        <ele>107</ele>
        <time>2017-06-05T17:02:36Z</time>
      </trkpt>
      <trkpt lat="47.26184" lon="-1.08822">
        <ele>108</ele>
        <time>2017-06-05T17:02:41Z</time>
      </trkpt>
      <trkpt lat="47.26183" lon="-1.08817">
        <ele>108</ele>
        <time>2017-06-05T17:02:42Z</time>
      </trkpt>
      <trkpt lat="47.26176" lon="-1.08793">
        <ele>109</ele>
        <time>2017-06-05T17:02:47Z</time>
      </trkpt>
      <trkpt lat="47.26171" lon="-1.08774">
        <ele>109</ele>
        <time>2017-06-05T17:02:51Z</time>
      </trkpt>
      <trkpt lat="47.26164" lon="-1.0875">
        <ele>110</ele>
        <time>2017-06-05T17:02:56Z</time>
      </trkpt>
      <trkpt lat="47.26164" lon="-1.08738">
        <ele>110</ele>
        <time>2017-06-05T17:02:58Z</time>
      </trkpt>
      <trkpt lat="47.26166" lon="-1.08719">
        <ele>111</ele>
        <time>2017-06-05T17:03:01Z</time>
      </trkpt>
      <trkpt lat="47.26169" lon="-1.08686">
        <ele>111</ele>
        <time>2017-06-05T17:03:06Z</time>
      </trkpt>
      <trkpt lat="47.26171" lon="-1.08658">
        <ele>112</ele>
        <time>2017-06-05T17:03:10Z</time>
      </trkpt>
      <trkpt lat="47.26176" lon="-1.08623">
        <ele>112</ele>
        <time>2017-06-05T17:03:15Z</time>
      </trkpt>
      <trkpt lat="47.26181" lon="-1.0858">
        <ele>113</ele>
        <time>2017-06-05T17:03:21Z</time>
      </trkpt>
      <trkpt lat="47.26183" lon="-1.0855">
        <ele>113</ele>
        <time>2017-06-05T17:03:25Z</time>
      </trkpt>
      <trkpt lat="47.26186" lon="-1.08512">
        <ele>114</ele>
        <time>2017-06-05T17:03:30Z</time>
      </trkpt>
      <trkpt lat="47.26186" lon="-1.08497">
        <ele>114</ele>
        <time>2017-06-05T17:03:32Z</time>
      </trkpt>
      <trkpt lat="47.26188" lon="-1.08436">
        <ele>115</ele>
        <time>2017-06-05T17:03:40Z</time>
      </trkpt>
      <trkpt lat="47.26191" lon="-1.08399">
        <ele>115</ele>
        <time>2017-06-05T17:03:45Z</time>
      </trkpt>
      <trkpt lat="47.26196" lon="-1.08386">
        <ele>115</ele>
        <time>2017-06-05T17:03:47Z</time>
      </trkpt>
      <trkpt lat="47.26214" lon="-1.08367">
        <ele>115</ele>
        <time>2017-06-05T17:03:51Z</time>
      </trkpt>
      <trkpt lat="47.26245" lon="-1.08345">
        <ele>115</ele>
        <time>2017-06-05T17:03:57Z</time>
      </trkpt>
      <trkpt lat="47.26257" lon="-1.08339">
        <ele>116</ele>
        <time>2017-06-05T17:03:59Z</time>
      </trkpt>
      <trkpt lat="47.26311" lon="-1.08312">
        <ele>116</ele>
        <time>2017-06-05T17:04:08Z</time>
      </trkpt>
      <trkpt lat="47.26329" lon="-1.08305">
        <ele>116</ele>
        <time>2017-06-05T17:04:11Z</time>
      </trkpt>
      <trkpt lat="47.26342" lon="-1.08303">
        <ele>116</ele>
        <time>2017-06-05T17:04:13Z</time>
      </trkpt>
      <trkpt lat="47.26348" lon="-1.08303">
        <ele>116</ele>
        <time>2017-06-05T17:04:14Z</time>
      </trkpt>
      <trkpt lat="47.26367" lon="-1.08308">
        <ele>116</ele>
        <time>2017-06-05T17:04:17Z</time>
      </trkpt>
      <trkpt lat="47.2638" lon="-1.08314">
        <ele>116</ele>
        <time>2017-06-05T17:04:19Z</time>
      </trkpt>
      <trkpt lat="47.264" lon="-1.08323">
        <ele>116</ele>
        <time>2017-06-05T17:04:22Z</time>
      </trkpt>
      <trkpt lat="47.26419" lon="-1.08332">
        <ele>116</ele>
        <time>2017-06-05T17:04:25Z</time>
      </trkpt>
      <trkpt lat="47.26432" lon="-1.08337">
        <ele>116</ele>
        <time>2017-06-05T17:04:27Z</time>
      </trkpt>
      <trkpt lat="47.26458" lon="-1.08347">
        <ele>115</ele>
        <time>2017-06-05T17:04:31Z</time>
      </trkpt>
      <trkpt lat="47.26483" lon="-1.08356">
        <ele>115</ele>
        <time>2017-06-05T17:04:35Z</time>
      </trkpt>
      <trkpt lat="47.26494" lon="-1.0836">
        <ele>115</ele>
        <time>2017-06-05T17:04:37Z</time>
      </trkpt>
      <trkpt lat="47.26506" lon="-1.08364">
        <ele>115</ele>
        <time>2017-06-05T17:04:39Z</time>
      </trkpt>
      <trkpt lat="47.26533" lon="-1.08376">
        <ele>115</ele>
        <time>2017-06-05T17:04:44Z</time>
      </trkpt>
      <trkpt lat="47.26538" lon="-1.08378">
        <ele>115</ele>
        <time>2017-06-05T17:04:45Z</time>
      </trkpt>
      <trkpt lat="47.26546" lon="-1.0837">
        <ele>115</ele>
        <time>2017-06-05T17:04:48Z</time>
      </trkpt>
      <trkpt lat="47.26549" lon="-1.08359">
        <ele>114</ele>
        <time>2017-06-05T17:04:50Z</time>
      </trkpt>
      <trkpt lat="47.2655" lon="-1.08352">
        <ele>114</ele>
        <time>2017-06-05T17:04:51Z</time>
      </trkpt>
      <trkpt lat="47.26551" lon="-1.08339">
        <ele>114</ele>
        <time>2017-06-05T17:04:53Z</time>
      </trkpt>
      <trkpt lat="47.26552" lon="-1.08326">
        <ele>114</ele>
        <time>2017-06-05T17:04:55Z</time>
      </trkpt>
      <trkpt lat="47.26553" lon="-1.08305">
        <ele>114</ele>
        <time>2017-06-05T17:04:58Z</time>
      </trkpt>
      <trkpt lat="47.26554" lon="-1.08277">
        <ele>114</ele>
        <time>2017-06-05T17:05:02Z</time>
      </trkpt>
      <trkpt lat="47.26553" lon="-1.08248">
        <ele>114</ele>
        <time>2017-06-05T17:05:06Z</time>
      </trkpt>
      <trkpt lat="47.2655" lon="-1.08219">
        <ele>115</ele>
        <time>2017-06-05T17:05:10Z</time>
      </trkpt>
      <trkpt lat="47.26543" lon="-1.08153">
        <ele>114</ele>
        <time>2017-06-05T17:05:18Z</time>
      </trkpt>
      <trkpt lat="47.26536" lon="-1.08103">
        <ele>113</ele>
        <time>2017-06-05T17:05:23Z</time>
      </trkpt>
      <trkpt lat="47.26535" lon="-1.08093">
        <ele>113</ele>
        <time>2017-06-05T17:05:24Z</time>
      </trkpt>
      <trkpt lat="47.26532" lon="-1.08065">
        <ele>112</ele>
        <time>2017-06-05T17:05:27Z</time>
      </trkpt>
      <trkpt lat="47.2653" lon="-1.0805">
        <ele>111</ele>
        <time>2017-06-05T17:05:29Z</time>
      </trkpt>
      <trkpt lat="47.26527" lon="-1.08035">
        <ele>111</ele>
        <time>2017-06-05T17:05:31Z</time>
      </trkpt>
      <trkpt lat="47.26526" lon="-1.08028">
        <ele>110</ele>
        <time>2017-06-05T17:05:32Z</time>
      </trkpt>
      <trkpt lat="47.26524" lon="-1.08013">
        <ele>109</ele>
        <time>2017-06-05T17:05:34Z</time>
      </trkpt>
      <trkpt lat="47.26522" lon="-1.07997">
        <ele>109</ele>
        <time>2017-06-05T17:05:36Z</time>
      </trkpt>
      <trkpt lat="47.26519" lon="-1.07967">
        <ele>108</ele>
        <time>2017-06-05T17:05:40Z</time>
      </trkpt>
      <trkpt lat="47.26517" lon="-1.07939">
        <ele>108</ele>
        <time>2017-06-05T17:05:44Z</time>
      </trkpt>
      <trkpt lat="47.26517" lon="-1.07918">
        <ele>108</ele>
        <time>2017-06-05T17:05:47Z</time>
      </trkpt>
      <trkpt lat="47.26517" lon="-1.07884">
        <ele>108</ele>
        <time>2017-06-05T17:05:52Z</time>
      </trkpt>
      <trkpt lat="47.26517" lon="-1.07877">
        <ele>108</ele>
        <time>2017-06-05T17:05:53Z</time>
      </trkpt>
      <trkpt lat="47.26516" lon="-1.07846">
        <ele>109</ele>
        <time>2017-06-05T17:05:58Z</time>
      </trkpt>
      <trkpt lat="47.26516" lon="-1.07827">
        <ele>109</ele>
        <time>2017-06-05T17:06:01Z</time>
      </trkpt>
      <trkpt lat="47.26515" lon="-1.07809">
        <ele>109</ele>
        <time>2017-06-05T17:06:04Z</time>
      </trkpt>
      <trkpt lat="47.26512" lon="-1.0778">
        <ele>111</ele>
        <time>2017-06-05T17:06:09Z</time>
      </trkpt>
      <trkpt lat="47.26506" lon="-1.07732">
        <ele>112</ele>
        <time>2017-06-05T17:06:17Z</time>
      </trkpt>
      <trkpt lat="47.26509" lon="-1.0769">
        <ele>112</ele>
        <time>2017-06-05T17:06:24Z</time>
      </trkpt>
      <trkpt lat="47.2651" lon="-1.07679">
        <ele>112</ele>
        <time>2017-06-05T17:06:26Z</time>
      </trkpt>
      <trkpt lat="47.26513" lon="-1.07644">
        <ele>112</ele>
        <time>2017-06-05T17:06:32Z</time>
      </trkpt>
      <trkpt lat="47.26515" lon="-1.07632">
        <ele>113</ele>
        <time>2017-06-05T17:06:34Z</time>
      </trkpt>
      <trkpt lat="47.26516" lon="-1.07626">
        <ele>113</ele>
        <time>2017-06-05T17:06:35Z</time>
      </trkpt>
      <trkpt lat="47.26521" lon="-1.07608">
        <ele>114</ele>
        <time>2017-06-05T17:06:38Z</time>
      </trkpt>
      <trkpt lat="47.26538" lon="-1.07556">
        <ele>114</ele>
        <time>2017-06-05T17:06:47Z</time>
      </trkpt>
      <trkpt lat="47.26546" lon="-1.07556">
        <ele>114</ele>
        <time>2017-06-05T17:06:50Z</time>
      </trkpt>
      <trkpt lat="47.26554" lon="-1.07565">
        <ele>114</ele>
        <time>2017-06-05T17:06:52Z</time>
      </trkpt>
      <trkpt lat="47.26567" lon="-1.07577">
        <ele>114</ele>
        <time>2017-06-05T17:06:55Z</time>
      </trkpt>
      <trkpt lat="47.26595" lon="-1.0759">
        <ele>114</ele>
        <time>2017-06-05T17:07:00Z</time>
      </trkpt>
      <trkpt lat="47.26614" lon="-1.07591">
        <ele>114</ele>
        <time>2017-06-05T17:07:03Z</time>
      </trkpt>
      <trkpt lat="47.26627" lon="-1.07586">
        <ele>114</ele>
        <time>2017-06-05T17:07:05Z</time>
      </trkpt>
      <trkpt lat="47.26663" lon="-1.07567">
        <ele>113</ele>
        <time>2017-06-05T17:07:11Z</time>
      </trkpt>
      <trkpt lat="47.2667" lon="-1.07563">
        <ele>113</ele>
        <time>2017-06-05T17:07:12Z</time>
      </trkpt>
      <trkpt lat="47.26676" lon="-1.0756">
        <ele>112</ele>
        <time>2017-06-05T17:07:13Z</time>
      </trkpt>
      <trkpt lat="47.2671" lon="-1.07543">
        <ele>112</ele>
        <time>2017-06-05T17:07:18Z</time>
      </trkpt>
      <trkpt lat="47.26725" lon="-1.07538">
        <ele>112</ele>
        <time>2017-06-05T17:07:20Z</time>
      </trkpt>
      <trkpt lat="47.26732" lon="-1.07536">
        <ele>111</ele>
        <time>2017-06-05T17:07:21Z</time>
      </trkpt>
      <trkpt lat="47.2674" lon="-1.07534">
        <ele>111</ele>
        <time>2017-06-05T17:07:22Z</time>
      </trkpt>
      <trkpt lat="47.26748" lon="-1.07532">
        <ele>110</ele>
        <time>2017-06-05T17:07:23Z</time>
      </trkpt>
      <trkpt lat="47.26765" lon="-1.07528">
        <ele>109</ele>
        <time>2017-06-05T17:07:25Z</time>
      </trkpt>
      <trkpt lat="47.26783" lon="-1.07525">
        <ele>108</ele>
        <time>2017-06-05T17:07:27Z</time>
      </trkpt>
      <trkpt lat="47.26793" lon="-1.07522">
        <ele>108</ele>
        <time>2017-06-05T17:07:28Z</time>
      </trkpt>
      <trkpt lat="47.26822" lon="-1.07514">
        <ele>106</ele>
        <time>2017-06-05T17:07:31Z</time>
      </trkpt>
      <trkpt lat="47.26852" lon="-1.07502">
        <ele>105</ele>
        <time>2017-06-05T17:07:34Z</time>
      </trkpt>
      <trkpt lat="47.26883" lon="-1.07486">
        <ele>104</ele>
        <time>2017-06-05T17:07:37Z</time>
      </trkpt>
      <trkpt lat="47.26904" lon="-1.07474">
        <ele>103</ele>
        <time>2017-06-05T17:07:39Z</time>
      </trkpt>
      <trkpt lat="47.26914" lon="-1.07468">
        <ele>102</ele>
        <time>2017-06-05T17:07:40Z</time>
      </trkpt>
      <trkpt lat="47.26933" lon="-1.07458">
        <ele>101</ele>
        <time>2017-06-05T17:07:42Z</time>
      </trkpt>
      <trkpt lat="47.26959" lon="-1.07444">
        <ele>100</ele>
        <time>2017-06-05T17:07:45Z</time>
      </trkpt>
      <trkpt lat="47.26976" lon="-1.07436">
        <ele>99</ele>
        <time>2017-06-05T17:07:47Z</time>
      </trkpt>
      <trkpt lat="47.26992" lon="-1.07427">
        <ele>98</ele>
        <time>2017-06-05T17:07:49Z</time>
      </trkpt>
      <trkpt lat="47.27026" lon="-1.07409">
        <ele>97</ele>
        <time>2017-06-05T17:07:53Z</time>
      </trkpt>
      <trkpt lat="47.27054" lon="-1.07396">
        <ele>96</ele>
        <time>2017-06-05T17:07:56Z</time>
      </trkpt>
      <trkpt lat="47.27081" lon="-1.07385">
        <ele>95</ele>
        <time>2017-06-05T17:07:59Z</time>
      </trkpt>
      <trkpt lat="47.27104" lon="-1.07378">
        <ele>93</ele>
        <time>2017-06-05T17:08:02Z</time>
      </trkpt>
      <trkpt lat="47.2711" lon="-1.07376">
        <ele>93</ele>
        <time>2017-06-05T17:08:03Z</time>
      </trkpt>
      <trkpt lat="47.27116" lon="-1.07374">
        <ele>92</ele>
        <time>2017-06-05T17:08:04Z</time>
      </trkpt>
      <trkpt lat="47.27123" lon="-1.07371">
        <ele>91</ele>
        <time>2017-06-05T17:08:06Z</time>
      </trkpt>
      <trkpt lat="47.27126" lon="-1.07368">
        <ele>91</ele>
        <time>2017-06-05T17:08:07Z</time>
      </trkpt>
      <trkpt lat="47.27129" lon="-1.07357">
        <ele>91</ele>
        <time>2017-06-05T17:08:09Z</time>
      </trkpt>
      <trkpt lat="47.27132" lon="-1.07342">
        <ele>90</ele>
        <time>2017-06-05T17:08:11Z</time>
      </trkpt>
      <trkpt lat="47.27133" lon="-1.07335">
        <ele>90</ele>
        <time>2017-06-05T17:08:12Z</time>
      </trkpt>
      <trkpt lat="47.2714" lon="-1.07314">
        <ele>89</ele>
        <time>2017-06-05T17:08:15Z</time>
      </trkpt>
      <trkpt lat="47.27146" lon="-1.07307">
        <ele>89</ele>
        <time>2017-06-05T17:08:17Z</time>
      </trkpt>
      <trkpt lat="47.27148" lon="-1.07306">
        <ele>89</ele>
        <time>2017-06-05T17:08:18Z</time>
      </trkpt>
      <trkpt lat="47.27157" lon="-1.07303">
        <ele>88</ele>
        <time>2017-06-05T17:08:21Z</time>
      </trkpt>
      <trkpt lat="47.27165" lon="-1.07302">
        <ele>88</ele>
        <time>2017-06-05T17:08:23Z</time>
      </trkpt>
      <trkpt lat="47.27179" lon="-1.07294">
        <ele>87</ele>
        <time>2017-06-05T17:08:27Z</time>
      </trkpt>
      <trkpt lat="47.2718" lon="-1.07291">
        <ele>87</ele>
        <time>2017-06-05T17:08:28Z</time>
      </trkpt>
    </trkseg>
  </trk>
</gpx>